[[{"header":{"parameterUnit":"m.s-1","parameterCategory":1,"la1":30.6,"la2":29.2853,"lo1":-89.7004,"lo2":-87.6739,"dy":0.0162,"dx":0.0183,"nx":112,"ny":82,"refTime":"2024-06-03T18:00:00:Z","depth":0,"parameterNumber":2,"parameterNumberName":"U-component_of_WINDS"},"data":[0.0,0.0,0.0,0.0,0.0,0.0,0.0,0.0,0.0,0.0,0.0,0.0,0.0,0.0,0.0,0.0,0.0,0.0,0.0,0.0,0.0,0.0,0.0,0.0,0.0,0.0,0.0,0.0,0.0,0.0,0.0,0.0,0.0,0.0,0.0,0.0,0.0,0.0,0.0,0.0,0.0,0.0,0.0,0.0,0.0,0.0,0.0,0.0,0.0,0.0,0.0,0.0,0.0,0.0,0.0,0.0,0.0,0.0,0.0,0.0,0.0,0.0,0.0,0.0,0.0,0.0,0.0,0.0,0.0,0.0,0.0,0.0,0.0,0.0,0.0,0.0,0.0,0.0,0.0,0.0,0.0,0.0,0.0,0.0,0.0,0.0,0.0,0.0,0.0,0.0,0.0,2.7139,3.0775,3.2702,3.203,3.1136,2.8952,2.5107,0.0,0.0,0.0,0.0,0.0,0.0,0.0,0.0,0.0,0.0,0.0,0.0,0.0,0.0,0.0,0.0,0.0,0.0,0.0,0.0,0.0,0.0,0.0,0.0,0.0,0.0,0.0,0.0,0.0,0.0,0.0,0.0,0.0,0.0,0.0,0.0,0.0,0.0,0.0,0.0,0.0,0.0,0.0,0.0,0.0,0.0,0.0,0.0,0.0,0.0,0.0,0.0,0.0,0.0,0.0,0.0,0.0,0.0,0.0,0.0,0.0,0.0,0.0,0.0,0.0,0.0,0.0,0.0,0.0,0.0,0.0,0.0,0.0,0.0,0.0,0.0,0.0,0.0,0.0,0.0,0.0,0.0,0.0,0.0,0.0,0.0,0.0,0.0,0.0,0.0,0.0,0.0,0.0,0.0,0.0,0.0,0.0,0.0,0.0,0.0,0.0,0.0,0.0,0.0,2.3442,2.9407,3.121,3.1976,3.1846,3.0469,2.8481,2.5811,0.0,0.0,0.0,0.0,0.0,0.0,0.0,0.0,0.0,0.0,0.0,0.0,0.0,0.0,0.0,0.0,0.0,0.0,0.0,0.0,0.0,0.0,0.0,0.0,0.0,0.0,0.0,0.0,0.0,0.0,0.0,0.0,0.0,0.0,0.0,0.0,0.0,0.0,0.0,0.0,0.0,0.0,0.0,0.0,0.0,0.0,0.0,0.0,0.0,0.0,0.0,0.0,0.0,0.0,0.0,0.0,0.0,0.0,0.0,0.0,0.0,0.0,0.0,0.0,0.0,0.0,0.0,0.0,0.0,0.0,0.0,0.0,0.0,0.0,0.0,0.0,0.0,0.0,0.0,0.0,0.0,0.0,0.0,0.0,0.0,0.0,0.0,0.0,0.0,0.0,0.0,0.0,0.0,0.0,0.0,0.0,0.0,0.0,0.0,0.0,0.0,0.0,0.0,2.3981,2.6414,3.0779,3.1968,3.2265,3.1838,3.0336,2.8181,2.5277,2.2412,0.0,0.0,0.0,0.0,0.0,0.0,0.0,0.0,0.0,0.0,0.0,0.0,0.0,0.0,0.0,0.0,0.0,0.0,0.0,0.0,0.0,0.0,0.0,0.0,0.0,0.0,0.0,0.0,0.0,0.0,0.0,0.0,0.0,0.0,0.0,0.0,0.0,0.0,0.0,0.0,0.0,0.0,0.0,0.0,0.0,0.0,0.0,0.0,0.0,0.0,0.0,0.0,0.0,0.0,0.0,0.0,0.0,0.0,0.0,0.0,0.0,0.0,0.0,0.0,0.0,0.0,0.0,0.0,0.0,0.0,0.0,0.0,0.0,0.0,0.0,0.0,0.0,0.0,0.0,0.0,0.0,0.0,0.0,0.0,0.0,0.0,0.0,0.0,0.0,0.0,0.0,0.0,0.0,0.0,0.0,0.0,0.0,0.0,0.0,0.0,0.0,0.0,2.7027,2.9295,3.1541,3.234,3.247,3.1838,2.9965,2.7585,2.4685,2.1993,0.0,0.0,0.0,0.0,0.0,0.0,0.0,0.0,0.0,0.0,0.0,0.0,0.0,0.0,0.0,0.0,0.0,0.0,0.0,0.0,0.0,0.0,0.0,0.0,0.0,0.0,0.0,0.0,0.0,0.0,0.0,0.0,0.0,0.0,0.0,0.0,0.0,0.0,0.0,0.0,0.0,0.0,0.0,0.0,0.0,0.0,0.0,0.0,0.0,0.0,0.0,0.0,0.0,0.0,0.0,0.0,0.0,0.0,0.0,0.0,0.0,0.0,0.0,0.0,0.0,0.0,0.0,0.0,0.0,0.0,0.0,0.0,0.0,0.0,0.0,0.0,0.0,0.0,0.0,0.0,0.0,0.0,0.0,0.0,0.0,0.0,0.0,0.0,0.0,0.0,0.0,0.0,0.0,0.0,0.0,0.0,0.0,0.0,0.0,0.0,0.0,0.0,2.6841,2.9965,3.1615,3.1838,3.1857,3.1782,2.8905,2.634,2.4611,2.1473,0.0,0.0,0.0,0.0,0.0,0.0,0.0,0.0,0.0,0.0,0.0,0.0,0.0,0.0,0.0,0.0,0.0,0.0,0.0,0.0,0.0,0.0,0.0,0.0,0.0,0.0,0.0,0.0,0.0,0.0,0.0,0.0,0.0,0.0,0.0,0.0,0.0,0.0,0.0,0.0,0.0,0.0,0.0,0.0,0.0,0.0,0.0,0.0,0.0,0.0,0.0,0.0,0.0,0.0,0.0,0.0,0.0,0.0,0.0,0.0,0.0,0.0,0.0,0.0,0.0,0.0,0.0,0.0,0.0,0.0,0.0,0.0,0.0,0.0,0.0,0.0,0.0,0.0,0.0,0.0,0.0,0.0,0.0,0.0,0.0,0.0,0.0,0.0,0.0,0.0,0.0,0.0,0.0,0.0,0.0,0.0,0.0,0.0,0.0,0.0,0.0,0.0,2.6615,2.9357,0.0,3.1755,3.1737,3.1801,2.9237,2.6749,2.463,0.0,0.0,0.0,0.0,0.0,0.0,0.0,0.0,0.0,0.0,0.0,0.0,0.0,0.0,0.0,0.0,0.0,0.0,0.0,0.0,0.0,0.0,0.0,0.0,0.0,0.0,0.0,0.0,0.0,0.0,0.0,0.0,0.0,0.0,0.0,0.0,0.0,0.0,0.0,0.0,0.0,0.0,0.0,0.0,0.0,0.0,0.0,0.0,0.0,0.0,0.0,0.0,0.0,0.0,0.0,0.0,0.0,0.0,0.0,0.0,0.0,0.0,0.0,0.0,0.0,0.0,0.0,0.0,0.0,0.0,0.0,0.0,0.0,0.0,0.0,0.0,0.0,0.0,0.0,0.0,0.0,0.0,0.0,0.0,0.0,0.0,0.0,0.0,0.0,0.0,0.0,0.0,0.0,0.0,0.0,0.0,0.0,0.0,0.0,0.0,0.0,0.0,2.386,2.6905,2.951,0.0,3.1686,3.1709,3.1737,2.8992,2.6469,2.4559,0.0,0.0,0.0,0.0,0.0,0.0,0.0,0.0,0.0,0.0,0.0,0.0,0.0,0.0,0.0,0.0,0.0,0.0,0.0,0.0,0.0,0.0,0.0,0.0,0.0,0.0,0.0,0.0,0.0,0.0,0.0,0.0,0.0,0.0,0.0,0.0,0.0,0.0,0.0,0.0,0.0,0.0,0.0,0.0,0.0,0.0,0.0,0.0,0.0,0.0,0.0,0.0,0.0,0.0,0.0,0.0,0.0,0.0,0.0,0.0,0.0,0.0,0.0,0.0,0.0,0.0,0.0,0.0,0.0,0.0,0.0,0.0,0.0,0.0,0.0,0.0,0.0,0.0,0.0,0.0,0.0,0.0,0.0,0.0,0.0,0.0,0.0,0.0,0.0,0.0,0.0,0.0,0.0,0.0,0.0,0.0,0.0,0.0,0.0,0.0,0.0,0.0,2.3989,2.7864,3.0729,3.1542,3.1616,3.1616,3.1597,2.7867,2.5189,0.0,0.0,0.0,0.0,0.0,0.0,0.0,0.0,0.0,0.0,0.0,0.0,0.0,0.0,0.0,0.0,0.0,0.0,0.0,0.0,0.0,0.0,0.0,0.0,0.0,0.0,0.0,0.0,0.0,0.0,0.0,0.0,0.0,0.0,0.0,0.0,0.0,0.0,0.0,0.0,0.0,0.0,0.0,0.0,0.0,0.0,0.0,0.0,0.0,0.0,0.0,0.0,0.0,0.0,0.0,0.0,0.0,0.0,0.0,0.0,0.0,0.0,0.0,0.0,0.0,0.0,0.0,0.0,0.0,0.0,0.0,0.0,0.0,0.0,0.0,0.0,0.0,0.0,0.0,0.0,0.0,0.0,0.0,0.0,0.0,0.0,0.0,0.0,0.0,0.0,0.0,0.0,0.0,0.0,0.0,0.0,0.0,0.0,0.0,0.0,0.0,0.0,0.0,0.0,2.8107,3.0796,3.2226,3.2373,3.2176,3.1653,2.8916,2.6407,2.4414,0.0,0.0,0.0,0.0,0.0,0.0,0.0,0.0,0.0,0.0,0.0,0.0,0.0,0.0,0.0,0.0,0.0,0.0,0.0,0.0,0.0,0.0,0.0,0.0,0.0,0.0,0.0,0.0,0.0,0.0,0.0,0.0,0.0,0.0,0.0,0.0,0.0,0.0,0.0,0.0,0.0,0.0,0.0,0.0,0.0,0.0,0.0,0.0,0.0,0.0,0.0,0.0,0.0,0.0,0.0,0.0,0.0,0.0,0.0,0.0,0.0,0.0,0.0,0.0,0.0,0.0,0.0,0.0,0.0,0.0,0.0,0.0,0.0,0.0,0.0,0.0,0.0,0.0,0.0,0.0,0.0,0.0,0.0,0.0,0.0,0.0,0.0,0.0,0.0,0.0,0.0,0.0,0.0,0.0,0.0,0.0,0.0,0.0,0.0,0.0,0.0,0.0,2.5035,2.8484,3.1207,3.2518,3.2665,3.236,3.1599,2.9586,2.734,2.4892,0.0,0.0,0.0,0.0,0.0,0.0,0.0,0.0,0.0,0.0,0.0,0.0,0.0,0.0,0.0,0.0,0.0,0.0,0.0,0.0,0.0,0.0,0.0,0.0,0.0,0.0,0.0,0.0,0.0,0.0,0.0,0.0,0.0,0.0,0.0,0.0,0.0,0.0,0.0,0.0,0.0,0.0,0.0,0.0,0.0,0.0,0.0,0.0,0.0,0.0,0.0,0.0,0.0,0.0,0.0,0.0,0.0,0.0,0.0,0.0,0.0,0.0,0.0,0.0,0.0,0.0,0.0,0.0,0.0,0.0,0.0,0.0,0.0,0.0,0.0,0.0,0.0,0.0,0.0,0.0,0.0,0.0,0.0,0.0,0.0,0.0,0.0,0.0,0.0,0.0,0.0,0.0,0.0,0.0,0.0,0.0,0.0,0.0,0.0,0.0,0.0,0.0,2.5293,2.898,3.1733,3.2632,3.2724,3.2394,3.1568,3.0044,2.8081,2.5678,0.0,0.0,0.0,0.0,0.0,0.0,0.0,0.0,0.0,0.0,0.0,0.0,0.0,0.0,0.0,0.0,0.0,0.0,0.0,0.0,0.0,0.0,0.0,0.0,0.0,0.0,0.0,0.0,0.0,0.0,0.0,0.0,0.0,0.0,0.0,0.0,0.0,0.0,0.0,0.0,0.0,0.0,0.0,0.0,0.0,0.0,0.0,0.0,0.0,0.0,0.0,0.0,0.0,0.0,0.0,0.0,0.0,0.0,0.0,0.0,2.2609,0.0,0.0,0.0,0.0,0.0,0.0,0.0,0.0,0.0,0.0,0.0,0.0,0.0,0.0,0.0,0.0,0.0,0.0,0.0,0.0,0.0,0.0,0.0,0.0,0.0,0.0,0.0,0.0,0.0,0.0,0.0,0.0,0.0,0.0,0.0,0.0,0.0,0.0,0.0,0.0,0.0,2.6796,2.9677,3.1935,3.3385,3.3532,3.322,3.2412,3.087,2.8906,2.6502,0.0,0.0,0.0,0.0,0.0,0.0,0.0,0.0,0.0,0.0,0.0,0.0,0.0,0.0,0.0,0.0,0.0,0.0,0.0,0.0,0.0,0.0,0.0,0.0,0.0,0.0,0.0,0.0,0.0,0.0,0.0,0.0,0.0,0.0,0.0,0.0,0.0,0.0,0.0,0.0,0.0,0.0,0.0,0.0,0.0,0.0,0.0,0.0,0.0,0.0,0.0,0.0,0.0,0.0,0.0,0.0,0.0,0.0,0.0,0.0,0.0,2.4465,0.0,0.0,0.0,0.0,0.0,0.0,0.0,0.0,0.0,0.0,0.0,0.0,0.0,0.0,0.0,0.0,0.0,0.0,0.0,0.0,0.0,0.0,0.0,0.0,0.0,0.0,0.0,0.0,0.0,0.0,0.0,0.0,0.0,0.0,0.0,0.0,0.0,0.0,0.0,0.0,2.724,2.9801,3.1924,3.3534,3.3698,3.3387,3.2582,3.1393,2.982,2.7807,2.4642,0.0,0.0,0.0,0.0,0.0,0.0,0.0,0.0,0.0,0.0,0.0,0.0,0.0,0.0,0.0,0.0,0.0,0.0,0.0,0.0,0.0,0.0,0.0,0.0,0.0,0.0,0.0,0.0,0.0,0.0,0.0,0.0,0.0,0.0,0.0,0.0,0.0,0.0,0.0,0.0,0.0,0.0,0.0,0.0,0.0,0.0,0.0,0.0,0.0,0.0,0.0,0.0,0.0,0.0,0.0,3.3059,3.3059,3.304,3.2906,3.0865,2.9101,2.7616,0.0,0.0,0.0,0.0,0.0,0.0,0.0,0.0,0.0,0.0,0.0,0.0,0.0,0.0,0.0,0.0,0.0,0.0,0.0,0.0,0.0,0.0,0.0,0.0,0.0,3.0208,2.948,0.0,0.0,0.0,0.0,0.0,0.0,0.0,0.0,0.0,0.0,0.0,0.0,2.7606,3.0013,3.1982,3.3441,3.3605,3.3332,3.2666,3.1891,3.0724,2.912,2.6381,2.4067,0.0,0.0,0.0,0.0,0.0,0.0,0.0,0.0,0.0,0.0,0.0,0.0,0.0,0.0,0.0,0.0,0.0,0.0,0.0,0.0,0.0,0.0,0.0,0.0,0.0,0.0,0.0,0.0,0.0,0.0,0.0,0.0,2.0145,2.0503,0.0,0.0,0.0,0.0,0.0,0.0,0.0,0.0,0.0,0.0,0.0,0.0,0.0,0.0,3.128,3.3418,3.4596,3.4829,3.6909,3.7979,3.8044,3.8044,3.8007,3.795,3.7618,0.0,3.1001,3.012,0.0,0.0,0.0,0.0,0.0,0.0,0.0,0.0,0.0,0.0,0.0,0.0,0.0,0.0,0.0,0.0,0.0,0.0,0.0,0.0,0.0,0.0,3.1149,3.1357,3.1899,3.1888,0.0,2.805,2.5761,2.3581,0.0,0.0,0.0,0.0,0.0,0.0,0.0,0.0,2.9265,3.1198,3.2602,3.3496,3.3605,3.3569,3.3459,3.2712,3.1563,2.994,2.8791,2.7128,2.4814,2.2958,0.0,0.0,0.0,0.0,0.0,0.0,0.0,0.0,0.0,0.0,0.0,0.0,0.0,0.0,0.0,0.0,0.0,0.0,0.0,0.0,0.0,0.0,0.0,0.0,0.0,0.0,0.0,0.0,0.0,1.9742,2.2308,2.2456,2.3531,2.3681,0.0,0.0,0.0,0.0,0.0,0.0,0.0,0.0,0.0,3.2171,3.2652,3.3631,3.5231,3.7108,3.8081,3.8146,3.9597,4.0288,4.0288,4.0288,4.0277,4.0246,4.0216,3.8999,3.6823,3.4194,3.2354,3.1066,0.0,0.0,0.0,0.0,0.0,0.0,3.0428,0.0,0.0,0.0,0.0,0.0,0.0,0.0,0.0,0.0,0.0,0.0,0.0,0.0,0.0,3.3163,3.3814,3.4177,3.3844,3.2385,3.0216,0.0,2.6482,2.5697,2.2801,0.0,0.0,0.0,0.0,0.0,3.022,3.1556,3.2591,3.339,3.3481,3.3481,3.3481,3.2736,3.1774,3.0638,2.9212,2.7738,2.6279,2.3975,2.206,0.0,0.0,0.0,0.0,0.0,0.0,0.0,0.0,0.0,0.0,0.0,0.0,0.0,0.0,0.0,0.0,0.0,0.0,0.0,0.0,0.0,0.0,0.0,0.0,0.0,0.0,0.0,0.0,2.2219,2.427,2.4333,2.5973,2.6373,0.0,0.0,0.0,0.0,0.0,0.0,3.0934,3.2042,3.3564,3.5658,3.6281,3.7239,3.8575,3.9964,4.0677,4.0695,4.1488,4.1875,4.1875,4.1875,4.1875,4.1843,4.183,4.1797,4.1503,3.79,3.5873,3.4908,3.3566,3.286,0.0,3.3523,3.3473,3.3243,3.501,3.483,3.3701,3.33,0.0,3.1315,2.9192,0.0,0.0,0.0,0.0,3.1356,3.2586,0.0,3.4168,3.5292,3.6024,3.6552,3.6702,3.6119,3.4412,0.0,3.0442,2.9825,2.6248,0.0,0.0,0.0,0.0,2.9427,3.1636,3.2614,3.3266,3.3665,3.3719,3.3628,3.3429,3.285,3.2043,3.0956,2.951,2.8253,2.721,2.5007,2.3379,0.0,0.0,0.0,0.0,0.0,0.0,0.0,0.0,0.0,0.0,0.0,0.0,0.0,0.0,0.0,0.0,0.0,0.0,0.0,0.0,0.0,0.0,0.0,0.0,0.0,0.0,0.0,0.0,0.0,0.0,2.6119,2.8613,0.0,0.0,0.0,0.0,2.9247,3.2248,3.442,3.5064,3.6652,3.8247,3.976,3.9761,4.0173,4.102,4.1787,4.2224,4.229,4.31,4.3487,4.3487,4.3487,4.3471,4.3403,4.3369,4.3369,4.3167,4.0671,3.9184,3.8377,3.7514,3.663,3.5956,3.679,3.6717,3.6394,3.7238,3.6917,3.6264,3.6947,3.6044,3.4665,3.4511,3.3736,0.0,0.0,3.4088,3.5025,3.6231,3.6847,3.7344,3.8109,3.8608,3.9059,3.9509,3.8946,3.7577,0.0,3.311,3.1789,3.0803,0.0,0.0,3.0568,3.1419,3.2542,3.4208,3.5131,3.5349,3.4624,3.4552,3.4244,3.3465,3.3357,3.2534,3.0624,3.0415,2.9556,2.773,2.6561,2.534,2.4086,2.2176,0.0,0.0,0.0,0.0,0.0,0.0,0.0,0.0,0.0,0.0,0.0,0.0,0.0,0.0,0.0,0.0,0.0,0.0,0.0,0.0,0.0,0.0,0.0,0.0,0.0,0.0,0.0,0.0,2.9154,3.1383,0.0,0.0,3.1974,3.3208,3.3937,3.5514,3.6962,3.8224,3.8851,3.989,4.1452,4.1507,4.186,4.2684,4.2944,4.3091,4.3125,4.3385,4.3532,4.3532,4.3532,4.3513,4.3497,4.3497,4.3497,4.3424,4.2561,4.1735,4.0946,4.0139,3.9562,3.9241,3.9516,3.9567,3.9584,3.9853,3.9496,3.8866,3.8391,3.7254,3.6123,3.6123,3.5837,3.5566,3.5708,3.6293,3.6961,3.7411,3.782,3.8259,3.8491,3.8877,3.9341,3.9783,3.9629,3.9224,3.854,3.6707,3.4697,3.285,3.2741,3.2814,3.2578,3.323,3.4154,3.524,3.5639,3.5693,3.5403,3.4914,3.448,3.4208,3.323,3.2115,3.09,2.9982,2.8941,2.7736,2.6006,2.4855,2.4396,2.2351,2.0017,0.0,0.0,0.0,0.0,0.0,0.0,0.0,0.0,0.0,0.0,0.0,0.0,0.0,0.0,0.0,0.0,0.0,0.0,0.0,0.0,0.0,0.0,0.0,0.0,0.0,0.0,3.1376,3.197,3.3976,3.5045,3.4381,3.5379,3.65,3.7572,3.8559,3.957,4.0653,4.0965,4.1589,4.2671,4.269,4.2947,4.3479,4.3497,4.3497,4.3497,4.3497,4.3497,4.3497,4.3497,4.3497,4.3497,4.3497,4.3497,4.3463,4.3463,4.3116,4.2551,4.2072,4.1766,4.1645,4.1645,4.1724,4.1743,4.139,4.1043,4.0569,3.9474,3.8547,3.7889,3.7889,3.7889,3.7889,3.7889,3.8387,3.8857,3.8857,3.9227,3.9599,3.9599,3.9817,4.0158,4.0566,4.0449,4.0367,4.0781,3.9224,3.7214,3.5331,3.524,3.5222,3.4617,3.4997,3.563,3.6457,3.6548,3.6457,3.6236,3.5729,3.5186,3.4661,3.3375,3.204,3.0693,2.9556,2.8417,2.7373,2.5836,2.4883,2.4598,2.2388,2.0568,1.9218,0.0,0.0,0.0,0.0,0.0,0.0,0.0,0.0,0.0,0.0,0.0,0.0,0.0,0.0,0.0,0.0,0.0,0.0,0.0,0.0,0.0,0.0,0.0,2.9463,3.137,3.3222,3.4476,3.6396,3.7374,3.6747,3.8674,3.9974,4.001,4.146,4.2341,4.2341,4.3075,4.3497,4.3497,4.3497,4.3497,4.3497,4.3497,4.3497,4.3497,4.3497,4.3497,4.3497,4.3497,4.3497,4.3497,4.3497,4.3463,4.3394,4.3394,4.3305,4.3214,4.334,4.3287,4.3104,4.3104,4.3012,4.275,4.1828,4.1525,4.1348,4.0434,4.0121,4.007,4.007,4.007,4.0121,4.0121,4.0434,4.0802,4.0802,4.1139,4.1525,4.1525,4.1525,4.1674,4.2115,4.1563,4.1087,4.1535,4.0456,3.9206,3.8391,3.7612,3.7036,3.6901,3.6868,0.0,3.7893,3.7984,3.7747,3.7105,3.6997,3.6363,3.4806,3.3852,3.2373,3.0088,2.9281,2.8216,2.6708,2.6241,2.5626,2.4842,2.2542,2.1266,2.1026,0.0,0.0,0.0,0.0,0.0,0.0,0.0,0.0,0.0,0.0,0.0,0.0,0.0,0.0,0.0,0.0,0.0,0.0,0.0,0.0,0.0,0.0,3.2309,3.1863,3.431,3.6489,3.7423,3.9056,4.0281,4.0675,4.1254,4.1882,4.247,4.291,4.3167,4.3167,4.3369,4.3497,4.3497,4.3497,4.3497,4.3497,4.3497,4.3497,4.3497,4.3497,4.3497,4.3497,4.3497,4.3497,4.3497,4.3446,4.3429,4.3394,4.3305,4.3178,4.3123,4.3214,4.3196,4.3104,4.3104,4.2786,4.2418,4.2498,4.1846,4.1019,4.1094,4.0611,3.9935,3.9935,4.0104,4.0319,4.0417,4.0754,4.11,4.1192,4.1534,4.1778,4.1778,4.205,4.2333,4.2454,4.2293,4.2149,4.2286,4.1553,4.0598,3.9788,3.9482,3.9139,3.8546,0.0,0.0,3.797,3.7934,3.7844,3.7662,3.7122,3.66,3.6167,3.4053,3.224,0.0,2.9271,2.8048,2.7624,2.6776,2.5933,2.5176,2.3608,2.2446,0.0,0.0,0.0,0.0,0.0,0.0,0.0,0.0,0.0,0.0,0.0,0.0,0.0,0.0,0.0,0.0,0.0,0.0,0.0,0.0,0.0,0.0,3.2793,3.5166,3.5385,3.7186,3.8927,4.0065,4.1038,4.1919,4.2708,4.28,4.3002,4.3442,4.3497,4.3497,4.3497,4.3497,4.3497,4.3497,4.3828,4.3993,4.3993,4.4342,4.4507,4.4507,4.4507,4.4507,4.4471,4.4471,4.4436,0.0,4.4346,4.4327,4.4254,4.3834,4.3614,0.0,0.0,0.0,0.0,0.0,4.2768,4.2498,4.2573,4.2008,4.1356,4.1383,4.0943,4.0451,4.0451,4.058,4.0754,4.0832,4.1174,4.1507,4.1596,4.1899,4.2192,4.2192,4.2391,4.2609,4.2609,4.2588,4.2548,4.2548,0.0,0.0,4.1142,4.0592,4.0037,3.9587,3.9515,3.9228,0.0,3.8313,3.8223,3.7935,3.7485,3.6985,3.6452,3.4303,0.0,0.0,0.0,2.8305,2.7981,0.0,0.0,0.0,0.0,0.0,0.0,0.0,0.0,0.0,2.3829,2.4161,0.0,0.0,0.0,0.0,0.0,0.0,0.0,0.0,0.0,0.0,0.0,0.0,0.0,0.0,0.0,0.0,3.54,3.7812,3.9333,3.9966,4.0799,4.2139,4.2378,4.2708,4.3424,4.3497,4.3497,4.3497,4.3497,4.3534,0.0,0.0,0.0,0.0,0.0,4.4837,4.4801,4.5517,4.5865,4.5865,4.5865,4.5847,4.5791,4.5791,4.5716,4.5601,4.5583,4.5563,4.543,4.4704,4.4318,4.415,4.3394,4.2994,4.2882,4.2882,4.2862,0.0,0.0,0.0,0.0,4.1436,4.1237,4.1192,4.1192,4.1192,4.1237,4.1237,4.1596,4.1941,4.1984,4.2251,4.257,4.257,4.257,4.257,4.257,4.2526,4.2463,4.2463,4.2387,4.2287,4.2287,4.1268,4.0394,4.0226,4.0208,0.0,3.9136,3.9029,3.8724,3.8079,0.0,0.0,3.6215,3.4658,3.3174,3.1623,3.017,2.9033,2.8215,2.8212,2.8212,2.8181,2.8091,2.8263,2.8721,2.9357,2.9665,2.9615,2.7707,2.7618,0.0,0.0,0.0,0.0,0.0,0.0,0.0,0.0,0.0,0.0,0.0,0.0,0.0,0.0,0.0,3.4598,3.7641,4.0182,4.1428,4.2294,4.2671,4.2341,4.2873,4.3314,4.3461,4.3497,4.3497,4.3497,4.3497,4.3773,4.4433,4.447,0.0,4.5424,4.559,4.5645,4.559,4.5736,4.5791,4.5659,0.0,0.0,4.564,4.564,4.5621,4.5601,4.5524,4.5524,4.5485,4.5225,4.5113,4.4928,4.35,4.2938,4.2882,4.2842,4.257,4.2269,4.2432,4.2002,4.1436,4.1683,4.1445,4.1036,4.1036,4.122,0.0,4.1578,4.1899,4.2246,4.2364,4.2387,4.2369,4.2369,4.2369,4.2369,4.2369,4.2346,4.2346,4.2346,4.2328,4.2287,4.2287,4.2078,4.1649,4.1024,4.0917,4.0631,3.9828,3.97,3.9435,3.8685,3.8294,3.769,3.6781,3.5278,3.3963,3.3066,3.1817,3.0767,3.0019,3.0567,3.0601,3.0002,2.9962,2.9987,3.0096,3.0841,3.1146,3.1172,3.0162,3.0186,0.0,0.0,0.0,0.0,0.0,0.0,0.0,0.0,0.0,0.0,0.0,3.0077,0.0,0.0,3.5109,3.6693,3.8819,4.0721,4.1893,4.2703,4.3122,4.2913,4.3259,4.3497,4.3497,4.3497,4.3497,4.3497,4.3864,4.4287,4.469,4.5094,4.5462,4.5828,4.6231,4.6414,4.63,4.6702,4.6864,4.6807,4.6807,4.6785,4.6743,4.6743,4.6724,4.6644,4.6604,4.6604,4.6567,4.6029,4.5531,4.5075,4.4263,4.3978,4.3999,4.3935,4.3504,4.2959,4.3082,4.2567,4.1892,4.2044,4.1917,4.164,4.164,4.177,4.1899,4.2002,4.2127,4.2346,4.2387,4.2346,4.2228,4.1959,4.2086,4.2246,4.1959,4.2103,4.2287,4.2287,4.2086,4.2002,4.2246,4.2103,4.186,4.1711,4.1698,4.1413,4.061,4.0503,4.0139,3.9102,3.8795,3.8157,3.693,3.5186,3.3818,3.3125,3.248,3.2,3.162,3.1951,3.1984,3.162,3.1603,3.1603,3.1603,3.2348,3.2895,3.3259,3.3259,3.3259,0.0,0.0,0.0,0.0,0.0,0.0,0.0,0.0,2.9065,2.9719,3.1894,3.3794,3.4086,3.5687,3.7369,3.8622,3.9809,4.0883,4.1877,4.2555,4.3087,4.341,4.3497,4.3479,4.3497,4.3497,4.3552,4.3683,4.4306,4.482,4.5077,4.5718,4.6103,4.621,4.685,4.7158,4.7004,4.766,4.797,4.7951,4.7951,4.7907,4.7861,4.7861,4.7819,4.7717,4.7657,4.7657,4.7603,4.6807,4.6092,4.545,4.5408,4.5432,4.5462,4.5108,4.4545,4.3989,4.3847,4.3411,4.2893,4.2614,4.2519,4.2483,4.2341,4.2287,4.2287,4.2287,4.2287,4.2287,4.2287,4.2287,4.2187,4.177,4.2002,4.2187,4.1753,4.1899,4.2145,4.2145,4.1813,4.1622,4.2044,4.1813,4.1753,4.2246,4.2287,4.2014,4.1273,4.1184,4.0719,3.9406,3.919,3.8511,3.6899,3.5202,3.3955,3.3375,3.3193,3.3044,3.2911,3.3027,3.3044,3.2911,3.3044,3.3193,3.3326,3.3938,3.4601,3.5346,3.5943,3.5893,2.3896,2.4395,2.5219,2.6633,2.7732,2.936,0.0,0.0,3.3196,3.5005,3.5456,3.5905,3.7241,3.7871,3.8656,4.013,4.1135,4.186,4.2279,4.2844,4.316,4.3232,4.3375,4.3463,4.3429,4.3481,4.3756,4.4419,4.4547,4.5168,4.6517,4.6663,4.7028,4.774,4.7849,4.7842,4.7775,4.7866,4.7842,4.7741,4.7741,4.7741,4.7717,4.7717,4.7699,4.7699,4.7554,4.7511,4.7493,4.7255,4.7122,4.705,4.6954,4.6972,4.6793,4.5333,4.476,4.4671,4.4525,4.4428,4.425,4.359,4.3375,4.3233,4.2519,4.2287,4.2287,4.2287,4.2287,4.2287,4.2287,4.2287,4.2287,4.2228,4.2246,4.2287,4.2228,4.1899,4.1578,4.1578,4.1516,4.1516,4.1578,4.1727,4.1977,4.2246,4.2287,4.211,4.1542,4.1455,4.0963,3.9703,3.9183,3.8415,3.717,3.6273,3.5727,3.5644,3.5015,3.4352,3.369,3.4303,3.4336,3.3673,3.4319,3.4982,3.5628,3.5711,3.6125,3.687,3.6953,3.6936,2.7479,2.8393,0.0,0.0,3.1244,3.2918,3.4605,3.5381,3.609,3.7363,3.8433,3.9156,3.9322,3.9641,4.0112,0.0,4.1146,4.1516,4.1846,4.2436,4.29,4.3013,4.3196,4.3358,4.3394,4.3358,4.3669,4.4547,4.4948,4.5659,4.6752,4.7244,4.7624,4.7947,4.7947,4.7884,4.7759,4.7759,4.7759,4.7717,4.7717,4.7717,4.7717,4.7717,4.7657,4.7572,4.745,4.7381,4.7312,4.7249,4.7007,4.6666,4.6637,4.6411,4.6063,4.5735,4.5315,4.4862,4.4453,4.4012,4.3593,4.3149,4.2923,4.2675,4.1998,4.1688,4.1534,4.1534,4.1534,4.1596,4.1849,4.1892,4.1805,4.1507,4.1507,4.1534,4.1445,4.1094,4.0874,4.1157,4.0767,4.0577,4.1111,4.1047,4.1157,4.1805,4.1762,4.1552,4.1356,4.1174,4.0758,3.9907,3.9042,3.8287,3.7765,3.7069,3.6655,3.6655,3.6357,3.6042,3.5727,3.6025,3.6042,3.5727,3.6025,3.634,3.6655,3.6655,3.7036,3.7748,3.7645,3.7807,2.954,0.0,0.0,3.2353,3.4274,3.6072,3.6321,3.7459,3.8593,3.8977,4.0181,4.0989,4.0329,4.0446,0.0,4.0798,4.0972,4.123,4.1499,4.2175,4.2747,4.2882,4.305,4.3178,4.3305,4.3269,4.3652,4.4784,4.5293,4.602,4.7019,4.7601,4.7907,4.7861,4.7861,4.7819,4.7717,4.7717,4.7717,4.7717,4.7657,4.7657,4.7657,4.7615,4.7554,4.7468,4.732,4.7143,4.6962,4.6934,4.6525,4.597,4.592,4.5649,4.525,4.5528,4.5335,4.4965,4.4544,4.401,4.346,4.3066,4.2807,4.2558,4.1902,4.1673,4.1561,4.1336,4.1395,4.1453,4.1443,4.1498,4.1453,4.099,4.099,4.11,4.0896,4.0577,4.0349,4.0577,4.0036,3.98,4.0497,4.0431,4.048,4.1053,4.0977,4.0866,4.0896,4.0546,4.0103,3.9697,3.888,3.8388,3.8388,3.7727,3.7366,3.7366,3.7167,3.7102,3.7102,3.7051,3.7051,3.7051,3.6984,3.7083,3.7298,3.7298,3.7661,3.8388,3.8282,3.8492,0.0,0.0,3.2944,3.4495,3.6762,3.8799,3.957,4.0396,4.087,4.033,4.0311,4.0255,4.0029,3.9926,3.9943,4.0263,4.0964,4.1481,4.1481,4.232,4.2882,4.2882,4.29,4.2938,0.0,4.3142,4.3834,4.5378,4.5485,4.6136,4.7591,4.7699,4.7717,4.7717,4.7717,4.7699,4.7717,4.7717,4.7717,4.7717,4.7554,4.7511,4.7511,4.7363,4.7302,4.7302,4.7205,4.6852,4.631,4.6266,4.5852,4.5303,4.5161,4.5108,4.5037,4.4322,4.4529,4.5074,4.5074,4.4898,4.4602,4.3814,4.3558,4.3405,4.267,4.2774,4.2968,4.2189,4.2317,4.238,4.1319,4.13,4.1498,4.1082,4.1283,4.1453,4.1082,4.0577,4.0086,3.9697,3.961,3.9594,3.9645,4.0186,4.0497,4.0103,4.0003,4.002,4.0203,3.9454,3.8843,3.886,3.8772,3.8772,3.8772,3.8294,3.7969,3.7969,3.7397,3.7102,3.7102,3.6949,3.6898,3.6898,3.6694,3.697,3.7675,3.7675,3.8051,3.8772,3.8772,3.8788,3.2265,0.0,3.6229,3.7845,3.9294,4.0506,4.1313,4.1295,4.1107,4.1144,4.0455,3.9748,3.939,3.8956,3.8821,3.9413,4.0235,4.0963,4.1411,4.232,4.2882,4.2882,4.2882,0.0,0.0,0.0,0.0,4.4613,4.5137,4.582,4.6848,4.7428,4.7717,4.7717,4.7717,4.7717,4.7717,4.7717,4.7657,4.7572,4.7407,4.7363,4.7363,4.7294,4.7035,4.6613,4.6424,4.6017,4.5494,4.5321,4.4949,4.4418,4.4378,4.4112,4.3706,4.3486,4.3486,4.3663,4.3722,4.3706,4.358,4.323,4.3007,4.2745,4.2096,4.1837,4.172,4.1469,4.151,4.1502,4.0933,4.09,4.0832,4.0222,3.9952,3.9919,4.0053,3.9489,3.9044,3.9169,3.9007,3.8898,3.9169,3.9418,3.9506,3.9365,3.9382,3.9382,3.9295,3.9007,3.8805,3.8805,3.8805,3.8805,3.8805,3.8646,3.8515,3.8515,3.8339,3.8262,3.8262,3.8192,3.8138,3.8138,3.8068,3.8182,3.8428,3.8428,3.8559,3.8805,3.8711,3.8672,3.5037,3.689,3.8377,4.0286,4.1148,4.1662,4.2176,4.1901,4.1324,4.0631,3.9556,3.8591,3.8018,3.7056,3.6917,3.8637,3.9282,4.0032,4.1306,4.2139,4.2634,4.2634,4.2634,0.0,0.0,0.0,0.0,4.4175,4.4877,4.5653,4.6468,4.7265,4.7717,4.7717,4.7717,4.7717,4.7717,4.7657,4.7572,4.7381,4.7294,4.7232,4.7187,4.6852,4.6537,4.6147,4.5681,4.5216,4.4712,4.4567,4.4175,4.3647,4.3604,4.3383,4.299,4.2929,4.2883,4.2837,4.2945,4.299,4.2929,4.2821,4.2696,4.2485,4.2061,4.1901,4.1815,4.1568,4.1601,4.1607,4.0973,4.0971,4.0946,4.03,4.0055,3.9934,3.9814,3.9347,3.8965,3.8815,3.856,3.8504,3.8766,3.8766,3.8821,3.8969,3.8969,3.8843,3.8711,3.8655,3.8655,3.8655,3.8655,3.8655,3.8655,3.8711,3.8711,3.8711,3.875,3.8805,3.8805,3.875,3.8711,3.8711,3.8711,3.8655,3.8655,3.8655,3.8655,3.8639,3.856,3.852,3.7147,3.823,3.9441,4.1772,4.2323,4.2304,4.2304,4.2176,4.1354,3.8907,3.7588,3.6632,0.0,0.0,3.4445,3.7818,3.8302,3.9001,4.1165,4.1846,4.2175,0.0,0.0,0.0,0.0,0.0,0.0,4.4056,0.0,4.5653,4.6468,4.7265,4.7717,4.7717,4.7699,4.7699,4.7699,4.7554,4.7417,4.725,4.7205,4.7142,4.6987,4.627,4.5955,4.5802,4.5161,4.4524,4.3989,4.3989,4.3638,4.3052,4.2945,4.2899,4.2837,4.2634,4.2571,4.2634,4.2759,4.2696,4.2634,4.2634,4.2634,4.2634,4.2634,4.2912,4.3114,4.244,4.2551,4.2599,4.1453,4.1458,4.1699,4.1165,4.1409,4.1466,4.0325,4.012,3.9795,3.8642,3.8424,3.8391,3.8391,3.8391,3.856,3.8914,3.8655,3.8391,3.8391,3.8391,3.8391,3.8391,3.8391,3.8391,3.8391,3.852,3.8576,3.8576,3.8711,3.8805,3.8805,3.8672,3.8576,3.8576,3.8448,3.8391,3.8391,3.8391,3.8391,3.8391,3.8391,3.8391,3.867,4.0304,4.1662,4.2892,4.2745,4.2304,4.2304,4.0451,3.8358,3.7069,3.4621,3.2456,0.0,0.0,0.0,3.5159,3.7143,0.0,4.073,4.1366,0.0,0.0,0.0,4.2749,4.3448,4.3843,0.0,0.0,4.4944,4.5653,4.6468,4.7265,4.7717,4.7717,4.7615,4.7554,4.7554,4.7356,4.751,4.802,4.7452,4.716,4.7061,4.6914,4.6246,4.5229,4.5513,4.502,4.3994,4.3853,4.3339,4.2743,4.2696,4.2696,4.2634,4.2302,4.2238,4.2174,4.198,4.2238,4.2634,4.2634,4.2634,4.2634,4.2634,4.268,4.2756,4.2515,4.259,4.2488,4.171,4.1591,4.1461,4.0788,4.0717,4.0727,4.043,4.0398,4.0128,3.9388,3.8764,3.8391,3.8391,3.8391,3.8448,3.856,3.8448,3.8391,3.8391,3.8391,3.8391,3.8391,3.8391,3.8391,3.8391,3.8448,3.8448,3.8448,3.8504,3.8504,3.8504,3.8448,3.8448,3.8448,3.8391,3.8391,3.8391,3.8391,3.8391,3.8391,3.8391,3.8391,4.0487,4.1864,4.2928,4.3387,4.2892,4.1886,4.0324,3.8314,3.606,3.3662,3.1309,0.0,0.0,0.0,0.0,0.0,0.0,0.0,4.044,4.1296,4.1847,0.0,4.2584,0.0,4.3635,4.3966,4.4396,0.0,4.5534,4.6015,4.6486,4.7265,4.7657,4.7615,4.7554,4.7481,4.7472,4.7351,4.7505,4.7935,4.7439,4.7176,4.714,4.6777,4.6161,4.5374,0.0,4.5029,4.4302,4.3719,4.3202,4.2816,4.235,4.2174,4.2109,4.198,4.1851,4.1851,4.1654,4.1851,4.2174,4.2174,4.2174,4.2174,4.2302,4.2365,4.2429,4.2571,4.2634,4.2474,4.1945,4.1911,4.1876,4.1332,4.1297,4.1338,4.1031,4.0966,4.0756,4.0059,3.9363,3.8877,3.8877,3.8602,3.8391,3.8391,3.8391,3.8391,3.8391,3.8391,3.8391,3.8391,3.8391,3.8391,3.8391,3.8391,3.8391,3.8391,3.8391,3.8391,3.8391,3.8391,3.8391,3.8391,3.8391,3.8391,3.8391,3.8391,3.8391,3.8391,3.8391,3.8391,4.2127,4.2931,4.3461,4.3369,4.2601,4.0998,3.7598,3.5905,3.39,2.9801,0.0,2.7303,2.7214,2.7148,2.8644,3.3474,0.0,3.6517,4.0191,4.1343,4.1859,4.1963,4.2584,4.3233,4.3746,4.3842,4.436,4.5531,4.6068,4.6465,4.6608,4.7235,4.7468,4.7258,4.7321,4.7344,4.7274,4.7312,4.7439,4.764,4.7307,4.7176,4.7118,4.6407,4.5993,4.5847,0.0,0.0,4.4818,4.3776,4.3339,4.3179,4.2132,4.1731,4.1715,4.1554,4.1522,4.1522,4.1456,4.1456,4.1456,4.1588,4.1588,4.1654,4.1916,4.2045,4.2109,4.2381,4.2445,4.2365,4.2109,4.2238,4.2365,4.2109,4.2238,4.233,4.1717,4.1507,4.1249,4.0619,4.0016,3.9564,3.9564,3.9023,3.8537,3.8537,3.8456,3.8391,3.8391,3.8391,3.8391,3.8391,3.8391,3.8391,3.8391,3.8391,3.8391,3.8391,3.8391,3.8391,3.8391,3.8391,3.8391,3.8391,3.8391,3.8391,3.8391,3.8391,3.8391,3.8391,3.8391,3.8391,4.2395,4.3123,4.3332,4.2622,4.1063,3.9075,3.6508,3.3463,0.0,0.0,0.0,2.4533,2.3807,2.5459,2.7998,3.1333,0.0,0.0,0.0,0.0,4.1562,0.0,0.0,0.0,0.0,0.0,0.0,0.0,0.0,0.0,4.7252,4.7035,4.6548,4.585,4.6428,4.6673,4.6548,4.7044,4.755,4.8266,4.7504,4.7139,4.7015,4.6996,4.6584,4.583,0.0,0.0,4.517,4.4681,4.4076,4.349,4.271,4.2442,4.2311,4.1476,4.1205,4.1122,4.0799,4.0662,4.0783,4.139,4.1588,4.1588,4.1654,4.172,4.172,4.1785,4.1785,4.1785,4.172,4.172,4.1785,4.172,4.172,4.1754,4.1627,4.1134,4.0626,4.0499,4.0194,3.9914,3.9914,3.9575,3.9298,3.9298,3.878,3.8391,3.8391,3.8391,3.8391,3.8391,3.8391,3.8391,3.8391,3.8391,3.8391,3.8391,3.8391,3.8391,3.8391,3.8391,3.8391,3.8391,3.8391,3.8391,3.8391,3.8391,3.8391,3.8391,3.8391,3.8391,4.202,4.2462,4.242,4.1607,4.0091,3.7774,3.3997,0.0,0.0,0.0,2.3567,2.2822,2.2463,2.4096,0.0,0.0,0.0,0.0,0.0,0.0,0.0,0.0,0.0,0.0,0.0,0.0,0.0,0.0,0.0,0.0,4.6519,4.6244,4.59,4.5511,4.6151,4.6484,4.6374,4.7046,4.7554,4.7943,4.7452,4.7144,4.7079,4.6835,4.6475,4.6083,0.0,0.0,4.5524,4.4732,4.4228,4.3796,4.2966,4.2358,4.1999,4.155,4.1124,4.073,4.0593,4.0524,4.0524,4.0919,4.1055,4.1055,4.1256,4.1323,4.139,4.1522,4.1588,4.1588,4.139,4.1456,4.1588,4.139,4.1456,4.1588,4.1588,4.132,4.1083,4.1083,4.0658,4.0245,4.0245,3.9813,3.9473,3.9473,3.9186,3.8894,3.8685,3.8695,3.8608,3.844,3.8391,3.8391,3.8391,3.8391,3.8391,3.8391,3.8391,3.8391,3.8391,3.8391,3.8391,3.8391,3.8391,3.8391,3.8391,3.8391,3.8391,3.8391,3.8391,3.8602,4.1213,4.1584,4.158,4.066,3.9221,3.6682,3.1655,2.9261,0.0,0.0,2.1928,2.1882,2.194,0.0,2.4696,0.0,2.8795,0.0,0.0,0.0,0.0,0.0,0.0,0.0,0.0,0.0,0.0,0.0,0.0,0.0,0.0,4.5355,4.5266,4.526,4.5904,4.6276,4.6413,4.707,4.7436,4.7403,4.7251,4.7098,4.6961,4.6512,4.6285,4.6159,0.0,0.0,0.0,4.4669,4.4289,4.4153,4.321,4.2402,4.1801,4.1648,4.114,4.0524,4.0524,4.0524,4.0524,4.0524,4.0524,4.0524,4.0867,4.1003,4.1003,4.1256,4.139,4.1323,4.107,4.1205,4.1323,4.1055,4.1189,4.139,4.139,4.139,4.139,4.139,4.0949,4.0637,4.0637,4.015,3.9692,3.9692,3.9566,3.9407,3.9065,3.9046,3.8914,3.8679,3.8456,3.8391,3.8391,3.8391,3.8391,3.8391,3.8391,3.8391,3.8391,3.8391,3.8391,3.8391,3.8391,3.8391,3.8391,3.8391,3.8472,3.8634,3.8634,3.9007,3.9765,4.0963,4.1456,3.9905,3.8088,3.5449,3.0698,0.0,0.0,2.2575,2.1869,2.1811,2.1827,2.2491,2.3967,2.6853,0.0,3.1216,0.0,0.0,0.0,0.0,0.0,0.0,0.0,0.0,0.0,0.0,0.0,0.0,0.0,4.4618,4.4562,4.4495,4.5206,4.5824,4.6388,4.6979,4.7253,4.7251,4.703,4.6738,4.6356,4.6301,4.6159,4.5832,0.0,0.0,0.0,4.4721,4.4555,4.4493,4.3815,4.3094,4.2432,4.1817,4.114,4.0524,4.0524,4.0524,4.0524,4.0524,4.0524,4.0524,4.0524,4.0524,4.0524,4.0593,4.0593,4.0593,4.0524,4.0593,4.0593,4.0524,4.0593,4.0593,4.0593,4.0593,4.0593,4.0593,4.0805,4.1028,4.1028,4.0714,4.0387,4.0387,3.9866,3.9472,3.9455,3.9439,3.9424,3.9423,3.882,3.8391,3.8391,3.8391,3.8391,3.8391,3.8391,3.8391,3.8391,3.8391,3.8391,3.8391,3.8391,3.8391,3.8391,3.8391,3.8732,3.9379,3.9379,3.9752,3.8203,3.9404,3.9853,3.8773,3.6676,3.3795,2.9673,0.0,2.4332,2.1778,2.123,2.1198,2.1198,2.144,2.2345,2.4547,2.5419,2.7284,3.147,3.3985,3.6472,0.0,0.0,0.0,0.0,0.0,0.0,0.0,0.0,0.0,0.0,4.4231,4.445,4.4381,4.5452,4.6078,4.6241,4.6892,4.703,4.6668,4.6582,4.6372,4.5961,4.5744,4.5599,4.5395,0.0,0.0,0.0,4.4648,4.4572,4.4556,4.4279,4.3771,4.311,4.2448,4.1771,4.1109,4.0678,4.0524,4.0524,4.0524,4.0524,4.0524,4.0524,4.0524,4.0524,4.0524,4.0524,4.0524,4.0524,4.0524,4.0524,4.0524,4.0524,4.0524,4.0524,4.0524,4.0524,4.0524,4.0662,4.073,4.073,4.0634,4.0515,4.0515,4.0298,4.0037,3.9812,3.983,3.9737,3.9535,3.9014,3.8701,3.8701,3.852,3.8391,3.8391,3.8391,3.8391,3.8391,3.8344,3.8316,3.8316,3.879,3.8756,3.8341,3.9209,3.9608,3.9428,3.9428,3.9811,3.5988,3.7297,3.7834,3.7112,3.5168,3.2375,0.0,2.5734,2.3406,2.1171,2.0712,2.0712,2.0712,2.0712,2.1158,2.2572,2.3135,2.4788,2.8854,3.1303,3.4036,0.0,0.0,0.0,0.0,0.0,0.0,0.0,0.0,0.0,0.0,0.0,4.4584,4.4584,4.5734,4.6339,4.6334,4.6702,4.6738,4.6285,4.623,4.5961,4.5614,4.5321,4.5173,0.0,0.0,0.0,0.0,4.4572,4.4572,4.4572,4.4572,4.4156,4.351,4.3063,4.2463,4.1801,4.1078,4.0847,4.0816,4.0601,4.0524,4.0524,4.0524,4.0524,4.0524,4.0524,4.0524,4.0524,4.0524,4.0524,4.0524,4.0524,4.0524,4.0524,4.0524,4.0524,4.0524,4.0524,4.0524,4.0524,4.0524,4.0524,4.0524,4.0524,4.0524,4.0408,4.02,4.0003,3.9818,3.9601,3.9029,3.8826,3.9036,3.8679,3.8526,3.8734,3.86,3.8542,3.8542,3.8399,3.8326,3.8326,3.8732,3.8725,3.8299,3.9267,3.9629,3.9422,3.9422,3.9814,3.2932,3.4642,3.558,3.4824,3.3541,3.1352,0.0,2.4925,2.328,2.097,2.0514,2.0514,2.0514,2.0514,2.0749,2.1487,2.2744,2.5029,2.9134,3.1499,0.0,0.0,0.0,0.0,0.0,0.0,0.0,0.0,0.0,0.0,0.0,0.0,4.5,4.5,4.5717,4.6366,4.686,4.6512,4.6285,4.6301,4.5961,4.5614,4.5247,4.5173,0.0,0.0,0.0,0.0,0.0,4.4572,4.4572,4.4572,4.4572,4.4156,4.3571,4.3556,4.3156,4.2494,4.1817,4.1586,4.1463,4.0755,4.0524,4.0524,4.0524,4.0524,4.0524,4.0524,4.0524,4.0524,4.0524,4.0524,4.0524,4.0524,4.0524,4.0524,4.0524,4.0524,4.0524,4.0524,4.0524,4.0524,4.0524,4.0524,4.0524,4.0524,4.0524,4.0524,4.0524,4.0021,3.9666,3.9666,3.8792,3.8531,3.9393,3.8965,3.8821,3.9456,3.9108,3.89,3.89,3.8496,3.8299,3.8299,3.8137,3.8086,3.8299,3.8152,3.8488,3.9379,3.9379,3.9785,2.9053,3.0461,3.1388,3.0672,2.9118,2.7174,2.4791,2.2809,2.119,2.0008,1.9747,1.9747,1.9747,1.9747,2.0466,2.2671,2.3793,2.5341,0.0,0.0,0.0,0.0,0.0,0.0,0.0,0.0,0.0,0.0,0.0,0.0,0.0,0.0,4.4188,4.4984,4.5821,4.6287,4.6512,4.6175,4.5817,4.5526,4.5468,4.5173,4.4799,4.4799,0.0,0.0,0.0,0.0,0.0,4.4419,4.4281,4.4205,4.4205,4.4082,4.3838,4.3381,4.2834,4.2304,4.167,4.119,4.083,4.0173,3.9949,3.9875,3.9427,3.9879,4.0524,4.0524,4.0524,4.0524,4.0524,4.0524,4.0524,4.0524,4.0246,4.0036,4.0385,3.9879,3.9436,3.9895,3.9595,3.9364,3.9364,3.9364,3.9364,3.9364,3.9364,3.9364,3.9364,3.922,3.9075,3.9075,3.8444,3.8163,3.8561,3.8196,3.8055,3.8269,3.8137,3.8137,3.8284,3.8039,3.7948,3.8102,3.8311,3.8263,3.7784,3.8732,3.9188,3.9133,3.9133,3.9038,0.0,2.6576,2.7371,2.6933,2.571,2.4131,2.2484,2.0929,1.966,1.8951,1.8784,1.886,1.9026,1.9064,1.9773,2.1969,2.3094,0.0,0.0,0.0,0.0,0.0,0.0,0.0,0.0,0.0,0.0,0.0,0.0,0.0,0.0,0.0,4.2774,4.3441,4.4941,4.5746,4.5697,4.5599,4.5305,4.4843,4.4949,4.4799,4.4511,0.0,0.0,0.0,0.0,0.0,0.0,4.4205,4.4127,4.3988,4.3988,4.3801,4.3412,4.2992,4.2593,4.208,4.1381,4.1067,4.0886,4.0238,4.0032,3.9959,3.9622,3.9681,3.9879,3.9879,3.9879,3.9879,3.9879,3.9879,3.9879,3.9879,3.9595,3.9451,3.9809,3.9292,3.8943,3.9307,3.909,3.8782,3.8782,3.8782,3.8782,3.8782,3.8782,3.8782,3.8782,3.8634,3.8486,3.8486,3.7886,3.7638,3.774,3.7735,3.7853,3.8078,3.7993,3.7938,3.8093,3.7783,3.7725,3.7887,3.803,3.7947,3.7625,3.8517,3.8796,3.8442,3.8442,3.8308,0.0,2.2978,2.3549,2.3506,2.3008,2.2047,2.0199,1.932,0.0,1.795,1.7787,1.7975,1.847,1.852,1.8917,2.0171,0.0,0.0,0.0,0.0,0.0,0.0,0.0,0.0,0.0,0.0,0.0,0.0,0.0,0.0,0.0,0.0,0.0,4.0846,4.3127,4.446,4.4659,4.484,4.4646,4.4051,4.4312,4.4251,4.4112,0.0,0.0,0.0,0.0,0.0,0.0,4.3817,4.3801,4.3738,4.3738,4.3205,4.2423,4.2423,4.2179,4.1681,4.1006,4.1142,4.1389,4.0744,4.051,4.0466,4.0466,3.9677,3.8856,3.8856,3.8811,3.8782,3.8782,3.8782,3.8782,3.8782,3.8782,3.8708,3.8782,3.8708,3.8708,3.8708,3.8708,3.8634,3.8634,3.8634,3.8634,3.8634,3.8634,3.8634,3.8634,3.8188,3.781,3.781,3.7366,3.6978,3.6978,3.7505,3.8113,3.8634,3.8337,3.8127,3.8127,3.7763,3.7534,3.7625,3.738,3.738,3.7534,3.7534,3.7534,3.7625,3.7625,3.773,1.7251,0.0,1.9978,1.9489,1.9279,1.9016,0.0,1.8167,1.8045,1.7828,1.7787,1.8113,1.9065,1.8945,1.9596,0.0,0.0,0.0,0.0,0.0,0.0,0.0,0.0,0.0,0.0,0.0,0.0,0.0,0.0,0.0,0.0,0.0,0.0,4.0424,4.0755,4.1566,4.2863,4.2662,4.2525,4.2423,4.2504,4.2327,4.1957,0.0,0.0,0.0,0.0,0.0,4.167,4.167,4.1504,4.1435,4.1435,4.1267,4.1099,4.1099,4.0746,4.039,4.0164,4.0236,4.0336,4.0066,3.9637,3.9335,3.9335,3.9396,3.9519,3.9519,3.9165,3.8782,3.8782,3.8782,3.8782,3.8782,3.8486,3.8263,3.8708,3.8037,3.7582,3.8037,3.7734,3.7429,3.7429,3.7429,3.7429,3.7429,3.7429,3.7429,3.7429,3.7289,3.7211,3.7211,3.7056,3.6978,3.6978,3.7134,3.7289,3.7429,3.7366,3.7366,3.7534,3.7303,3.7226,3.738,3.7148,3.707,3.7148,3.7148,3.7226,3.738,3.738,3.7713,1.5287,1.6916,1.8513,1.8179,1.81,1.8057,1.7983,1.7565,1.7214,1.7214,0.0,0.0,0.0,0.0,0.0,0.0,0.0,0.0,0.0,0.0,0.0,0.0,0.0,0.0,0.0,0.0,0.0,0.0,0.0,0.0,0.0,0.0,0.0,0.0,3.8467,3.9073,4.0856,4.1178,4.1178,4.0755,4.1346,4.1392,4.1042,0.0,0.0,0.0,0.0,0.0,4.0746,4.0746,4.0675,4.0603,4.0603,4.0332,3.9986,3.9986,3.9664,3.9339,3.9339,3.9618,4.0027,3.9881,3.9816,3.9718,3.9718,3.9747,3.9657,3.9434,3.9116,3.8842,3.8842,3.8626,3.8395,3.8395,3.7949,3.7582,3.7886,3.7429,3.7134,3.7429,3.7211,3.6978,3.6978,3.6978,3.6978,3.6978,3.6978,3.6978,3.6978,3.6978,3.6978,3.6978,3.6978,3.6978,3.6978,3.6978,3.6978,3.6978,3.6978,3.707,3.7148,3.707,3.707,3.7148,3.707,3.7133,3.74,3.74,3.7634,3.8009,3.8009,3.8351,1.4727,1.6421,1.8018,1.7793,1.7892,1.798,1.7867,1.7206,0.0,0.0,0.0,0.0,0.0,0.0,0.0,0.0,0.0,0.0,0.0,0.0,0.0,0.0,0.0,0.0,0.0,0.0,0.0,0.0,0.0,0.0,0.0,0.0,0.0,0.0,3.6536,3.7021,3.8563,3.9739,3.9907,3.9185,4.0154,4.0619,4.0476,4.0476,0.0,0.0,0.0,0.0,4.0173,4.0173,4.0173,4.0173,4.0173,3.9738,3.8957,3.8957,3.8819,3.8512,3.8602,3.9127,3.9821,3.9908,4.0257,4.0616,4.0702,4.0336,3.9816,3.9297,3.9016,3.8861,3.8861,3.8454,3.8046,3.8046,3.7653,3.7274,3.7274,3.7274,3.7274,3.7274,3.7274,3.7274,3.7274,3.7274,3.7274,3.7274,3.7274,3.7274,3.7274,3.7274,3.7274,3.7274,3.7274,3.7274,3.7274,3.7274,3.7274,3.7274,3.7091,3.6978,3.6978,3.7077,3.7133,3.7133,3.7217,3.7526,3.8046,3.8046,3.8327,3.8861,3.8861,3.8999,1.4868,1.6398,1.7333,1.5787,1.6328,1.7093,1.6334,1.6681,1.7135,0.0,0.0,0.0,0.0,0.0,0.0,0.0,0.0,0.0,0.0,0.0,0.0,0.0,0.0,0.0,0.0,0.0,0.0,0.0,0.0,0.0,0.0,0.0,0.0,0.0,0.0,3.5805,3.5736,3.6729,3.7533,3.7933,3.8189,3.8247,3.8317,3.8317,3.8317,0.0,0.0,3.8317,3.8317,3.8317,3.8317,3.8317,3.8317,3.8239,3.8057,3.8057,3.807,3.8083,3.8421,3.8692,3.8948,3.9733,4.0083,4.017,4.0616,4.0631,4.0533,4.0449,3.9676,3.8861,3.8861,3.8791,3.8721,3.8721,3.865,3.858,3.858,3.858,3.858,3.858,3.858,3.858,3.858,3.858,3.858,3.858,3.858,3.858,3.858,3.858,3.858,3.858,3.858,3.858,3.858,3.858,3.858,3.858,3.7583,3.6978,3.6978,3.7484,3.7751,3.7751,3.8299,3.8622,3.8721,3.8721,3.8777,3.8861,3.8861,3.9224,1.3067,1.4368,1.5295,1.4744,1.634,1.8036,1.7913,1.7752,1.7591,0.0,0.0,0.0,0.0,0.0,0.0,0.0,0.0,0.0,0.0,0.0,0.0,0.0,0.0,0.0,0.0,0.0,0.0,0.0,0.0,0.0,0.0,0.0,0.0,0.0,0.0,0.0,3.5086,3.5339,3.573,3.6418,3.6709,3.7006,3.7416,3.7416,3.7599,0.0,0.0,3.79,3.79,3.79,3.79,3.79,3.79,3.79,3.79,3.79,3.79,3.79,3.8161,3.8434,3.8692,3.9127,3.9557,3.9996,4.0257,4.053,4.0702,4.0702,4.0294,3.9859,3.9859,3.9606,3.9367,3.9367,3.9114,3.8861,3.8861,3.8861,3.8861,3.8861,3.8861,3.8861,3.8861,3.8861,3.8861,3.8861,3.8861,3.8861,3.8861,3.8861,3.8861,3.8861,3.8861,3.8861,3.8861,3.8861,3.8861,3.8861,3.8327,3.8004,3.8004,3.8271,3.8426,3.8426,3.8721,3.903,3.9367,3.9367,3.9521,3.9859,3.9859,4.0013,1.1612,1.2582,1.3607,1.4192,0.0,1.8278,1.9033,1.8516,0.0,0.0,0.0,0.0,0.0,0.0,0.0,0.0,0.0,0.0,0.0,0.0,0.0,0.0,0.0,0.0,0.0,0.0,0.0,0.0,0.0,0.0,0.0,0.0,0.0,0.0,0.0,0.0,3.4468,3.4134,3.4347,3.5299,3.5717,3.6227,3.6789,3.6789,3.7116,3.7691,3.7691,3.7769,3.79,3.79,3.79,3.79,3.79,3.79,3.79,3.79,3.79,3.79,3.79,3.8161,3.8421,3.8602,3.9127,3.9733,3.9908,4.0083,4.0243,4.0329,4.0156,4.0156,4.0602,4.035,3.9999,3.9999,3.9634,3.9297,3.9297,3.9297,3.9283,3.902,3.8936,3.8936,3.8685,3.8685,3.8685,3.8685,3.8685,3.8685,3.8685,3.8685,3.8685,3.8685,3.8685,3.8685,3.8685,3.8853,3.8936,3.8936,3.8933,3.8861,3.8861,3.9016,3.9086,3.9086,3.9226,3.9521,3.9999,3.9999,4.0238,4.0702,4.0702,4.0702,1.1982,1.2707,1.3187,1.4324,1.5041,1.5975,1.7557,1.7988,0.0,1.9958,0.0,0.0,0.0,0.0,0.0,0.0,0.0,0.0,0.0,0.0,0.0,0.0,0.0,0.0,0.0,0.0,0.0,0.0,0.0,0.0,0.0,0.0,0.0,0.0,0.0,0.0,3.2476,3.2476,3.3381,3.5299,3.5338,3.5639,3.6162,3.6162,3.6502,3.7063,3.7063,3.739,3.79,3.79,3.79,3.79,3.79,3.79,3.79,3.79,3.79,3.79,3.79,3.79,3.7992,3.8421,3.8692,3.8859,3.9733,3.9339,3.8778,3.921,3.8689,3.8445,4.0243,4.0674,4.0631,4.0631,4.0603,4.0561,4.0561,4.0561,4.029,3.9352,3.9176,3.8911,3.8041,3.7873,3.7873,3.7873,3.7873,3.7873,3.7873,3.7873,3.7873,3.7873,3.7873,3.7873,3.7873,3.8644,3.9176,3.9176,3.9033,3.8861,3.8861,3.9423,3.9718,3.9718,4.028,4.0589,4.0631,4.0631,4.0659,4.0702,4.0702,4.0702,1.0554,1.1353,1.2253,1.3567,1.4656,0.0,0.0,1.8339,1.9382,1.9908,2.1074,0.0,0.0,0.0,0.0,0.0,0.0,0.0,0.0,0.0,0.0,0.0,0.0,0.0,0.0,0.0,0.0,0.0,0.0,0.0,0.0,0.0,0.0,0.0,0.0,0.0,0.0,3.2302,3.2674,3.3419,3.3875,3.4427,3.494,3.5414,3.5652,3.5827,3.5827,3.5955,3.6161,3.6161,3.6651,3.7286,3.7165,3.7108,3.7121,3.664,3.6439,3.6439,3.6439,3.6439,3.6534,3.6709,3.6977,3.723,3.7782,3.7861,3.7848,3.8225,3.8069,3.7991,3.8715,3.8895,3.8895,3.8895,3.8895,3.8895,3.8895,3.8895,3.8792,3.8419,3.8328,3.8251,3.79,3.7808,3.7808,3.7808,3.7808,3.7808,3.7808,3.7808,3.7808,3.7808,3.7808,3.7808,3.7808,3.816,3.8328,3.8328,3.8817,3.9363,3.9999,3.967,3.9695,4.035,4.0575,4.0702,4.0702,4.0702,4.0702,4.0702,4.0702,4.0329,0.9627,1.0467,1.1559,1.2802,0.0,0.0,1.6525,1.8359,1.9966,2.0311,2.1453,0.0,0.0,0.0,0.0,0.0,0.0,0.0,0.0,0.0,0.0,0.0,0.0,0.0,0.0,0.0,0.0,0.0,0.0,0.0,0.0,0.0,0.0,0.0,0.0,0.0,0.0,3.1613,3.1613,3.1613,3.2426,3.3046,3.3658,3.4117,3.4436,3.4514,3.4514,3.4614,3.4778,3.4778,3.5377,3.6314,3.6307,3.6332,3.6332,3.5763,3.5571,3.5571,3.5571,3.5571,3.5571,3.5571,3.5833,3.62,3.6577,3.6658,3.6752,3.7243,3.707,3.6871,3.6871,3.7335,3.7808,3.7808,3.7808,3.7808,3.7808,3.7808,3.7717,3.7348,3.7348,3.7256,3.6883,3.6871,3.6871,3.6871,3.6871,3.6871,3.6871,3.6871,3.6871,3.6871,3.6871,3.6871,3.6871,3.715,3.7348,3.7348,3.7952,3.8765,3.9706,3.9135,3.9046,3.9793,3.9793,3.9793,3.9793,3.9793,3.9793,3.9793,3.9793,3.9428,0.9562,1.0219,0.0,0.0,0.0,0.0,1.5576,1.7907,2.0226,2.1456,0.0,0.0,0.0,0.0,0.0,0.0,0.0,0.0,0.0,0.0,0.0,0.0,0.0,0.0,0.0,0.0,0.0,0.0,0.0,0.0,0.0,0.0,0.0,0.0,0.0,0.0,0.0,3.0216,3.0216,3.0216,3.0937,3.1637,3.2302,3.2302,3.2609,3.315,3.315,3.3535,3.4119,3.4119,3.4361,3.4809,3.535,3.5559,3.5571,3.5571,3.5571,3.5571,3.5571,3.5571,3.5571,3.5571,3.5571,3.575,3.6483,3.5941,3.5307,3.6048,3.5571,3.4823,3.4823,3.632,3.7808,3.7808,3.7808,3.7808,3.7808,3.7808,3.7441,3.6508,3.632,3.5953,3.5017,3.4823,3.4823,3.4823,3.4823,3.4823,3.4823,3.4823,3.4823,3.4823,3.4823,3.4823,3.4823,3.5667,3.632,3.632,3.632,3.679,3.7717,3.7808,3.7808,3.7808,3.7808,3.7808,3.7808,3.7808,3.7808,3.7808,3.7808,3.7808,0.94,0.0,0.0,0.0,0.0,0.0,0.0,1.8103,0.0,0.0,0.0,0.0,0.0,0.0,0.0,0.0,0.0,0.0,0.0,0.0,0.0,0.0,0.0,0.0,0.0,0.0,0.0,0.0,0.0,0.0,0.0,0.0,0.0,0.0,0.0,0.0,0.0,0.0,3.0216,3.0216,3.0397,3.0925,3.1637,3.2052,3.215,3.1889,3.1889,3.1973,3.2231,3.3057,3.3781,3.4139,3.4219,3.4475,3.469,3.4127,3.3953,3.3953,3.3953,3.3953,3.3953,3.3953,3.3953,3.4052,3.4714,3.4628,3.4555,3.5114,3.5017,3.4823,3.4823,3.5199,3.5667,3.5667,3.5667,3.5667,3.5667,3.5667,3.5571,3.5295,3.5199,3.5102,3.4823,3.4823,3.4823,3.4823,3.4823,3.4823,3.4823,3.4823,3.4823,3.4823,3.4823,3.4823,3.4823,3.5102,3.5199,3.5199,3.5199,3.6036,3.7717,3.7163,3.707,3.7808,3.7808,3.7808,3.7808,3.7808,3.7808,3.7808,3.7808,3.7441,0.9814,0.0,0.0,0.0,0.0,0.0,0.0,0.0,0.0,0.0,0.0,0.0,0.0,0.0,0.0,0.0,0.0,0.0,0.0,0.0,0.0,0.0,0.0,0.0,0.0,0.0,0.0,0.0,0.0,0.0,0.0,0.0,0.0,0.0,0.0,0.0,0.0,0.0,0.0,2.898,2.9371,2.984,3.0283,3.108,3.1181,3.0578,3.0758,3.0847,3.0984,3.1955,3.2532,3.2787,3.3066,3.3441,3.3625,3.3388,3.3281,3.3281,3.3281,3.3281,3.3281,3.3281,3.3281,3.3381,3.3779,3.3977,3.4174,3.4543,3.4726,3.4823,3.4823,3.4823,3.4823,3.4823,3.4823,3.4823,3.4823,3.4823,3.4823,3.4823,3.4823,3.4823,3.4823,3.4823,3.4823,3.4823,3.4823,3.4823,3.4823,3.4823,3.4823,3.4823,3.4823,3.4823,3.4823,3.4823,3.4823,3.4823,3.4823,3.5391,3.6602,3.6048,3.5941,3.6602,3.6602,3.6602,3.6602,3.6602,3.6602,3.6602,3.6602,3.632,1.0485,0.0,0.0,0.0,0.0,0.0,0.0,0.0,0.0,0.0,0.0,0.0,0.0,0.0,0.0,0.0,0.0,0.0,0.0,0.0,0.0,0.0,0.0,0.0,0.0,0.0,0.0,0.0,0.0,0.0,0.0,0.0,0.0,0.0,0.0,0.0,0.0,0.0,0.0,0.0,2.8143,2.8527,2.8527,2.9658,2.9943,2.9577,3.0034,3.0216,3.025,3.0744,3.0973,3.11,3.2007,3.2408,3.2546,3.3028,3.3247,3.3281,3.3281,3.3281,3.3281,3.3281,3.3281,3.3281,3.3469,3.3767,3.3965,3.4028,3.4323,3.4519,3.4519,3.4519,3.4519,3.4519,3.4628,3.4628,3.4628,3.4628,3.4519,3.4519,3.4519,3.4519,3.4519,3.4519,3.4519,3.4519,3.4617,3.4628,3.4628,3.4628,3.4726,3.4823,3.4628,3.4519,3.4628,3.4628,3.4628,3.4628,3.4726,3.4823,3.4823,3.4823,3.4823,3.4823,3.4823,3.4823,3.4823,3.4823,3.4823,3.4823,3.4871,3.4895,1.0248,1.1348,0.0,0.0,0.0,0.0,0.0,0.0,0.0,0.0,0.0,0.0,0.0,0.0,0.0,0.0,0.0,0.0,0.0,0.0,0.0,0.0,0.0,0.0,0.0,0.0,0.0,0.0,0.0,0.0,0.0,0.0,0.0,0.0,0.0,0.0,2.7189,2.7189,2.7189,0.0,2.7179,2.6989,2.6713,2.9084,3.0125,3.0034,3.0125,3.0216,3.0227,3.0342,3.0641,3.1031,3.1249,3.18,3.25,3.2615,3.2925,3.3281,3.3281,3.3281,3.3281,3.3281,3.3281,3.317,3.251,3.251,3.2611,3.1949,3.2061,3.2286,3.2286,3.2286,3.2286,3.2286,3.2889,3.3499,3.3499,3.2901,3.2286,3.2286,3.2286,3.2286,3.2286,3.2286,3.2286,3.2286,3.3001,3.3499,3.3499,3.3499,3.3918,3.4726,3.33,3.2588,3.3499,3.3499,3.3499,3.3499,3.4323,3.4823,3.4823,3.4823,3.4823,3.4823,3.4823,3.4823,3.4823,3.4823,3.4823,3.4835,3.5256,3.5449,0.9813,0.0,0.0,0.0,0.0,0.0,0.0,0.0,0.0,0.0,0.0,0.0,0.0,0.0,0.0,0.0,0.0,0.0,0.0,0.0,0.0,0.0,0.0,0.0,0.0,0.0,0.0,0.0,0.0,0.0,0.0,0.0,0.0,0.0,0.0,0.0,2.5771,2.5771,2.5771,2.5771,2.6147,2.633,2.6522,2.7662,2.8412,2.8795,2.8795,2.8795,2.8795,2.8795,2.8948,2.9222,2.9463,2.9858,3.0438,3.1404,3.1639,3.1482,3.2241,3.2117,3.171,3.171,3.171,3.1597,3.1165,3.1154,3.1359,3.1019,3.1122,3.1451,3.1575,3.1575,3.1575,3.1575,3.1982,3.2387,3.2387,3.1982,3.1575,3.1575,3.1575,3.1575,3.1575,3.1575,3.1575,3.1575,3.2083,3.2387,3.2387,3.2387,3.27,3.3201,3.2286,3.1779,3.2387,3.2387,3.2387,3.2387,3.3001,3.33,3.33,3.33,3.3709,3.4823,3.4823,3.4823,3.4823,3.4823,3.4956,3.5208,3.5485,3.5749,0.9259,0.0,1.3594,1.5687,0.0,0.0,0.0,0.0,0.0,0.0,0.0,0.0,0.0,0.0,0.0,0.0,0.0,0.0,0.0,0.0,0.0,0.0,0.0,0.0,0.0,0.0,0.0,0.0,0.0,0.0,0.0,0.0,0.0,0.0,0.0,2.4152,2.4152,2.4152,2.4152,2.4251,2.502,2.5674,2.632,2.5858,2.6244,2.7084,2.7189,2.7189,2.7189,2.7189,2.7189,2.722,2.772,2.7928,2.8202,2.9934,3.0077,2.9484,3.089,3.065,2.9922,2.9922,2.9922,2.9817,2.9713,2.9807,3.0005,3.0099,3.0296,3.0607,3.0949,3.1062,3.1062,3.1062,3.1062,3.1062,3.1268,3.1165,3.1062,3.1062,3.1062,3.1062,3.1062,3.1062,3.1062,3.1062,3.1268,3.137,3.1062,3.1268,3.137,3.137,3.1165,3.1062,3.1268,3.1268,3.1268,3.1268,3.1472,3.1618,3.1695,3.1695,3.2555,3.4485,3.4308,3.4225,3.4225,3.4308,3.4568,3.4993,3.5171,3.549,0.0,0.0,1.377,0.0,1.6243,0.0,0.0,0.0,0.0,0.0,0.0,0.0,0.0,0.0,0.0,0.0,0.0,0.0,0.0,0.0,0.0,0.0,0.0,0.0,0.0,0.0,0.0,0.0,0.0,0.0,0.0,0.0,2.362,2.362,2.3969,0.0,2.4152,2.4152,2.4152,2.4152,2.4143,2.4143,2.4233,2.4134,2.5089,2.6884,2.7084,2.7189,2.7189,2.7189,2.7189,2.7189,2.7262,2.7637,2.8063,2.8671,2.9099,2.9382,2.9964,3.0026,2.9922,2.9922,2.9922,2.9713,2.8754,2.8668,2.8784,2.8048,2.8048,2.8368,2.8698,2.8708,2.8708,2.8708,2.8708,2.9016,2.9922,2.9418,2.8708,2.8708,2.8708,2.8708,2.8708,2.8708,2.8708,2.8708,2.9828,3.0235,2.891,2.9828,3.0639,3.0639,2.9523,2.9112,3.0026,3.013,3.013,3.013,3.1062,3.176,3.206,3.2071,3.2488,3.3115,3.2413,3.1982,3.1982,3.2402,3.2635,3.2712,3.3542,3.3854,0.9114,1.1344,1.3278,0.0,1.6009,0.0,0.0,0.0,0.0,0.0,0.0,0.0,0.0,0.0,0.0,0.0,0.0,0.0,0.0,0.0,0.0,0.0,0.0,0.0,0.0,0.0,0.0,0.0,0.0,0.0,0.0,2.2327,2.2416,2.2416,2.2584,0.0,2.3483,2.3703,2.3923,2.4152,2.4053,2.3954,2.3854,2.3954,2.4529,2.5382,2.5479,2.5479,2.5479,2.5479,2.5479,2.5479,2.5479,2.5703,2.6055,2.7202,2.7468,2.7334,2.8525,2.8562,2.8048,2.8048,2.8048,2.7941,2.7413,2.7422,2.7539,2.7431,2.7539,2.7745,2.8184,2.8291,2.8291,2.8291,2.8291,2.8398,2.891,2.8591,2.8291,2.8291,2.8291,2.8291,2.8291,2.8291,2.8291,2.8291,2.8804,2.9006,2.8398,2.891,2.9313,2.9313,2.8708,2.8495,2.9006,2.9006,2.9106,2.9357,2.9784,3.0298,3.0761,3.0771,3.0864,3.1069,3.1849,3.2372,3.2372,3.2485,3.2714,3.2964,3.3388,3.3726,0.0,0.0,1.1833,1.3981,1.5094,1.585,0.0,0.0,0.0,0.0,0.0,0.0,0.0,0.0,0.0,0.0,0.0,0.0,0.0,0.0,0.0,0.0,0.0,0.0,0.0,0.0,0.0,0.0,0.0,0.0,2.0813,2.0897,2.0948,2.0948,2.105,2.1587,2.2564,2.3053,2.3593,2.3996,2.3996,2.3952,2.3954,2.4152,2.4152,2.4152,2.4152,2.4152,2.4152,2.4152,2.4152,2.4152,2.4152,2.4152,2.4343,2.6034,2.606,2.5586,2.7216,2.7305,2.6591,2.6591,2.6591,2.6591,2.6591,2.6591,2.6691,2.7215,2.7323,2.7539,2.8077,2.8291,2.8184,2.796,2.7853,2.7853,2.7853,2.7853,2.7736,2.7403,2.7394,2.7403,2.7628,2.7736,2.7853,2.8291,2.8291,2.8291,2.8291,2.8291,2.8291,2.8291,2.8389,2.8447,2.8447,2.8555,2.875,2.9062,2.9082,2.9277,2.9707,2.9726,2.9785,2.9902,3.1529,3.2282,3.2038,3.2155,3.2388,3.2706,3.2833,3.3098,0.0,0.7481,0.0,1.1447,0.0,0.0,0.0,0.0,0.0,0.0,0.0,0.0,0.0,0.0,0.0,0.0,0.0,0.0,0.0,0.0,0.0,0.0,0.0,0.0,0.0,0.0,0.0,0.0,0.0,0.0,1.8936,1.9341,1.9517,1.9517,1.9854,2.0523,2.1579,2.2488,2.3085,2.3574,2.3574,2.3776,2.4152,2.4152,2.4152,2.4152,2.4152,2.4152,2.4152,2.4152,2.4152,2.4152,2.4152,2.4152,2.4352,2.5172,2.5476,2.5491,2.6406,2.67,2.6591,2.6591,2.6591,2.6591,2.6591,2.6591,2.6691,2.689,2.7206,2.7431,2.7853,2.8077,2.796,2.6862,2.6636,2.6636,2.6636,2.6636,2.63,2.5058,2.4948,2.5177,2.5854,2.5972,2.6527,2.8067,2.8291,2.8291,2.8291,2.8291,2.8291,2.8291,2.8652,2.8887,2.8887,2.9268,2.9512,2.9531,2.9531,2.9726,3.0146,3.0166,3.0371,3.081,3.0937,3.063,2.9784,3.0187,3.0394,3.0433,3.0876,3.1092,0.0,0.0,0.0,1.0497,1.1881,0.0,0.0,0.0,0.0,0.0,0.0,0.0,0.0,0.0,0.0,0.0,0.0,0.0,0.0,0.0,0.0,0.0,0.0,0.0,0.0,0.0,0.0,0.0,0.0,0.0,1.7878,1.7984,1.8052,1.8052,1.8172,1.8902,2.0153,2.0454,2.1208,2.218,2.218,2.2777,2.3758,2.3055,2.2892,2.3038,2.2417,2.2929,2.4152,2.4152,2.4152,2.4152,2.4152,2.4152,2.4225,2.4785,2.5152,2.5454,2.5995,2.6362,2.6591,2.6591,2.6591,2.6591,2.6591,2.6591,2.6464,2.5981,2.5854,2.5963,2.5626,2.5617,2.5617,2.5397,2.4965,2.4531,2.4309,2.4855,2.5177,2.4829,2.4727,2.4948,2.5753,2.5863,2.5972,2.5945,2.6409,2.6409,2.5415,2.5735,2.6044,2.6304,2.6457,2.6637,2.6784,2.775,2.8408,2.8803,2.9507,3.0176,3.0625,3.0644,3.0723,3.0889,3.0889,3.0732,3.042,3.0566,3.0644,3.0644,3.081,3.0889,0.5854,0.0,0.0,0.0,0.0,0.0,0.0,0.0,0.0,0.0,0.0,0.0,0.0,0.0,0.0,0.0,0.0,0.0,0.0,0.0,0.0,0.0,0.0,0.0,0.0,0.0,0.0,0.0,0.0,0.0,1.6857,1.6763,1.6763,1.6763,1.7138,1.7702,1.8659,1.9036,1.9776,2.0811,2.0811,2.1292,2.2259,2.1688,2.1586,2.1728,2.1143,2.17,2.3129,2.3129,2.3129,2.3129,2.3129,2.3338,2.3691,2.4095,2.4624,2.5225,2.5189,2.5469,2.5711,2.5375,2.5353,2.5348,2.5348,2.5348,2.5229,2.4642,2.4514,2.4505,2.4061,2.3727,2.3615,2.3838,2.3287,2.2636,2.2425,2.3303,2.3958,2.3623,2.3519,2.3743,2.4197,2.4317,2.4086,2.3631,2.3975,2.4197,2.3966,2.4403,2.4872,2.5136,2.529,2.552,2.5903,2.6874,2.7544,2.7803,2.8652,2.925,2.9549,3.003,3.0274,3.0274,3.0274,3.0274,3.0274,3.0645,3.0889,3.0889,3.0889,3.0645,0.0,0.0,0.0,0.0,0.0,0.0,0.0,0.0,0.0,0.0,0.0,0.0,0.0,0.0,0.0,0.0,0.0,0.0,0.0,0.0,0.0,0.0,0.0,0.0,0.0,0.0,0.0,0.0,0.0,1.5832,1.5832,1.5832,1.5832,1.5832,1.6763,1.7239,1.7239,1.8241,1.8955,1.9383,1.9383,1.9566,2.0031,2.017,2.0337,2.0377,2.0617,2.0775,2.0783,2.0885,2.0885,2.0885,2.0885,2.1497,2.2468,2.2929,2.37,2.4617,2.3913,2.3853,2.3962,2.2881,2.268,2.2966,2.2974,2.2974,2.2974,2.2982,2.3183,2.3383,2.3271,2.2613,2.2063,2.241,2.1502,2.0838,2.1089,2.2093,2.2652,2.1432,2.1211,2.1211,2.1211,2.1211,2.1211,2.1211,2.1211,2.1979,2.4283,2.4616,2.4761,2.504,2.5528,2.5903,2.6295,2.6679,2.6892,2.6892,2.7013,2.7013,2.7013,2.8206,2.8801,2.8801,2.8801,2.8801,2.8801,3.0147,3.0772,3.0772,3.0762,3.003,0.5283,0.0,0.0,0.0,0.0,0.0,0.0,0.0,0.0,0.0,0.0,0.0,0.0,0.0,0.0,0.0,0.0,0.0,0.0,0.0,0.0,0.0,0.0,0.0,0.0,0.0,0.0,0.0,0.0,1.5832,1.5832,1.5832,1.5832,1.5832,1.6109,1.6204,1.6204,1.648,1.708,1.792,1.792,1.8463,1.955,1.8796,1.8814,1.9157,1.8549,1.8309,1.8617,2.0269,2.0885,2.0885,2.0885,2.1089,2.1412,2.1509,2.1911,2.2358,2.2135,2.2413,2.2657,2.2589,2.2513,2.2641,2.2903,2.2974,2.2862,2.1964,2.1737,2.1616,2.0931,2.0823,2.0831,2.0831,2.0831,2.0716,2.0838,2.1303,2.1653,2.1211,2.1211,2.1211,2.1211,2.1211,2.1089,2.0622,2.0622,2.1074,2.1722,2.1828,2.2062,2.2902,2.3165,2.3449,2.4017,2.5008,2.5684,2.5684,2.6529,2.7004,2.6987,2.7366,2.7495,2.7495,2.7495,2.7495,2.7495,2.7864,2.8104,2.8104,2.8086,2.7838,0.5687,0.5841,0.0,0.0,0.0,0.0,0.0,0.0,0.0,0.0,0.0,0.0,0.0,0.0,0.0,0.0,0.0,0.0,0.0,0.0,0.0,0.0,0.0,0.0,0.0,0.0,0.0,0.0,1.5832,1.5832,1.5832,1.5832,1.5832,1.5832,1.5832,1.5832,1.5832,1.5832,1.6109,1.6669,1.6669,1.7131,1.7873,1.7359,1.7428,1.7782,1.734,1.7248,1.7513,1.8977,1.9539,1.9539,1.9539,1.9849,2.0158,2.0158,2.0592,2.1179,2.0763,2.0778,2.1002,2.0768,2.0706,2.0885,2.1204,2.1308,2.1225,2.0573,2.05,2.027,1.9815,1.9822,1.9931,2.0046,2.027,2.0378,2.0493,2.073,2.0859,2.0967,2.0967,2.0967,2.0974,2.0974,2.0852,2.0392,2.0392,2.05,2.0378,2.0493,2.0923,2.1558,2.173,2.2004,2.25,2.3266,2.3837,2.3837,2.4695,2.5178,2.5162,2.579,2.6172,2.6172,2.6172,2.592,2.5431,2.6529,2.7013,2.7021,2.639,2.6156,0.6263,0.6176,0.6391,0.0,0.0,0.0,0.0,0.9148,0.0,0.0,0.0,0.0,0.0,0.0,0.0,0.0,0.0,0.0,0.0,0.0,0.0,0.0,0.0,0.0,0.0,0.0,0.0,1.5832,1.5832,1.5832,1.5832,1.5832,1.5832,1.5832,1.5832,1.5832,1.5832,1.5832,1.5832,1.5832,1.5832,1.5832,1.5838,1.6106,1.6246,1.6299,1.6827,1.719,1.7174,1.7428,1.7555,1.7582,1.7582,1.8199,1.902,1.902,1.9642,2.0372,1.9332,1.9208,1.9248,1.8347,1.8223,1.8497,1.8784,1.8898,1.8985,1.9285,1.9366,1.9366,1.9366,1.9366,1.9482,1.97,1.9815,1.9931,2.0155,2.027,2.0385,2.0601,2.0601,2.0608,2.0507,2.0507,2.0507,2.0277,2.027,2.0155,1.9924,2.0277,2.0628,2.0822,2.0977,2.1264,2.1579,2.188,2.2062,2.2062,2.2341,2.2613,2.2606,2.4085,2.4826,2.4826,2.4826,2.4332,2.3113,2.5431,2.6529,2.6529,2.5439,2.4826,0.7253,0.7433,0.758,0.0,0.0,0.0,0.0,0.7444,0.0,0.0,0.0,0.0,0.0,0.0,0.0,0.0,0.0,0.0,0.0,0.0,0.0,0.0,0.0,0.0,0.0,0.0,1.5832,1.5832,1.5832,1.5832,1.5832,1.5832,1.5832,1.5832,1.5832,1.5832,1.5832,1.5832,1.5832,1.5832,1.5832,1.5832,1.5832,1.5885,1.6046,1.6279,1.6393,1.6714,1.7154,1.7215,1.7375,1.7582,1.7582,1.7681,1.7891,1.7891,1.8101,1.8199,1.7996,1.7932,1.802,1.7963,1.809,1.819,1.8484,1.8738,1.8985,1.9285,1.9366,1.9366,1.9366,1.9366,1.9366,1.9482,1.9591,1.9815,1.9931,2.0162,2.027,2.004,2.0155,2.027,2.0155,2.027,2.0162,1.9591,1.9707,1.9815,1.9597,1.9815,2.0164,2.0704,2.0788,2.0949,2.1257,2.1565,2.1747,2.1747,2.2096,2.2355,2.2606,2.2856,2.3223,2.3479,2.3472,2.3355,2.3106,2.3596,2.3845,2.3837,2.3596,2.3472,0.7785,0.7795,0.0,0.714,0.0,0.0,0.0,0.0,0.0,0.0,0.0,0.0,0.0,0.0,0.0,0.0,0.0,0.0,0.0,0.0,0.0,0.0,0.0,0.0,0.0,0.0,1.5671,1.5818,1.5832,1.5832,1.5832,1.5832,1.5832,1.5832,1.5832,1.5832,1.5832,1.5832,1.5832,1.5832,1.5832,1.5832,1.5832,1.5832,1.5912,1.6059,1.6213,1.644,1.6734,1.7027,1.7235,1.7382,1.7522,1.7582,1.7582,1.7582,1.7582,1.7582,1.7582,1.7582,1.7609,1.7762,1.7816,1.7876,1.8176,1.8571,1.8951,1.9105,1.9252,1.9366,1.9366,1.9366,1.9366,1.9366,1.9482,1.9591,1.9591,1.9707,1.9822,1.9591,1.9707,1.9822,1.97,1.9815,1.9707,1.9482,1.9475,1.9591,1.9366,1.9482,1.9768,2.0034,2.0178,2.0328,2.0479,2.0766,2.1006,2.1156,2.1431,2.1825,2.2104,2.2237,2.2487,2.2856,2.2981,2.3106,2.3106,2.3106,2.3106,2.3106,2.3106,2.3106,0.0,0.0,0.0,0.0,0.0,0.7034,0.0,0.0,0.0,0.7113,0.0,0.0,0.0,0.0,0.0,0.0,0.0,0.0,0.0,0.0,0.0,0.0,0.0,0.0,0.0,0.0,1.5231,1.5631,1.5558,1.5571,1.5732,1.5798,1.5832,1.5832,1.5832,1.5832,1.5832,1.5832,1.5832,1.5832,1.5832,1.5832,1.5832,1.5832,1.5832,1.5845,1.6086,1.6219,1.6313,1.6787,1.715,1.7181,1.7468,1.7582,1.7582,1.7582,1.7582,1.7582,1.7582,1.7582,1.7582,1.7582,1.7582,1.7642,1.7956,1.8377,1.8778,1.8891,1.9098,1.9292,1.9352,1.9366,1.9366,1.9366,1.9366,1.9366,1.9366,1.9243,1.901,1.901,1.8887,1.8771,1.9366,1.9366,1.9366,1.9366,1.9366,1.9366,1.9366,1.9366,1.9366,1.9366,1.9579,1.972,1.972,1.9987,2.0254,2.0494,2.0862,2.1272,2.1512,2.195,2.2355,2.2606,2.2988,2.2981,2.2863,2.2863,2.2863,2.3106,2.2856,2.2863,0.0,0.0,0.0,0.0,0.8283,0.0,0.0,0.0,0.6406,0.5898,0.0,0.0,0.0,0.0,0.0,0.0,0.0,0.0,0.0,0.0,0.0,0.0,0.0,0.0,0.0,0.0,0.0,1.4997,1.4583,1.4623,1.5404,1.5691,1.5832,1.5832,1.5832,1.5832,1.5832,1.5832,1.5832,1.5832,1.5832,1.5832,1.5832,1.5832,1.5832,1.5832,1.5865,1.6032,1.6279,1.6346,1.668,1.7181,1.7468,1.7582,1.7582,1.7582,1.7582,1.7582,1.7582,1.7582,1.7582,1.7582,1.7582,1.7642,1.7956,1.8096,1.8257,1.8778,1.8951,1.9038,1.9299,1.9366,1.9366,1.9366,1.9366,1.9366,1.9366,1.8525,1.7689,1.7689,1.675,1.6756,1.901,1.9366,1.9366,1.9366,1.9366,1.9366,1.9366,1.9366,1.9366,1.9366,1.9399,1.9419,1.9419,1.9679,1.9867,1.99,2.0388,2.0936,2.1218,2.2089,2.2613,2.2606,2.2988,2.2613,2.1734,2.1734,2.2237,2.3113,2.2237,2.1734,0.0,0.0,0.0,0.0,0.0,0.0,0.0,0.0,0.6227,0.0,0.0,0.0,0.0,0.0,0.0,0.0,0.0,0.0,0.0,0.0,0.0,0.0,0.0,0.0,0.0,0.0,0.0,0.0,0.0,1.4215,1.5097,1.5424,1.5658,1.5825,1.5832,1.5832,1.5832,1.5832,1.5832,1.5832,1.5832,1.5832,1.5832,1.5832,1.5832,1.5832,1.5832,1.5899,1.6025,1.6206,1.642,1.6687,1.7154,1.7435,1.7582,1.7582,1.7582,1.7582,1.7582,1.7582,1.7582,1.7582,1.7582,1.7609,1.7736,1.7903,1.8096,1.8343,1.8657,1.8951,1.9078,1.9239,1.9243,1.8525,1.8292,1.8052,1.7349,1.6756,1.6397,1.6397,1.5924,1.593,1.6991,1.7232,1.7232,1.7232,1.7818,1.8292,1.8292,1.8887,1.9366,1.9366,1.8765,1.8648,1.9366,1.8875,1.8957,2.0027,2.0601,2.1054,2.1173,2.1665,2.1594,2.0816,2.1594,2.1342,2.0062,2.0456,2.0963,2.1342,2.0969,2.0716,0.9631,0.0,0.0,0.0,0.0,0.0,0.0,0.0,0.0,0.0,0.0,0.0,0.0,0.0,0.0,0.0,0.0,0.0,0.0,0.0,0.0,0.0,0.0,0.0,0.0,0.0,0.0,0.0,0.0,0.0,1.4663,1.5077,1.5411,1.5705,1.5792,1.5832,1.5832,1.5832,1.5832,1.5832,1.5832,1.5832,1.5832,1.5832,1.5832,1.5737,1.554,1.535,1.5363,1.5377,1.5407,1.5522,1.6005,1.6367,1.6622,1.7338,1.7582,1.7582,1.7582,1.7582,1.7582,1.7582,1.7364,1.7153,1.7153,1.7083,1.6946,1.7022,1.7395,1.778,1.7856,1.8083,1.8175,1.722,1.6979,1.675,1.5811,1.5332,1.5095,1.5095,1.4743,1.4505,1.4505,1.51,1.5575,1.5575,1.6397,1.6979,1.6979,1.7818,1.8415,1.8415,1.7578,1.7343,1.8298,1.7461,1.7565,1.9082,1.9562,1.9865,1.9941,2.0322,2.0055,1.9024,1.9807,1.968,1.853,1.9176,1.931,1.931,1.9565,1.9693,0.0,0.0,0.0,0.8877,0.0,0.0,0.0,0.0,0.8348,0.0,0.0,0.0,0.0,0.0,0.9978,1.0071,1.0107,0.0,0.0,0.0,0.0,0.0,0.0,0.0,0.0,0.0,0.0,0.0,0.0,0.0,1.4021,1.4663,1.511,1.5398,1.5678,1.5832,1.5832,1.5832,1.5832,1.5832,1.5832,1.5832,1.5832,1.5832,1.5832,1.5737,1.4777,1.4394,1.4298,1.3227,1.2975,1.3308,1.3458,1.3708,1.4256,1.6727,1.7582,1.7582,1.7582,1.7582,1.7582,1.7582,1.6829,1.5968,1.5968,1.5108,1.4299,1.4642,1.4899,1.5037,1.538,1.562,1.5693,1.5693,1.5688,1.5688,1.5575,1.4619,1.3784,1.3784,1.2724,1.1893,1.1893,1.3913,1.5575,1.5575,1.5575,1.5688,1.5688,1.5693,1.5688,1.5688,1.5688,1.5693,1.5693,1.5688,1.5888,1.6355,1.6621,1.6737,1.7098,1.7485,1.7608,1.7608,1.7982,1.7865,1.7507,1.7507,1.7383,1.713,1.8156,1.8536,0.0,0.0,1.1074,0.997,0.0,0.0,0.0,0.0,0.0,0.0,0.0,0.0,0.0,0.9538,0.9747,0.9389,0.9269,0.899,0.0,0.0,0.0,0.0,0.0,0.0,0.0,0.0,0.0,0.0,0.0,0.0,0.0,1.3948,1.4603,1.5097,1.5391,1.5631,1.5825,1.5832,1.5832,1.5832,1.5832,1.5832,1.5737,1.5064,1.4777,1.4777,1.3703,1.3216,1.3216,1.2829,1.2775,1.2872,1.3114,1.3351,1.3713,1.4847,1.5316,1.5316,1.5316,1.5316,1.5316,1.5316,1.4995,1.4674,1.4674,1.4454,1.4153,1.4234,1.4428,1.4782,1.5026,1.5264,1.5253,1.4465,1.4381,1.4143,1.332,1.2728,1.2487,1.2487,1.2134,1.1776,1.1776,1.2487,1.3084,1.3084,1.3789,1.4381,1.4381,1.5095,1.5575,1.5575,1.4857,1.4738,1.5575,1.5854,1.6097,1.6253,1.7014,1.7535,1.7619,1.8279,1.8156,1.7249,1.7759,1.7507,1.6483,1.7001,1.713,1.7007,1.7389,1.7512,1.1198,1.1467,0.0,1.0632,1.0293,0.0,0.9068,0.0,0.0,0.0,0.0,0.0,0.0,0.0,0.9728,0.9221,0.8774,0.8247,0.0,0.0,0.0,0.0,0.0,0.0,0.0,0.0,0.8976,0.9765,0.0,0.0,0.0,0.0,1.4202,1.4783,1.519,1.5538,1.5825,1.5832,1.5832,1.5832,1.5445,1.5255,1.5255,1.419,1.3709,1.3709,1.2635,1.2145,1.2145,1.176,1.1565,1.159,1.1905,1.2122,1.2358,1.3556,1.4062,1.4132,1.4132,1.4132,1.4132,1.4132,1.3814,1.3491,1.3491,1.3166,1.2847,1.2847,1.3113,1.3335,1.3552,1.3769,1.3756,1.3145,1.3075,1.284,1.2014,1.1776,1.1776,1.1776,1.1776,1.1776,1.1776,1.1776,1.1776,1.1776,1.2487,1.3075,1.3075,1.3794,1.4272,1.4272,1.3555,1.3315,1.4152,1.4661,1.4908,1.4908,1.5696,1.6198,1.6198,1.6861,1.6866,1.5964,1.6613,1.6613,1.5974,1.6488,1.6748,1.7001,1.7001,1.7001]},{"header":{"parameterUnit":"m.s-1","parameterCategory":1,"la1":30.6,"la2":29.2853,"lo1":-89.7004,"lo2":-87.6739,"dy":0.0162,"dx":0.0183,"nx":112,"ny":82,"refTime":"2024-06-03T18:00:00:Z","depth":0,"parameterNumber":3,"parameterNumberName":"V-component_of_WINDS"},"data":[0.0,0.0,0.0,0.0,0.0,0.0,0.0,0.0,0.0,0.0,0.0,0.0,0.0,0.0,0.0,0.0,0.0,0.0,0.0,0.0,0.0,0.0,0.0,0.0,0.0,0.0,0.0,0.0,0.0,0.0,0.0,0.0,0.0,0.0,0.0,0.0,0.0,0.0,0.0,0.0,0.0,0.0,0.0,0.0,0.0,0.0,0.0,0.0,0.0,0.0,0.0,0.0,0.0,0.0,0.0,0.0,0.0,0.0,0.0,0.0,0.0,0.0,0.0,0.0,0.0,0.0,0.0,0.0,0.0,0.0,0.0,0.0,0.0,0.0,0.0,0.0,0.0,0.0,0.0,0.0,0.0,0.0,0.0,0.0,0.0,0.0,0.0,0.0,0.0,0.0,0.0,-0.8753,-0.9629,-1.0076,-0.9869,-0.9519,-0.8713,-0.7318,0.0,0.0,0.0,0.0,0.0,0.0,0.0,0.0,0.0,0.0,0.0,0.0,0.0,0.0,0.0,0.0,0.0,0.0,0.0,0.0,0.0,0.0,0.0,0.0,0.0,0.0,0.0,0.0,0.0,0.0,0.0,0.0,0.0,0.0,0.0,0.0,0.0,0.0,0.0,0.0,0.0,0.0,0.0,0.0,0.0,0.0,0.0,0.0,0.0,0.0,0.0,0.0,0.0,0.0,0.0,0.0,0.0,0.0,0.0,0.0,0.0,0.0,0.0,0.0,0.0,0.0,0.0,0.0,0.0,0.0,0.0,0.0,0.0,0.0,0.0,0.0,0.0,0.0,0.0,0.0,0.0,0.0,0.0,0.0,0.0,0.0,0.0,0.0,0.0,0.0,0.0,0.0,0.0,0.0,0.0,0.0,0.0,0.0,0.0,0.0,0.0,0.0,0.0,0.0,-0.7617,-0.9484,-1.0065,-1.0236,-1.0194,-0.9753,-0.898,-0.783,0.0,0.0,0.0,0.0,0.0,0.0,0.0,0.0,0.0,0.0,0.0,0.0,0.0,0.0,0.0,0.0,0.0,0.0,0.0,0.0,0.0,0.0,0.0,0.0,0.0,0.0,0.0,0.0,0.0,0.0,0.0,0.0,0.0,0.0,0.0,0.0,0.0,0.0,0.0,0.0,0.0,0.0,0.0,0.0,0.0,0.0,0.0,0.0,0.0,0.0,0.0,0.0,0.0,0.0,0.0,0.0,0.0,0.0,0.0,0.0,0.0,0.0,0.0,0.0,0.0,0.0,0.0,0.0,0.0,0.0,0.0,0.0,0.0,0.0,0.0,0.0,0.0,0.0,0.0,0.0,0.0,0.0,0.0,0.0,0.0,0.0,0.0,0.0,0.0,0.0,0.0,0.0,0.0,0.0,0.0,0.0,0.0,0.0,0.0,0.0,0.0,0.0,0.0,-0.7792,-0.8582,-1.0001,-1.0387,-1.0484,-1.0345,-0.9784,-0.9021,-0.797,-0.712,0.0,0.0,0.0,0.0,0.0,0.0,0.0,0.0,0.0,0.0,0.0,0.0,0.0,0.0,0.0,0.0,0.0,0.0,0.0,0.0,0.0,0.0,0.0,0.0,0.0,0.0,0.0,0.0,0.0,0.0,0.0,0.0,0.0,0.0,0.0,0.0,0.0,0.0,0.0,0.0,0.0,0.0,0.0,0.0,0.0,0.0,0.0,0.0,0.0,0.0,0.0,0.0,0.0,0.0,0.0,0.0,0.0,0.0,0.0,0.0,0.0,0.0,0.0,0.0,0.0,0.0,0.0,0.0,0.0,0.0,0.0,0.0,0.0,0.0,0.0,0.0,0.0,0.0,0.0,0.0,0.0,0.0,0.0,0.0,0.0,0.0,0.0,0.0,0.0,0.0,0.0,0.0,0.0,0.0,0.0,0.0,0.0,0.0,0.0,0.0,0.0,0.0,-0.8782,-0.9448,-1.0248,-1.0508,-1.055,-1.0345,-0.9664,-0.8896,-0.7961,-0.7146,0.0,0.0,0.0,0.0,0.0,0.0,0.0,0.0,0.0,0.0,0.0,0.0,0.0,0.0,0.0,0.0,0.0,0.0,0.0,0.0,0.0,0.0,0.0,0.0,0.0,0.0,0.0,0.0,0.0,0.0,0.0,0.0,0.0,0.0,0.0,0.0,0.0,0.0,0.0,0.0,0.0,0.0,0.0,0.0,0.0,0.0,0.0,0.0,0.0,0.0,0.0,0.0,0.0,0.0,0.0,0.0,0.0,0.0,0.0,0.0,0.0,0.0,0.0,0.0,0.0,0.0,0.0,0.0,0.0,0.0,0.0,0.0,0.0,0.0,0.0,0.0,0.0,0.0,0.0,0.0,0.0,0.0,0.0,0.0,0.0,0.0,0.0,0.0,0.0,0.0,0.0,0.0,0.0,0.0,0.0,0.0,0.0,0.0,0.0,0.0,0.0,0.0,-0.8721,-0.9664,-1.0272,-1.0345,-1.0351,-1.0327,-0.9322,-0.8495,-0.7937,-0.6977,0.0,0.0,0.0,0.0,0.0,0.0,0.0,0.0,0.0,0.0,0.0,0.0,0.0,0.0,0.0,0.0,0.0,0.0,0.0,0.0,0.0,0.0,0.0,0.0,0.0,0.0,0.0,0.0,0.0,0.0,0.0,0.0,0.0,0.0,0.0,0.0,0.0,0.0,0.0,0.0,0.0,0.0,0.0,0.0,0.0,0.0,0.0,0.0,0.0,0.0,0.0,0.0,0.0,0.0,0.0,0.0,0.0,0.0,0.0,0.0,0.0,0.0,0.0,0.0,0.0,0.0,0.0,0.0,0.0,0.0,0.0,0.0,0.0,0.0,0.0,0.0,0.0,0.0,0.0,0.0,0.0,0.0,0.0,0.0,0.0,0.0,0.0,0.0,0.0,0.0,0.0,0.0,0.0,0.0,0.0,0.0,0.0,0.0,0.0,0.0,0.0,0.0,-0.897,-0.9823,0.0,-1.0471,-1.0465,-1.0333,-0.95,-0.8627,-0.7943,0.0,0.0,0.0,0.0,0.0,0.0,0.0,0.0,0.0,0.0,0.0,0.0,0.0,0.0,0.0,0.0,0.0,0.0,0.0,0.0,0.0,0.0,0.0,0.0,0.0,0.0,0.0,0.0,0.0,0.0,0.0,0.0,0.0,0.0,0.0,0.0,0.0,0.0,0.0,0.0,0.0,0.0,0.0,0.0,0.0,0.0,0.0,0.0,0.0,0.0,0.0,0.0,0.0,0.0,0.0,0.0,0.0,0.0,0.0,0.0,0.0,0.0,0.0,0.0,0.0,0.0,0.0,0.0,0.0,0.0,0.0,0.0,0.0,0.0,0.0,0.0,0.0,0.0,0.0,0.0,0.0,0.0,0.0,0.0,0.0,0.0,0.0,0.0,0.0,0.0,0.0,0.0,0.0,0.0,0.0,0.0,0.0,0.0,0.0,0.0,0.0,0.0,-0.8215,-0.933,-1.0161,0.0,-1.0679,-1.061,-1.0465,-0.956,-0.8728,-0.8098,0.0,0.0,0.0,0.0,0.0,0.0,0.0,0.0,0.0,0.0,0.0,0.0,0.0,0.0,0.0,0.0,0.0,0.0,0.0,0.0,0.0,0.0,0.0,0.0,0.0,0.0,0.0,0.0,0.0,0.0,0.0,0.0,0.0,0.0,0.0,0.0,0.0,0.0,0.0,0.0,0.0,0.0,0.0,0.0,0.0,0.0,0.0,0.0,0.0,0.0,0.0,0.0,0.0,0.0,0.0,0.0,0.0,0.0,0.0,0.0,0.0,0.0,0.0,0.0,0.0,0.0,0.0,0.0,0.0,0.0,0.0,0.0,0.0,0.0,0.0,0.0,0.0,0.0,0.0,0.0,0.0,0.0,0.0,0.0,0.0,0.0,0.0,0.0,0.0,0.0,0.0,0.0,0.0,0.0,0.0,0.0,0.0,0.0,0.0,0.0,0.0,0.0,-0.8319,-0.9663,-1.0581,-1.0861,-1.0886,-1.0886,-1.088,-0.9595,-0.8673,0.0,0.0,0.0,0.0,0.0,0.0,0.0,0.0,0.0,0.0,0.0,0.0,0.0,0.0,0.0,0.0,0.0,0.0,0.0,0.0,0.0,0.0,0.0,0.0,0.0,0.0,0.0,0.0,0.0,0.0,0.0,0.0,0.0,0.0,0.0,0.0,0.0,0.0,0.0,0.0,0.0,0.0,0.0,0.0,0.0,0.0,0.0,0.0,0.0,0.0,0.0,0.0,0.0,0.0,0.0,0.0,0.0,0.0,0.0,0.0,0.0,0.0,0.0,0.0,0.0,0.0,0.0,0.0,0.0,0.0,0.0,0.0,0.0,0.0,0.0,0.0,0.0,0.0,0.0,0.0,0.0,0.0,0.0,0.0,0.0,0.0,0.0,0.0,0.0,0.0,0.0,0.0,0.0,0.0,0.0,0.0,0.0,0.0,0.0,0.0,0.0,0.0,0.0,0.0,-1.0091,-1.0981,-1.1333,-1.1384,-1.1237,-1.0899,-1.0027,-0.9157,-0.8466,0.0,0.0,0.0,0.0,0.0,0.0,0.0,0.0,0.0,0.0,0.0,0.0,0.0,0.0,0.0,0.0,0.0,0.0,0.0,0.0,0.0,0.0,0.0,0.0,0.0,0.0,0.0,0.0,0.0,0.0,0.0,0.0,0.0,0.0,0.0,0.0,0.0,0.0,0.0,0.0,0.0,0.0,0.0,0.0,0.0,0.0,0.0,0.0,0.0,0.0,0.0,0.0,0.0,0.0,0.0,0.0,0.0,0.0,0.0,0.0,0.0,0.0,0.0,0.0,0.0,0.0,0.0,0.0,0.0,0.0,0.0,0.0,0.0,0.0,0.0,0.0,0.0,0.0,0.0,0.0,0.0,0.0,0.0,0.0,0.0,0.0,0.0,0.0,0.0,0.0,0.0,0.0,0.0,0.0,0.0,0.0,0.0,0.0,0.0,0.0,0.0,0.0,-0.905,-1.0367,-1.1281,-1.1675,-1.1728,-1.1539,-1.1112,-1.0477,-0.9682,-0.8754,0.0,0.0,0.0,0.0,0.0,0.0,0.0,0.0,0.0,0.0,0.0,0.0,0.0,0.0,0.0,0.0,0.0,0.0,0.0,0.0,0.0,0.0,0.0,0.0,0.0,0.0,0.0,0.0,0.0,0.0,0.0,0.0,0.0,0.0,0.0,0.0,0.0,0.0,0.0,0.0,0.0,0.0,0.0,0.0,0.0,0.0,0.0,0.0,0.0,0.0,0.0,0.0,0.0,0.0,0.0,0.0,0.0,0.0,0.0,0.0,0.0,0.0,0.0,0.0,0.0,0.0,0.0,0.0,0.0,0.0,0.0,0.0,0.0,0.0,0.0,0.0,0.0,0.0,0.0,0.0,0.0,0.0,0.0,0.0,0.0,0.0,0.0,0.0,0.0,0.0,0.0,0.0,0.0,0.0,0.0,0.0,0.0,0.0,0.0,0.0,0.0,0.0,-0.9143,-1.0548,-1.155,-1.1877,-1.1911,-1.179,-1.149,-1.0935,-1.0221,-0.9283,0.0,0.0,0.0,0.0,0.0,0.0,0.0,0.0,0.0,0.0,0.0,0.0,0.0,0.0,0.0,0.0,0.0,0.0,0.0,0.0,0.0,0.0,0.0,0.0,0.0,0.0,0.0,0.0,0.0,0.0,0.0,0.0,0.0,0.0,0.0,0.0,0.0,0.0,0.0,0.0,0.0,0.0,0.0,0.0,0.0,0.0,0.0,0.0,0.0,0.0,0.0,0.0,0.0,0.0,0.0,0.0,0.0,0.0,0.0,0.0,-0.7401,0.0,0.0,0.0,0.0,0.0,0.0,0.0,0.0,0.0,0.0,0.0,0.0,0.0,0.0,0.0,0.0,0.0,0.0,0.0,0.0,0.0,0.0,0.0,0.0,0.0,0.0,0.0,0.0,0.0,0.0,0.0,0.0,0.0,0.0,0.0,0.0,0.0,0.0,0.0,0.0,0.0,-0.9753,-1.0802,-1.1623,-1.2151,-1.2204,-1.2091,-1.1797,-1.1236,-1.0521,-0.9646,0.0,0.0,0.0,0.0,0.0,0.0,0.0,0.0,0.0,0.0,0.0,0.0,0.0,0.0,0.0,0.0,0.0,0.0,0.0,0.0,0.0,0.0,0.0,0.0,0.0,0.0,0.0,0.0,0.0,0.0,0.0,0.0,0.0,0.0,0.0,0.0,0.0,0.0,0.0,0.0,0.0,0.0,0.0,0.0,0.0,0.0,0.0,0.0,0.0,0.0,0.0,0.0,0.0,0.0,0.0,0.0,0.0,0.0,0.0,0.0,0.0,-0.8008,0.0,0.0,0.0,0.0,0.0,0.0,0.0,0.0,0.0,0.0,0.0,0.0,0.0,0.0,0.0,0.0,0.0,0.0,0.0,0.0,0.0,0.0,0.0,0.0,0.0,0.0,0.0,0.0,0.0,0.0,0.0,0.0,0.0,0.0,0.0,0.0,0.0,0.0,0.0,0.0,-1.0185,-1.1142,-1.1936,-1.2538,-1.2599,-1.2483,-1.2182,-1.1737,-1.1149,-1.0397,-0.9213,0.0,0.0,0.0,0.0,0.0,0.0,0.0,0.0,0.0,0.0,0.0,0.0,0.0,0.0,0.0,0.0,0.0,0.0,0.0,0.0,0.0,0.0,0.0,0.0,0.0,0.0,0.0,0.0,0.0,0.0,0.0,0.0,0.0,0.0,0.0,0.0,0.0,0.0,0.0,0.0,0.0,0.0,0.0,0.0,0.0,0.0,0.0,0.0,0.0,0.0,0.0,0.0,0.0,0.0,0.0,-1.0821,-1.0821,-1.0815,-1.0851,-1.0178,-0.9666,-0.924,0.0,0.0,0.0,0.0,0.0,0.0,0.0,0.0,0.0,0.0,0.0,0.0,0.0,0.0,0.0,0.0,0.0,0.0,0.0,0.0,0.0,0.0,0.0,0.0,0.0,-1.5226,-1.5021,0.0,0.0,0.0,0.0,0.0,0.0,0.0,0.0,0.0,0.0,0.0,0.0,-1.0597,-1.1521,-1.2277,-1.2837,-1.29,-1.2795,-1.2621,-1.2242,-1.1794,-1.1178,-1.0193,-0.9299,0.0,0.0,0.0,0.0,0.0,0.0,0.0,0.0,0.0,0.0,0.0,0.0,0.0,0.0,0.0,0.0,0.0,0.0,0.0,0.0,0.0,0.0,0.0,0.0,0.0,0.0,0.0,0.0,0.0,0.0,0.0,0.0,-0.6449,-0.622,0.0,0.0,0.0,0.0,0.0,0.0,0.0,0.0,0.0,0.0,0.0,0.0,0.0,0.0,-0.8675,-1.0137,-1.0825,-1.0732,-1.1992,-1.2616,-1.2729,-1.2729,-1.2901,-1.3067,-1.2953,0.0,-1.0448,-1.0371,0.0,0.0,0.0,0.0,0.0,0.0,0.0,0.0,0.0,0.0,0.0,0.0,0.0,0.0,0.0,0.0,0.0,0.0,0.0,0.0,0.0,0.0,-1.6215,-1.6323,-1.5817,-1.5124,0.0,-1.3005,-1.1335,-0.9467,0.0,0.0,0.0,0.0,0.0,0.0,0.0,0.0,-1.1234,-1.1976,-1.2515,-1.2858,-1.29,-1.2886,-1.2844,-1.2557,-1.2116,-1.1493,-1.1052,-1.0481,-0.9587,-0.9392,0.0,0.0,0.0,0.0,0.0,0.0,0.0,0.0,0.0,0.0,0.0,0.0,0.0,0.0,0.0,0.0,0.0,0.0,0.0,0.0,0.0,0.0,0.0,0.0,0.0,0.0,0.0,0.0,0.0,-0.6036,-0.6661,-0.607,-0.6581,-0.6623,0.0,0.0,0.0,0.0,0.0,0.0,0.0,0.0,0.0,-0.9606,-0.9905,-1.0443,-1.1278,-1.2326,-1.2742,-1.2671,-1.3441,-1.3774,-1.3774,-1.3774,-1.3868,-1.3956,-1.4044,-1.3619,-1.2859,-1.1857,-1.1378,-1.1154,0.0,0.0,0.0,0.0,0.0,0.0,-1.3627,0.0,0.0,0.0,0.0,0.0,0.0,0.0,0.0,0.0,0.0,0.0,0.0,0.0,0.0,-1.8288,-1.8359,-1.7886,-1.6598,-1.5534,-1.409,0.0,-1.1241,-1.0842,-0.9154,0.0,0.0,0.0,0.0,0.0,-1.1904,-1.251,-1.292,-1.3237,-1.3273,-1.3273,-1.3273,-1.2978,-1.2596,-1.2069,-1.1951,-1.1632,-1.102,-1.0737,-1.0228,0.0,0.0,0.0,0.0,0.0,0.0,0.0,0.0,0.0,0.0,0.0,0.0,0.0,0.0,0.0,0.0,0.0,0.0,0.0,0.0,0.0,0.0,0.0,0.0,0.0,0.0,0.0,0.0,-0.6687,-0.7189,-0.6067,-0.7203,-0.7438,0.0,0.0,0.0,0.0,0.0,0.0,-0.931,-0.9491,-1.0262,-1.1672,-1.1964,-1.255,-1.3471,-1.4054,-1.4205,-1.4211,-1.4488,-1.4624,-1.4624,-1.4624,-1.4624,-1.4715,-1.4813,-1.4904,-1.4799,-1.3328,-1.2792,-1.2705,-1.2051,-1.1879,0.0,-1.2284,-1.3185,-1.4455,-1.5771,-1.6894,-1.7825,-1.7706,0.0,-1.6738,-1.5196,0.0,0.0,0.0,0.0,-1.641,-1.7877,0.0,-1.8648,-1.9764,-2.0175,-1.9743,-1.8,-1.7324,-1.623,0.0,-1.3158,-1.2814,-1.0738,0.0,0.0,0.0,0.0,-1.1889,-1.2782,-1.3177,-1.344,-1.3601,-1.3623,-1.3587,-1.3506,-1.3272,-1.3027,-1.2743,-1.2755,-1.2653,-1.24,-1.2129,-1.172,0.0,0.0,0.0,0.0,0.0,0.0,0.0,0.0,0.0,0.0,0.0,0.0,0.0,0.0,0.0,0.0,0.0,0.0,0.0,0.0,0.0,0.0,0.0,0.0,0.0,0.0,0.0,0.0,0.0,0.0,-0.6573,-0.8272,0.0,0.0,0.0,0.0,-0.9082,-0.9552,-1.0196,-1.1224,-1.1644,-1.2427,-1.369,-1.3983,-1.4226,-1.4526,-1.5106,-1.516,-1.4976,-1.5263,-1.5399,-1.5399,-1.5399,-1.5501,-1.569,-1.5785,-1.5785,-1.5712,-1.4803,-1.4262,-1.3968,-1.3654,-1.3513,-1.3533,-1.3755,-1.4649,-1.573,-1.6191,-1.751,-1.9079,-1.9542,-1.9367,-1.892,-1.8835,-1.7843,0.0,0.0,-1.8508,-1.9116,-2.0603,-2.0424,-1.9961,-2.0477,-1.9991,-1.905,-1.8005,-1.7544,-1.6632,0.0,-1.3461,-1.2925,-1.2445,0.0,0.0,-1.235,-1.2694,-1.3148,-1.3821,-1.4194,-1.4282,-1.3989,-1.396,-1.3836,-1.3521,-1.3477,-1.3476,-1.3475,-1.3462,-1.3469,-1.345,-1.3607,-1.3121,-1.1878,-1.1668,0.0,0.0,0.0,0.0,0.0,0.0,0.0,0.0,0.0,0.0,0.0,0.0,0.0,0.0,0.0,0.0,0.0,0.0,0.0,0.0,0.0,0.0,0.0,0.0,0.0,0.0,0.0,0.0,-0.8085,-0.9445,0.0,0.0,-0.9852,-1.055,-1.1027,-1.1797,-1.2637,-1.3349,-1.3568,-1.4028,-1.4883,-1.4903,-1.5133,-1.5325,-1.5524,-1.5577,-1.5483,-1.5684,-1.5737,-1.5737,-1.5737,-1.573,-1.5832,-1.5832,-1.5832,-1.5805,-1.5491,-1.519,-1.4903,-1.4609,-1.4595,-1.4672,-1.4774,-1.5886,-1.7212,-1.7328,-1.8313,-1.9484,-1.9985,-2.0333,-2.0437,-2.0437,-2.007,-1.9714,-2.01,-2.0534,-2.1018,-2.1491,-2.0964,-2.0236,-2.0466,-1.9809,-1.887,-1.7921,-1.7644,-1.7157,-1.5767,-1.4831,-1.4018,-1.3272,-1.3228,-1.3258,-1.3162,-1.3426,-1.3799,-1.4238,-1.4399,-1.4421,-1.4304,-1.4106,-1.3931,-1.3821,-1.3426,-1.3057,-1.2878,-1.3427,-1.3727,-1.3528,-1.3827,-1.3777,-1.3315,-1.2453,-1.0982,0.0,0.0,0.0,0.0,0.0,0.0,0.0,0.0,0.0,0.0,0.0,0.0,0.0,0.0,0.0,0.0,0.0,0.0,0.0,0.0,0.0,0.0,0.0,0.0,0.0,0.0,-1.0498,-0.9319,-1.0713,-1.1471,-1.0594,-1.1581,-1.2479,-1.2845,-1.3749,-1.4402,-1.4796,-1.491,-1.5137,-1.5531,-1.5538,-1.5631,-1.5825,-1.5832,-1.5832,-1.5832,-1.5832,-1.5832,-1.5832,-1.5832,-1.5832,-1.5832,-1.5832,-1.5832,-1.5927,-1.5927,-1.5906,-1.5803,-1.5521,-1.5616,-1.5882,-1.5882,-1.6646,-1.7827,-1.8536,-1.9248,-2.0007,-2.0989,-2.1587,-2.1875,-2.1875,-2.1875,-2.1875,-2.1875,-2.1829,-2.1872,-2.1872,-2.1077,-2.0285,-2.0285,-1.9852,-1.9154,-1.8274,-1.8009,-1.7762,-1.6892,-1.5848,-1.5035,-1.4275,-1.4238,-1.4231,-1.4162,-1.4318,-1.4576,-1.4822,-1.4859,-1.4822,-1.464,-1.4435,-1.4216,-1.4004,-1.3484,-1.3189,-1.3266,-1.3704,-1.4091,-1.4249,-1.4101,-1.4007,-1.3917,-1.2666,-1.1519,-1.0326,0.0,0.0,0.0,0.0,0.0,0.0,0.0,0.0,0.0,0.0,0.0,0.0,0.0,0.0,0.0,0.0,0.0,0.0,0.0,0.0,0.0,0.0,0.0,-0.9502,-1.0878,-1.1439,-1.0212,-1.2178,-1.3235,-1.2296,-1.36,-1.4549,-1.4563,-1.509,-1.5411,-1.5411,-1.5678,-1.5832,-1.5832,-1.5832,-1.5832,-1.5832,-1.5832,-1.5832,-1.5832,-1.5832,-1.5832,-1.5832,-1.5832,-1.5832,-1.5832,-1.5832,-1.5927,-1.6224,-1.6224,-1.6407,-1.6588,-1.6312,-1.6508,-1.6979,-1.6979,-1.716,-1.7598,-1.9505,-2.0141,-2.0503,-2.2413,-2.3047,-2.3135,-2.3135,-2.3135,-2.3047,-2.3047,-2.2413,-2.1695,-2.1695,-2.0962,-2.0141,-2.0141,-2.0141,-1.9877,-1.8972,-1.8723,-1.8401,-1.7417,-1.6551,-1.584,-1.5511,-1.5196,-1.5058,-1.5285,-1.5365,0.0,-1.5696,-1.5733,-1.5539,-1.4992,-1.4948,-1.4692,-1.4062,-1.3763,-1.3909,-1.4675,-1.4281,-1.4532,-1.5654,-1.462,-1.3914,-1.3558,-1.2431,-1.2032,-1.2447,0.0,0.0,0.0,0.0,0.0,0.0,0.0,0.0,0.0,0.0,0.0,0.0,0.0,0.0,0.0,0.0,0.0,0.0,0.0,0.0,0.0,0.0,-1.168,-1.1127,-1.2234,-1.3101,-1.2977,-1.3926,-1.4562,-1.4504,-1.4913,-1.5244,-1.5458,-1.5618,-1.5712,-1.5712,-1.5785,-1.5832,-1.5832,-1.5832,-1.5832,-1.5832,-1.5832,-1.5832,-1.5832,-1.5832,-1.5832,-1.5832,-1.5832,-1.5832,-1.5832,-1.6028,-1.613,-1.6224,-1.6407,-1.6683,-1.6878,-1.6588,-1.669,-1.6979,-1.6979,-1.7613,-1.8334,-1.8149,-1.9513,-2.1239,-2.1051,-2.205,-2.3406,-2.3406,-2.3038,-2.258,-2.2403,-2.1784,-2.1168,-2.0988,-2.0257,-1.9704,-1.9704,-1.9163,-1.8627,-1.835,-1.828,-1.8218,-1.7949,-1.7425,-1.7024,-1.6684,-1.6556,-1.6413,-1.6263,0.0,0.0,-1.602,-1.6004,-1.5966,-1.5793,-1.5567,-1.5348,-1.5166,-1.4895,-1.4692,0.0,-1.4914,-1.5308,-1.5629,-1.5459,-1.5199,-1.483,-1.3562,-1.2959,0.0,0.0,0.0,0.0,0.0,0.0,0.0,0.0,0.0,0.0,0.0,0.0,0.0,0.0,0.0,0.0,0.0,0.0,0.0,0.0,0.0,0.0,-1.2835,-1.3411,-1.3495,-1.3811,-1.4168,-1.4583,-1.4937,-1.5257,-1.5545,-1.5578,-1.5651,-1.5812,-1.5832,-1.5832,-1.5832,-1.5832,-1.5832,-1.5832,-1.5952,-1.6012,-1.6012,-1.6139,-1.6199,-1.6199,-1.6199,-1.6199,-1.6296,-1.6296,-1.6393,0.0,-1.6691,-1.6794,-1.6877,-1.6936,-1.707,0.0,0.0,0.0,0.0,0.0,-1.7606,-1.8149,-1.8071,-1.9255,-2.0619,-2.052,-2.1427,-2.2422,-2.2422,-2.2148,-2.1784,-2.1596,-2.0979,-2.0357,-2.0175,-1.9538,-1.8896,-1.8896,-1.8542,-1.8087,-1.8087,-1.8187,-1.828,-1.828,0.0,0.0,-1.7889,-1.744,-1.7098,-1.7008,-1.6977,-1.6854,0.0,-1.646,-1.6323,-1.6102,-1.5912,-1.589,-1.6134,-1.5723,0.0,0.0,0.0,-1.5852,-1.567,0.0,0.0,0.0,0.0,0.0,0.0,0.0,0.0,0.0,-1.4531,-1.4661,0.0,0.0,0.0,0.0,0.0,0.0,0.0,0.0,0.0,0.0,0.0,0.0,0.0,0.0,0.0,0.0,-1.5026,-1.5277,-1.5891,-1.5241,-1.485,-1.5337,-1.5424,-1.5545,-1.5805,-1.5832,-1.5832,-1.5832,-1.5832,-1.5845,0.0,0.0,0.0,0.0,0.0,-1.6319,-1.6417,-1.6679,-1.6807,-1.6807,-1.6807,-1.6914,-1.712,-1.712,-1.732,-1.7619,-1.7612,-1.7718,-1.7896,-1.7609,-1.7681,-1.7838,-1.7203,-1.7153,-1.7326,-1.7326,-1.7426,0.0,0.0,0.0,0.0,-2.0546,-2.0898,-2.0988,-2.0988,-2.0988,-2.0898,-2.0898,-2.0175,-1.9446,-1.9355,-1.8812,-1.8179,-1.8179,-1.8179,-1.8179,-1.8179,-1.8381,-1.8574,-1.8574,-1.8651,-1.8827,-1.8827,-1.7944,-1.7355,-1.7595,-1.7588,0.0,-1.7017,-1.697,-1.6838,-1.6262,0.0,0.0,-1.6984,-1.6531,-1.663,-1.7801,-1.7156,-1.651,-1.6208,-1.637,-1.637,-1.6189,-1.6382,-1.6898,-1.7687,-1.8255,-1.8537,-1.8506,-1.7062,-1.6759,0.0,0.0,0.0,0.0,0.0,0.0,0.0,0.0,0.0,0.0,0.0,0.0,0.0,0.0,0.0,-1.4865,-1.5591,-1.6031,-1.5903,-1.5708,-1.5531,-1.5411,-1.5605,-1.5765,-1.5818,-1.5832,-1.5832,-1.5832,-1.5832,-1.5932,-1.6172,-1.6186,0.0,-1.6533,-1.6593,-1.6726,-1.6932,-1.6987,-1.712,-1.7413,0.0,0.0,-1.7519,-1.7519,-1.7512,-1.7619,-1.7818,-1.7818,-1.7917,-1.8043,-1.8112,-1.8152,-1.7465,-1.7239,-1.7326,-1.7527,-1.8179,-1.8819,-1.845,-1.9363,-2.0546,-1.9994,-2.0439,-2.1248,-2.1248,-2.0889,0.0,-2.0167,-1.9538,-1.892,-1.8751,-1.8651,-1.8643,-1.8643,-1.8643,-1.8643,-1.8643,-1.8743,-1.8743,-1.8743,-1.8735,-1.8827,-1.8827,-1.8624,-1.8435,-1.8158,-1.8111,-1.7984,-1.7628,-1.7676,-1.7454,-1.7122,-1.7654,-1.7977,-1.784,-1.8561,-1.902,-1.8899,-1.9023,-1.8946,-1.8486,-1.8824,-1.8844,-1.8475,-1.8541,-1.8647,-1.8806,-1.9272,-1.9557,-1.9479,-1.8847,-1.8771,0.0,0.0,0.0,0.0,0.0,0.0,0.0,0.0,0.0,0.0,0.0,-1.3549,0.0,0.0,-1.7124,-1.7797,-1.8102,-1.8024,-1.7675,-1.7037,-1.6337,-1.5725,-1.5745,-1.5832,-1.5832,-1.5832,-1.5832,-1.5832,-1.5965,-1.6119,-1.6266,-1.6413,-1.6659,-1.6907,-1.7056,-1.7238,-1.7542,-1.7694,-1.7872,-1.7967,-1.7967,-1.8076,-1.8295,-1.8295,-1.8288,-1.8491,-1.8593,-1.8593,-1.8578,-1.8714,-1.8743,-1.8671,-1.8334,-1.8104,-1.8001,-1.8311,-1.8578,-1.8902,-1.8621,-1.9063,-1.9646,-1.9271,-1.9546,-2.0085,-2.0085,-1.9812,-1.9538,-1.9363,-1.9088,-1.8743,-1.8651,-1.8743,-1.8912,-1.9455,-1.918,-1.892,-1.9455,-1.9188,-1.8827,-1.8827,-1.918,-1.9363,-1.892,-1.9188,-1.9298,-1.868,-1.8565,-1.8438,-1.8081,-1.8033,-1.8081,-1.8234,-1.8608,-1.9024,-1.9533,-2.011,-2.032,-1.9805,-2.0001,-1.9996,-1.9758,-1.9965,-1.9986,-1.9758,-1.9748,-1.9748,-1.9748,-2.0213,-2.0555,-2.0783,-2.0783,-2.0783,0.0,0.0,0.0,0.0,0.0,0.0,0.0,0.0,-1.1157,-1.2615,-1.3785,-1.5046,-1.6902,-1.8282,-1.9453,-2.0428,-2.0174,-1.972,-1.9306,-1.8064,-1.6864,-1.6015,-1.5832,-1.5825,-1.5832,-1.5832,-1.5852,-1.6007,-1.6236,-1.6424,-1.663,-1.6866,-1.7123,-1.7392,-1.7633,-1.7867,-1.8161,-1.8414,-1.8534,-1.8527,-1.8527,-1.875,-1.8974,-1.8974,-1.9078,-1.9279,-1.9376,-1.9376,-1.9354,-1.9388,-1.9328,-1.9292,-1.9391,-1.9285,-1.9064,-1.9147,-1.9023,-1.8785,-1.9065,-1.8989,-1.8762,-1.8862,-1.8931,-1.8915,-1.8851,-1.8827,-1.8827,-1.8827,-1.8827,-1.8827,-1.8827,-1.8827,-1.9004,-1.9812,-1.9363,-1.9004,-1.9803,-1.9538,-1.9096,-1.9096,-1.972,-2.0076,-1.9271,-1.972,-1.9803,-1.892,-1.8827,-1.8816,-1.8701,-1.866,-1.8879,-1.954,-1.9753,-2.0261,-2.1519,-2.1466,-2.1217,-2.0855,-2.0741,-2.0648,-2.0565,-2.0638,-2.0648,-2.0565,-2.0648,-2.0741,-2.0824,-2.1207,-2.1621,-2.2087,-2.2459,-2.2428,-0.8228,-0.8579,-0.9117,-0.9628,-1.0094,-1.0759,0.0,0.0,-1.3665,-1.5494,-1.6439,-1.7318,-1.8365,-1.9714,-2.0446,-1.9573,-1.951,-1.9298,-1.8603,-1.7419,-1.6676,-1.6487,-1.6109,-1.5927,-1.613,-1.5933,-1.6034,-1.6607,-1.6655,-1.7,-1.774,-1.7796,-1.7935,-1.8206,-1.8248,-1.8485,-1.8819,-1.8855,-1.8966,-1.9168,-1.9168,-1.9168,-1.9279,-1.9279,-1.9272,-1.9272,-1.9576,-1.968,-1.9672,-1.9937,-2.0002,-1.9972,-2.0295,-2.0302,-2.0225,-1.9712,-1.9462,-1.9423,-1.9707,-1.9781,-1.9701,-1.9407,-1.9312,-1.9248,-1.8931,-1.8827,-1.8827,-1.8827,-1.8827,-1.8827,-1.8827,-1.8827,-1.8827,-1.8912,-1.892,-1.8827,-1.8912,-1.9538,-2.0167,-2.0167,-2.0249,-2.0249,-2.0167,-1.9903,-1.9463,-1.892,-1.8827,-1.908,-1.9926,-2.0107,-2.0312,-2.0889,-2.1608,-2.2291,-2.2889,-2.2556,-2.2325,-2.2273,-2.188,-2.1466,-2.1052,-2.1435,-2.1455,-2.1041,-2.1445,-2.1859,-2.2263,-2.2315,-2.2573,-2.3039,-2.3091,-2.308,-0.9462,-0.9985,0.0,0.0,-1.1295,-1.2063,-1.2681,-1.3229,-1.4216,-1.644,-1.7111,-1.7742,-1.9179,-2.0416,-2.0992,0.0,-2.0515,-2.0249,-1.9513,-1.8342,-1.7333,-1.7052,-1.6581,-1.6211,-1.6224,-1.6211,-1.6436,-1.6655,-1.7029,-1.7413,-1.7946,-1.8135,-1.84,-1.8646,-1.8646,-1.8862,-1.9175,-1.9175,-1.9175,-1.9279,-1.9279,-1.9279,-1.9279,-1.9279,-1.9376,-1.9583,-1.9776,-1.999,-2.0205,-2.03,-2.0806,-2.1514,-2.1623,-2.2013,-2.2466,-2.157,-2.1131,-2.1039,-2.1801,-2.1944,-2.1735,-2.1749,-2.1284,-2.0814,-2.1169,-2.0785,-2.0257,-2.0257,-2.0257,-2.0175,-1.9737,-1.9646,-1.9828,-2.0357,-2.0357,-2.0257,-2.0439,-2.1051,-2.1391,-2.097,-2.1676,-2.2031,-2.106,-2.1141,-2.097,-1.9828,-1.992,-2.0266,-2.0619,-2.0979,-2.1444,-2.2235,-2.2883,-2.3347,-2.3598,-2.3163,-2.2904,-2.2904,-2.2718,-2.2522,-2.2325,-2.2511,-2.2522,-2.2325,-2.2511,-2.2708,-2.2904,-2.2904,-2.3143,-2.3588,-2.3752,-2.397,-1.0316,0.0,0.0,-1.1616,-1.239,-1.3218,-1.322,-1.3634,-1.4621,-1.6746,-1.7159,-1.7504,-1.9021,-2.0386,0.0,-2.09,-2.0989,-2.0782,-2.024,-1.8888,-1.7707,-1.7326,-1.6958,-1.6683,-1.6407,-1.6501,-1.6756,-1.6967,-1.7386,-1.7781,-1.8285,-1.8511,-1.875,-1.8974,-1.8974,-1.9078,-1.9279,-1.9279,-1.9279,-1.9279,-1.9376,-1.9376,-1.9376,-1.948,-1.9576,-1.9783,-2.0086,-2.0498,-2.0909,-2.1019,-2.1818,-2.292,-2.302,-2.3511,-2.4187,-2.3701,-2.3224,-2.2788,-2.356,-2.3647,-2.3474,-2.3627,-2.3122,-2.251,-2.3107,-2.2509,-2.1635,-2.1518,-2.132,-2.1121,-2.0663,-2.0464,-2.0555,-2.1338,-2.1338,-2.1168,-2.1516,-2.2031,-2.2366,-2.2031,-2.2999,-2.3444,-2.2217,-2.2296,-2.2208,-2.1257,-2.1445,-2.1615,-2.1516,-2.2129,-2.2921,-2.3617,-2.406,-2.4221,-2.4221,-2.3804,-2.3462,-2.3462,-2.3338,-2.3184,-2.3184,-2.3265,-2.3265,-2.3265,-2.3335,-2.3398,-2.3533,-2.3533,-2.3762,-2.4221,-2.4388,-2.464,0.0,0.0,-1.1991,-1.264,-1.338,-1.4122,-1.4402,-1.4703,-1.528,-1.6602,-1.68,-1.6984,-1.7509,-1.9366,-2.0683,-1.9965,-2.009,-2.0232,-2.0232,-1.8511,-1.7326,-1.7326,-1.7333,-1.7239,0.0,-1.6777,-1.6936,-1.7761,-1.7917,-1.829,-1.9228,-1.9272,-1.9279,-1.9279,-1.9279,-1.9272,-1.9279,-1.9279,-1.9279,-1.9279,-1.9576,-1.968,-1.968,-1.9983,-2.0078,-2.0078,-2.0403,-2.1105,-2.2089,-2.2316,-2.3111,-2.4088,-2.4393,-2.4492,-2.4581,-2.5848,-2.545,-2.4473,-2.4473,-2.4632,-2.4723,-2.4412,-2.4269,-2.4184,-2.3897,-2.3224,-2.2487,-2.2079,-2.1446,-2.1015,-2.1167,-2.0817,-2.0464,-2.1159,-2.0808,-2.0555,-2.1159,-2.2031,-2.2911,-2.3617,-2.38,-2.379,-2.3704,-2.2736,-2.2217,-2.2921,-2.3212,-2.3222,-2.2746,-2.4059,-2.5105,-2.5115,-2.5179,-2.5179,-2.5179,-2.4514,-2.4189,-2.4189,-2.3596,-2.3184,-2.3184,-2.3426,-2.3507,-2.3507,-2.3716,-2.4009,-2.4466,-2.4466,-2.4711,-2.5179,-2.5179,-2.5189,-1.1744,0.0,-1.3186,-1.3774,-1.4302,-1.4743,-1.5037,-1.503,-1.5369,-1.6623,-1.6242,-1.5958,-1.6822,-1.8269,-1.9356,-1.9436,-1.9624,-1.9869,-2.0198,-1.8511,-1.7326,-1.7326,-1.7326,0.0,0.0,0.0,0.0,-1.7573,-1.7894,-1.8396,-1.8928,-1.9162,-1.9279,-1.9279,-1.9279,-1.9279,-1.9279,-1.9279,-1.9376,-1.9583,-1.9879,-1.9983,-1.9983,-2.0197,-2.0696,-2.1489,-2.1895,-2.2693,-2.3683,-2.3971,-2.466,-2.5644,-2.5751,-2.6244,-2.6914,-2.7305,-2.7305,-2.702,-2.6924,-2.6914,-2.6968,-2.7013,-2.6484,-2.5939,-2.6433,-2.5889,-2.5068,-2.4917,-2.4696,-2.4325,-2.3633,-2.3258,-2.3102,-2.2989,-2.3183,-2.328,-2.3008,-2.3963,-2.4754,-2.4594,-2.485,-2.502,-2.4594,-2.4155,-2.3973,-2.4241,-2.4251,-2.4251,-2.4317,-2.485,-2.52,-2.52,-2.52,-2.52,-2.52,-2.4978,-2.4893,-2.4893,-2.4661,-2.4493,-2.4493,-2.4566,-2.4649,-2.4649,-2.4721,-2.4796,-2.4955,-2.4955,-2.5041,-2.52,-2.538,-2.5475,-1.2752,-1.3427,-1.3968,-1.4663,-1.4977,-1.5164,-1.5351,-1.5251,-1.5348,-1.5903,-1.5382,-1.5007,-1.565,-1.6887,-1.8006,-1.8532,-1.8948,-1.9417,-2.0146,-1.8872,-1.7878,-1.7878,-1.7878,0.0,0.0,0.0,0.0,-1.7512,-1.8018,-1.8445,-1.8774,-1.9096,-1.9279,-1.9279,-1.9279,-1.9279,-1.9279,-1.9376,-1.9583,-1.999,-2.0197,-2.0292,-2.0395,-2.1105,-2.17,-2.2383,-2.3276,-2.4168,-2.5168,-2.5344,-2.6021,-2.701,-2.7115,-2.7505,-2.8186,-2.8279,-2.8384,-2.8488,-2.829,-2.8186,-2.8279,-2.8477,-2.7993,-2.7458,-2.8104,-2.7602,-2.6767,-2.6609,-2.6375,-2.5999,-2.5355,-2.4984,-2.4725,-2.4696,-2.4908,-2.4954,-2.4518,-2.5188,-2.5668,-2.5327,-2.5644,-2.5728,-2.5295,-2.5295,-2.5211,-2.4946,-2.4946,-2.5105,-2.538,-2.5464,-2.5464,-2.5464,-2.5464,-2.5464,-2.5464,-2.538,-2.538,-2.538,-2.5285,-2.52,-2.52,-2.5285,-2.538,-2.538,-2.538,-2.5464,-2.5464,-2.5464,-2.5464,-2.5454,-2.5644,-2.5738,-1.352,-1.3915,-1.4355,-1.5204,-1.5404,-1.5398,-1.5398,-1.5351,-1.5154,-1.445,-1.4241,-1.4062,0.0,0.0,-1.6614,-1.7334,-1.7962,-1.8812,-2.0078,-1.9513,-1.8888,0.0,0.0,0.0,0.0,0.0,0.0,-1.7912,0.0,-1.8445,-1.8774,-1.9096,-1.9279,-1.9279,-1.9272,-1.9272,-1.9272,-1.9576,-2.0005,-2.0545,-2.0648,-2.0743,-2.1043,-2.2443,-2.3038,-2.3211,-2.4393,-2.5577,-2.6562,-2.6562,-2.7136,-2.8092,-2.829,-2.8395,-2.8488,-2.8757,-2.885,-2.8757,-2.8571,-2.8664,-2.8757,-2.8757,-2.8757,-2.8757,-2.8757,-2.8269,-2.7599,-2.7167,-2.6589,-2.6104,-2.6281,-2.5906,-2.5553,-2.6225,-2.5875,-2.5411,-2.569,-2.5683,-2.572,-2.5942,-2.5917,-2.5895,-2.5895,-2.5895,-2.5644,-2.5031,-2.5464,-2.5895,-2.5895,-2.5895,-2.5895,-2.5895,-2.5895,-2.5895,-2.5895,-2.5738,-2.5654,-2.5654,-2.538,-2.52,-2.52,-2.5475,-2.5654,-2.5654,-2.5812,-2.5895,-2.5895,-2.5895,-2.5895,-2.5895,-2.5895,-2.5895,-1.4075,-1.4669,-1.5164,-1.5611,-1.5558,-1.5398,-1.5398,-1.4723,-1.3961,-1.3676,-1.303,-1.2459,0.0,0.0,0.0,-1.7243,-1.8823,0.0,-2.1203,-2.0512,0.0,0.0,0.0,-2.039,-2.0376,-1.975,0.0,0.0,-1.8731,-1.8445,-1.8774,-1.9096,-1.9279,-1.9279,-1.948,-1.9576,-1.9576,-2.0101,-2.0535,-2.088,-2.2001,-2.2621,-2.2826,-2.4422,-2.5503,-2.6113,-2.6943,-2.7723,-2.8434,-2.8615,-2.8686,-2.856,-2.8664,-2.8664,-2.8757,-2.9209,-2.9301,-2.9393,-2.9669,-2.9301,-2.8757,-2.8757,-2.8757,-2.8757,-2.8757,-2.8653,-2.8434,-2.8408,-2.819,-2.7989,-2.7608,-2.7398,-2.7312,-2.7125,-2.695,-2.6829,-2.6887,-2.6866,-2.6813,-2.6443,-2.6147,-2.5895,-2.5895,-2.5895,-2.5812,-2.5644,-2.5812,-2.5895,-2.5895,-2.5895,-2.5895,-2.5895,-2.5895,-2.5895,-2.5895,-2.5812,-2.5812,-2.5812,-2.5728,-2.5728,-2.5728,-2.5812,-2.5812,-2.5812,-2.5895,-2.5895,-2.5895,-2.5895,-2.5895,-2.5895,-2.5895,-2.5895,-1.4736,-1.5237,-1.5625,-1.5792,-1.5611,-1.5349,-1.5177,-1.442,-1.3752,-1.3345,-1.2809,0.0,0.0,0.0,0.0,0.0,0.0,0.0,-2.1502,-2.1383,-2.1207,0.0,-2.1698,0.0,-2.1518,-2.0971,-2.0467,0.0,-1.9094,-1.8591,-1.8782,-1.9096,-1.9376,-1.948,-1.9576,-2.0155,-2.1012,-2.133,-2.2026,-2.2992,-2.3911,-2.4427,-2.4539,-2.6197,-2.7191,-2.7669,0.0,-2.9242,-2.9601,-2.9767,-2.9692,-2.9427,-2.9379,-2.9393,-2.9485,-2.9669,-2.9852,-2.9852,-3.0125,-2.9852,-2.9393,-2.9393,-2.9393,-2.9393,-2.9209,-2.9117,-2.9024,-2.885,-2.8757,-2.8784,-2.8693,-2.8536,-2.8379,-2.8274,-2.8118,-2.7883,-2.7676,-2.7632,-2.749,-2.702,-2.6551,-2.6223,-2.6223,-2.6037,-2.5895,-2.5895,-2.5895,-2.5895,-2.5895,-2.5895,-2.5895,-2.5895,-2.5895,-2.5895,-2.5895,-2.5895,-2.5895,-2.5895,-2.5895,-2.5895,-2.5895,-2.5895,-2.5895,-2.5895,-2.5895,-2.5895,-2.5895,-2.5895,-2.5895,-2.5895,-2.5895,-2.5895,-1.5541,-1.5732,-1.5818,-1.5785,-1.5611,-1.5328,-1.481,-1.4416,-1.3955,-1.3113,0.0,-1.2804,-1.2763,-1.3832,-1.523,-1.6598,0.0,-1.9519,-2.1595,-2.2215,-2.2492,-2.2547,-2.3001,-2.2988,-2.217,-2.1979,-2.1636,-2.099,-2.0031,-1.9246,-1.8949,-1.9324,-1.9783,-2.0181,-2.0331,-2.1203,-2.3057,-2.3203,-2.4041,-2.5598,-2.6088,-2.6285,-2.6387,-2.7884,-2.86,-2.8649,0.0,0.0,-3.0373,-3.051,-3.0487,-3.0375,-3.0331,-3.0319,-3.0308,-3.0329,-3.0306,-3.0306,-3.0397,-3.0397,-3.0397,-3.0216,-3.0216,-3.0125,-2.976,-2.9577,-2.9485,-2.9128,-2.9035,-2.9117,-2.9485,-2.9301,-2.9117,-2.9485,-2.9301,-2.8822,-2.8404,-2.8261,-2.8085,-2.7657,-2.7119,-2.6812,-2.6812,-2.6321,-2.5994,-2.5994,-2.5939,-2.5895,-2.5895,-2.5895,-2.5895,-2.5895,-2.5895,-2.5895,-2.5895,-2.5895,-2.5895,-2.5895,-2.5895,-2.5895,-2.5895,-2.5895,-2.5895,-2.5895,-2.5895,-2.5895,-2.5895,-2.5895,-2.5895,-2.5895,-2.5895,-2.5895,-1.6807,-1.6445,-1.5772,-1.5724,-1.5763,-1.5589,-1.475,-1.429,0.0,0.0,0.0,-1.2032,-1.187,-1.3608,-1.56,-1.7279,0.0,0.0,0.0,0.0,-2.3635,0.0,0.0,0.0,0.0,0.0,0.0,0.0,0.0,0.0,-1.9693,-2.0451,-2.1582,-2.2985,-2.3402,-2.391,-2.449,-2.5014,-2.5683,-2.6206,-2.7565,-2.8184,-2.8389,-2.994,-3.0542,-3.0478,0.0,0.0,-3.1482,-3.1871,-3.1876,-3.1453,-3.1031,-3.0836,-3.0882,-3.0831,-3.0769,-3.0847,-3.1306,-3.1484,-3.1294,-3.0487,-3.0216,-3.0216,-3.0125,-3.0034,-3.0034,-2.9943,-2.9943,-2.9943,-3.0034,-3.0034,-2.9943,-3.0034,-3.0034,-2.992,-2.9829,-2.9476,-2.9247,-2.9155,-2.8406,-2.7819,-2.7819,-2.7072,-2.6507,-2.6507,-2.6157,-2.5895,-2.5895,-2.5895,-2.5895,-2.5895,-2.5895,-2.5895,-2.5895,-2.5895,-2.5895,-2.5895,-2.5895,-2.5895,-2.5895,-2.5895,-2.5895,-2.5895,-2.5895,-2.5895,-2.5895,-2.5895,-2.5895,-2.5895,-2.5895,-2.5895,-1.8271,-1.8133,-1.768,-1.7447,-1.7121,-1.6621,-1.5404,0.0,0.0,0.0,-1.2796,-1.265,-1.2452,-1.3772,0.0,0.0,0.0,0.0,0.0,0.0,0.0,0.0,0.0,0.0,0.0,0.0,0.0,0.0,0.0,0.0,-2.1692,-2.2181,-2.2885,-2.3692,-2.4281,-2.5108,-2.6237,-2.6753,-2.7594,-2.8665,-2.9508,-3.0034,-3.0137,-3.1294,-3.1792,-3.1672,0.0,0.0,-3.2472,-3.2799,-3.2727,-3.2555,-3.223,-3.2064,-3.1793,-3.1739,-3.1556,-3.1395,-3.1572,-3.1661,-3.1661,-3.1116,-3.0937,-3.0937,-3.0668,-3.0578,-3.0487,-3.0306,-3.0216,-3.0216,-3.0487,-3.0397,-3.0216,-3.0487,-3.0397,-3.0216,-3.0216,-3.0021,-2.9848,-2.9848,-2.9269,-2.8839,-2.8839,-2.8268,-2.7768,-2.7768,-2.7566,-2.7234,-2.6712,-2.6594,-2.6411,-2.5928,-2.5895,-2.5895,-2.5895,-2.5895,-2.5895,-2.5895,-2.5895,-2.5895,-2.5895,-2.5895,-2.5895,-2.5895,-2.5895,-2.5895,-2.5895,-2.5895,-2.5895,-2.5895,-2.5895,-2.6037,-1.9437,-1.9612,-1.9389,-1.896,-1.8394,-1.7595,-1.6042,-1.5232,0.0,0.0,-1.3372,-1.3409,-1.3314,0.0,-1.506,0.0,-1.7302,0.0,0.0,0.0,0.0,0.0,0.0,0.0,0.0,0.0,0.0,0.0,0.0,0.0,0.0,-2.3989,-2.4322,-2.4702,-2.5314,-2.6449,-2.8026,-2.8563,-2.9497,-3.0931,-3.1127,-3.1322,-3.1527,-3.2117,-3.2409,-3.2622,0.0,0.0,0.0,-3.3508,-3.3526,-3.3575,-3.3457,-3.3128,-3.2659,-3.2539,-3.2142,-3.1661,-3.1661,-3.1661,-3.1661,-3.1661,-3.1661,-3.1661,-3.1217,-3.1038,-3.1038,-3.0668,-3.0487,-3.0578,-3.0949,-3.0769,-3.0578,-3.0937,-3.0758,-3.0487,-3.0487,-3.0487,-3.0487,-3.0487,-3.0163,-2.9796,-2.9796,-2.9305,-2.8971,-2.8971,-2.8879,-2.85,-2.7736,-2.7595,-2.7375,-2.6583,-2.6184,-2.5895,-2.5895,-2.5895,-2.5895,-2.5895,-2.5895,-2.5895,-2.5895,-2.5895,-2.5895,-2.5895,-2.5895,-2.5895,-2.5895,-2.5895,-2.595,-2.6059,-2.6059,-2.631,-2.0043,-1.9869,-1.9331,-1.8821,-1.868,-1.8062,-1.6066,0.0,0.0,-1.3699,-1.3467,-1.3563,-1.3573,-1.3986,-1.4903,-1.6698,0.0,-1.9036,0.0,0.0,0.0,0.0,0.0,0.0,0.0,0.0,0.0,0.0,0.0,0.0,0.0,-2.5373,-2.6249,-2.7939,-2.8385,-2.9053,-2.9838,-3.0508,-3.0981,-3.1127,-3.1424,-3.1823,-3.2308,-3.242,-3.2622,-3.3147,0.0,0.0,0.0,-3.4471,-3.4654,-3.4606,-3.4078,-3.3669,-3.3152,-3.2671,-3.2142,-3.1661,-3.1661,-3.1661,-3.1661,-3.1661,-3.1661,-3.1661,-3.1661,-3.1661,-3.1661,-3.1572,-3.1572,-3.1572,-3.1661,-3.1572,-3.1572,-3.1661,-3.1572,-3.1572,-3.1572,-3.1572,-3.1572,-3.1572,-3.1169,-3.0777,-3.0777,-2.9989,-2.9477,-2.9477,-2.9097,-2.881,-2.8666,-2.8654,-2.8643,-2.8511,-2.693,-2.5895,-2.5895,-2.5895,-2.5895,-2.5895,-2.5895,-2.5895,-2.5895,-2.5895,-2.5895,-2.5895,-2.5895,-2.5895,-2.5895,-2.5895,-2.6125,-2.6562,-2.6562,-2.6813,-2.0959,-2.1284,-2.119,-2.0725,-2.033,-1.9512,-1.7392,0.0,-1.6105,-1.469,-1.4455,-1.4501,-1.4501,-1.4667,-1.5143,-1.617,-1.6586,-1.755,-1.9665,-2.1133,-2.257,0.0,0.0,0.0,0.0,0.0,0.0,0.0,0.0,0.0,0.0,-2.7105,-2.7641,-2.841,-2.9236,-2.9923,-3.0317,-3.089,-3.1424,-3.1924,-3.2015,-3.2319,-3.2935,-3.3235,-3.3434,-3.3744,0.0,0.0,0.0,-3.4726,-3.4823,-3.4811,-3.4595,-3.4198,-3.3681,-3.3164,-3.2635,-3.2118,-3.1781,-3.1661,-3.1661,-3.1661,-3.1661,-3.1661,-3.1661,-3.1661,-3.1661,-3.1661,-3.1661,-3.1661,-3.1661,-3.1661,-3.1661,-3.1661,-3.1661,-3.1661,-3.1661,-3.1661,-3.1661,-3.1661,-3.1484,-3.1395,-3.1395,-3.1039,-3.0808,-3.0808,-3.0643,-3.0307,-2.9729,-2.9607,-2.9404,-2.8856,-2.7572,-2.6723,-2.6723,-2.6228,-2.5895,-2.5895,-2.5895,-2.5895,-2.5895,-2.6724,-2.7205,-2.7205,-2.7414,-2.79,-2.85,-2.7327,-2.7094,-2.7865,-2.7865,-2.8136,-2.141,-2.2189,-2.2509,-2.2079,-2.1446,-2.0427,0.0,-1.7522,-1.6695,-1.5453,-1.5187,-1.5187,-1.5187,-1.5187,-1.5372,-1.5879,-1.6199,-1.7036,-1.8827,-2.0328,-2.1893,0.0,0.0,0.0,0.0,0.0,0.0,0.0,0.0,0.0,0.0,0.0,-2.8815,-2.8815,-2.97,-3.0381,-3.0813,-3.1353,-3.1823,-3.2409,-3.2521,-3.2935,-3.3446,-3.3843,-3.404,0.0,0.0,0.0,0.0,-3.4823,-3.4823,-3.4823,-3.4823,-3.4499,-3.3994,-3.3645,-3.3176,-3.2659,-3.2094,-3.1913,-3.1889,-3.1721,-3.1661,-3.1661,-3.1661,-3.1661,-3.1661,-3.1661,-3.1661,-3.1661,-3.1661,-3.1661,-3.1661,-3.1661,-3.1661,-3.1661,-3.1661,-3.1661,-3.1661,-3.1661,-3.1661,-3.1661,-3.1661,-3.1661,-3.1661,-3.1661,-3.1661,-3.1428,-3.0707,-3.0834,-3.0691,-2.9977,-2.9277,-2.8468,-2.7844,-2.7335,-2.6976,-2.6745,-2.6903,-2.6987,-2.6987,-2.8027,-2.8619,-2.8619,-2.9054,-2.9581,-3.0193,-2.8924,-2.866,-2.9304,-2.9304,-2.9596,-2.1081,-2.2069,-2.2667,-2.2292,-2.1471,-2.036,0.0,-1.7861,-1.6837,-1.5659,-1.5389,-1.5389,-1.5389,-1.5389,-1.5564,-1.6045,-1.6907,-1.8185,-2.0023,-2.1548,0.0,0.0,0.0,0.0,0.0,0.0,0.0,0.0,0.0,0.0,0.0,0.0,-2.9785,-2.9785,-3.0259,-3.0835,-3.1607,-3.2117,-3.2409,-3.242,-3.2935,-3.3446,-3.3941,-3.404,0.0,0.0,0.0,0.0,0.0,-3.4823,-3.4823,-3.4823,-3.4823,-3.4499,-3.4042,-3.403,-3.3717,-3.32,-3.2671,-3.2491,-3.2394,-3.1841,-3.1661,-3.1661,-3.1661,-3.1661,-3.1661,-3.1661,-3.1661,-3.1661,-3.1661,-3.1661,-3.1661,-3.1661,-3.1661,-3.1661,-3.1661,-3.1661,-3.1661,-3.1661,-3.1661,-3.1661,-3.1661,-3.1661,-3.1661,-3.1661,-3.1661,-3.1661,-3.1661,-3.2264,-3.2698,-3.2698,-3.2406,-3.1341,-2.9016,-2.9362,-2.952,-2.8798,-2.9203,-2.9447,-2.9447,-2.9942,-3.0193,-3.0193,-3.0335,-3.0431,-3.0193,-3.0348,-3.0615,-3.0905,-3.0905,-3.1084,-1.9412,-2.0257,-2.0874,-2.0398,-2.0012,-1.9383,-1.8344,-1.782,-1.7313,-1.6567,-1.6423,-1.6423,-1.6423,-1.6423,-1.6871,-1.8277,-1.9096,-2.0067,0.0,0.0,0.0,0.0,0.0,0.0,0.0,0.0,0.0,0.0,0.0,0.0,0.0,0.0,-2.9946,-2.9774,-3.1052,-3.1961,-3.2117,-3.2633,-3.3135,-3.3534,-3.3645,-3.404,-3.4531,-3.4531,0.0,0.0,0.0,0.0,0.0,-3.5017,-3.5223,-3.532,-3.532,-3.5222,-3.5027,-3.4661,-3.4686,-3.4718,-3.4198,-3.4257,-3.4413,-3.3859,-3.367,-3.3607,-3.323,-3.2438,-3.1661,-3.1661,-3.1661,-3.1661,-3.1661,-3.1661,-3.1661,-3.1661,-3.2013,-3.2276,-3.1837,-3.2438,-3.2945,-3.245,-3.2785,-3.3031,-3.3031,-3.3031,-3.3031,-3.3031,-3.3031,-3.3031,-3.3031,-3.3202,-3.3373,-3.3373,-3.3714,-3.3174,-3.1366,-3.0793,-3.0406,-3.0169,-3.0335,-3.0335,-3.0181,-3.1357,-3.1984,-3.183,-3.2432,-3.2969,-3.3576,-3.2356,-3.2018,-3.2546,-3.2546,-3.2902,0.0,-1.9936,-2.0439,-2.0112,-1.9817,-1.9454,-1.8783,-1.8435,-1.8094,-1.7595,-1.7516,-1.7434,-1.7282,-1.724,-1.7648,-1.8846,-1.9724,0.0,0.0,0.0,0.0,0.0,0.0,0.0,0.0,0.0,0.0,0.0,0.0,0.0,0.0,0.0,-3.1077,-3.0986,-3.1909,-3.263,-3.3201,-3.3434,-3.3831,-3.4409,-3.4335,-3.4531,-3.4932,0.0,0.0,0.0,0.0,0.0,0.0,-3.532,-3.5416,-3.562,-3.562,-3.5787,-3.6106,-3.5756,-3.5898,-3.6259,-3.5814,-3.5699,-3.5698,-3.5133,-3.4953,-3.4889,-3.4443,-3.3444,-3.2438,-3.2438,-3.2438,-3.2438,-3.2438,-3.2438,-3.2438,-3.2438,-3.2785,-3.2957,-3.2525,-3.3116,-3.3556,-3.3129,-3.3386,-3.3713,-3.3713,-3.3713,-3.3713,-3.3713,-3.3713,-3.3713,-3.3713,-3.3882,-3.405,-3.405,-3.4716,-3.464,-3.3684,-3.2803,-3.2187,-3.1951,-3.2021,-3.2117,-3.1964,-3.3135,-3.3671,-3.3519,-3.4092,-3.462,-3.5086,-3.3927,-3.3577,-3.4011,-3.4011,-3.4191,0.0,-2.0599,-2.0926,-2.0888,-2.0536,-2.0114,-1.985,-1.9405,0.0,-1.8588,-1.85,-1.8372,-1.8071,-1.7963,-1.803,-1.8403,0.0,0.0,0.0,0.0,0.0,0.0,0.0,0.0,0.0,0.0,0.0,0.0,0.0,0.0,0.0,0.0,0.0,-3.3076,-3.2795,-3.32,-3.4423,-3.4252,-3.4569,-3.5355,-3.509,-3.5199,-3.5404,0.0,0.0,0.0,0.0,0.0,0.0,-3.58,-3.5787,-3.5895,-3.5895,-3.6414,-3.7204,-3.7204,-3.7481,-3.786,-3.7411,-3.6882,-3.6457,-3.5889,-3.5683,-3.5644,-3.5644,-3.4796,-3.3777,-3.3777,-3.3738,-3.3713,-3.3713,-3.3713,-3.3713,-3.3713,-3.3713,-3.3797,-3.3713,-3.3797,-3.3797,-3.3797,-3.3797,-3.3882,-3.3882,-3.3882,-3.3882,-3.3882,-3.3882,-3.3882,-3.3882,-3.4384,-3.4799,-3.4799,-3.5304,-3.571,-3.571,-3.5127,-3.4468,-3.3882,-3.4217,-3.4481,-3.4481,-3.4908,-3.5154,-3.5086,-3.5318,-3.5318,-3.5154,-3.5154,-3.5154,-3.5086,-3.5086,-3.503,-2.0198,0.0,-1.9462,-1.9068,-1.8863,-1.8769,0.0,-1.8731,-1.8604,-1.8542,-1.85,-1.8756,-1.9656,-1.9363,-1.9682,0.0,0.0,0.0,0.0,0.0,0.0,0.0,0.0,0.0,0.0,0.0,0.0,0.0,0.0,0.0,0.0,0.0,0.0,-3.362,-3.3895,-3.4417,-3.5177,-3.5481,-3.616,-3.7204,-3.7111,-3.7284,-3.7612,0.0,0.0,0.0,0.0,0.0,-3.8017,-3.8017,-3.8198,-3.8302,-3.8302,-3.8482,-3.8662,-3.8662,-3.9006,-3.9346,-3.9297,-3.9196,-3.8952,-3.8021,-3.745,-3.7002,-3.7002,-3.5785,-3.4353,-3.4353,-3.4046,-3.3713,-3.3713,-3.3713,-3.3713,-3.3713,-3.405,-3.4301,-3.3797,-3.4551,-3.5046,-3.4551,-3.4881,-3.5209,-3.5209,-3.5209,-3.5209,-3.5209,-3.5209,-3.5209,-3.5209,-3.5386,-3.5467,-3.5467,-3.5629,-3.571,-3.571,-3.5548,-3.5386,-3.5209,-3.5304,-3.5304,-3.5154,-3.5399,-3.548,-3.5318,-3.5562,-3.5642,-3.5562,-3.5562,-3.548,-3.5318,-3.5318,-3.5477,-2.0565,-2.0429,-2.0203,-1.9926,-1.9839,-1.9879,-1.9972,-1.9508,-1.9035,-1.9035,0.0,0.0,0.0,0.0,0.0,0.0,0.0,0.0,0.0,0.0,0.0,0.0,0.0,0.0,0.0,0.0,0.0,0.0,0.0,0.0,0.0,0.0,0.0,0.0,-3.5094,-3.5647,-3.6146,-3.6431,-3.7077,-3.8172,-3.8053,-3.8262,-3.8608,0.0,0.0,0.0,0.0,0.0,-3.9006,-3.9006,-3.9108,-3.921,-3.921,-3.9461,-3.9812,-3.9812,-4.0187,-4.056,-4.056,-4.0315,-3.9853,-3.9363,-3.8787,-3.8355,-3.8355,-3.7391,-3.6339,-3.5976,-3.5687,-3.5437,-3.5437,-3.5239,-3.5028,-3.5028,-3.508,-3.5046,-3.4716,-3.5209,-3.5548,-3.5209,-3.5467,-3.571,-3.571,-3.571,-3.571,-3.571,-3.571,-3.571,-3.571,-3.571,-3.571,-3.571,-3.571,-3.571,-3.571,-3.571,-3.571,-3.571,-3.571,-3.5642,-3.5562,-3.5642,-3.5642,-3.5562,-3.5642,-3.5859,-3.6117,-3.6117,-3.6184,-3.6385,-3.6385,-3.6394,-2.1328,-2.1791,-2.2152,-2.168,-2.1801,-2.2007,-2.1771,-2.0873,0.0,0.0,0.0,0.0,0.0,0.0,0.0,0.0,0.0,0.0,0.0,0.0,0.0,0.0,0.0,0.0,0.0,0.0,0.0,0.0,0.0,0.0,0.0,0.0,0.0,0.0,-3.6218,-3.6699,-3.7077,-3.7057,-3.7705,-3.8844,-3.8776,-3.8884,-3.9258,-3.9258,0.0,0.0,0.0,0.0,-3.9651,-3.9651,-3.9651,-3.9651,-3.9651,-4.0087,-4.0873,-4.0873,-4.1085,-4.148,-4.1396,-4.0873,-4.017,-4.0083,-3.9733,-3.9394,-3.9305,-3.8952,-3.845,-3.7948,-3.7677,-3.7528,-3.7528,-3.7134,-3.6741,-3.6741,-3.6361,-3.5995,-3.5995,-3.5995,-3.5995,-3.5995,-3.5995,-3.5995,-3.5995,-3.5995,-3.5995,-3.5995,-3.5995,-3.5995,-3.5995,-3.5995,-3.5995,-3.5995,-3.5995,-3.5995,-3.5995,-3.5995,-3.5995,-3.5995,-3.5818,-3.571,-3.571,-3.5805,-3.5859,-3.5859,-3.594,-3.6239,-3.6741,-3.6741,-3.7012,-3.7528,-3.7528,-3.7497,-2.2785,-2.3971,-2.4078,-2.1629,-2.237,-2.3311,-2.2075,-2.1838,-2.1932,0.0,0.0,0.0,0.0,0.0,0.0,0.0,0.0,0.0,0.0,0.0,0.0,0.0,0.0,0.0,0.0,0.0,0.0,0.0,0.0,0.0,0.0,0.0,0.0,0.0,0.0,-3.7077,-3.7494,-3.7704,-3.8529,-4.0148,-4.0067,-4.0658,-4.1633,-4.1633,-4.1633,0.0,0.0,-4.1633,-4.1633,-4.1633,-4.1633,-4.1633,-4.1633,-4.1731,-4.1897,-4.1897,-4.1912,-4.1926,-4.1564,-4.1311,-4.1043,-4.0257,-3.9908,-3.9821,-3.9394,-3.9237,-3.9142,-3.9061,-3.8315,-3.7528,-3.7528,-3.746,-3.7392,-3.7392,-3.7324,-3.7256,-3.7256,-3.7256,-3.7256,-3.7256,-3.7256,-3.7256,-3.7256,-3.7256,-3.7256,-3.7256,-3.7256,-3.7256,-3.7256,-3.7256,-3.7256,-3.7256,-3.7256,-3.7256,-3.7256,-3.7256,-3.7256,-3.7256,-3.6293,-3.571,-3.571,-3.6198,-3.6456,-3.6456,-3.6985,-3.7297,-3.7392,-3.7392,-3.7446,-3.7528,-3.7528,-3.7714,-2.2406,-2.3677,-2.4597,-2.3144,-2.434,-2.5758,-2.5463,-2.5003,-2.4662,0.0,0.0,0.0,0.0,0.0,0.0,0.0,0.0,0.0,0.0,0.0,0.0,0.0,0.0,0.0,0.0,0.0,0.0,0.0,0.0,0.0,0.0,0.0,0.0,0.0,0.0,0.0,-3.7625,-3.7896,-3.8652,-3.9744,-4.0061,-4.0741,-4.1555,-4.1555,-4.1758,0.0,0.0,-4.2092,-4.2092,-4.2092,-4.2092,-4.2092,-4.2092,-4.2092,-4.2092,-4.2092,-4.2092,-4.2092,-4.1829,-4.1578,-4.1311,-4.0873,-4.043,-3.9996,-3.9733,-3.9482,-3.9305,-3.9305,-3.8912,-3.8491,-3.8491,-3.8247,-3.8016,-3.8016,-3.7772,-3.7528,-3.7528,-3.7528,-3.7528,-3.7528,-3.7528,-3.7528,-3.7528,-3.7528,-3.7528,-3.7528,-3.7528,-3.7528,-3.7528,-3.7528,-3.7528,-3.7528,-3.7528,-3.7528,-3.7528,-3.7528,-3.7528,-3.7528,-3.7012,-3.67,-3.67,-3.6958,-3.7107,-3.7107,-3.7392,-3.7691,-3.8016,-3.8016,-3.8165,-3.8491,-3.8491,-3.864,-2.2426,-2.3416,-2.4547,-2.4958,0.0,-2.7226,-2.8484,-2.7843,0.0,0.0,0.0,0.0,0.0,0.0,0.0,0.0,0.0,0.0,0.0,0.0,0.0,0.0,0.0,0.0,0.0,0.0,0.0,0.0,0.0,0.0,0.0,0.0,0.0,0.0,0.0,0.0,-3.8113,-3.8412,-3.8823,-3.9204,-3.9668,-4.0234,-4.0858,-4.0858,-4.1221,-4.186,-4.186,-4.1947,-4.2092,-4.2092,-4.2092,-4.2092,-4.2092,-4.2092,-4.2092,-4.2092,-4.2092,-4.2092,-4.2092,-4.1829,-4.1564,-4.1396,-4.0873,-4.0257,-4.0083,-3.9908,-3.9719,-3.9631,-3.9807,-3.9807,-3.938,-3.8966,-3.8627,-3.8627,-3.8274,-3.7948,-3.7948,-3.7948,-3.7935,-3.8177,-3.8262,-3.8262,-3.8516,-3.8516,-3.8516,-3.8516,-3.8516,-3.8516,-3.8516,-3.8516,-3.8516,-3.8516,-3.8516,-3.8516,-3.8516,-3.8347,-3.8262,-3.8262,-3.7762,-3.7528,-3.7528,-3.7677,-3.7745,-3.7745,-3.7881,-3.8165,-3.8627,-3.8627,-3.8857,-3.9305,-3.9305,-3.9305,-2.4296,-2.441,-2.4288,-2.6382,-2.6183,-2.6197,-2.9075,-2.8787,0.0,-3.1632,0.0,0.0,0.0,0.0,0.0,0.0,0.0,0.0,0.0,0.0,0.0,0.0,0.0,0.0,0.0,0.0,0.0,0.0,0.0,0.0,0.0,0.0,0.0,0.0,0.0,0.0,-3.9748,-3.9748,-3.9606,-3.9204,-3.9247,-3.9581,-4.0162,-4.0162,-4.0539,-4.1163,-4.1163,-4.1526,-4.2092,-4.2092,-4.2092,-4.2092,-4.2092,-4.2092,-4.2092,-4.2092,-4.2092,-4.2092,-4.2092,-4.2092,-4.2009,-4.1564,-4.1311,-4.1128,-4.0257,-4.056,-4.1043,-4.0603,-4.1127,-4.1408,-3.9719,-3.9278,-3.9237,-3.9237,-3.921,-3.9169,-3.9169,-3.9169,-3.942,-4.022,-4.0391,-4.0647,-4.1515,-4.1695,-4.1695,-4.1695,-4.1695,-4.1695,-4.1695,-4.1695,-4.1695,-4.1695,-4.1695,-4.1695,-4.1695,-4.0901,-4.0391,-4.0391,-3.8526,-3.7528,-3.7528,-3.807,-3.8355,-3.8355,-3.8898,-3.9197,-3.9237,-3.9237,-3.9264,-3.9305,-3.9305,-3.9305,-2.3158,-2.4208,-2.5402,-2.7063,-2.771,0.0,0.0,-3.1924,-3.274,-3.5188,-3.5073,0.0,0.0,0.0,0.0,0.0,0.0,0.0,0.0,0.0,0.0,0.0,0.0,0.0,0.0,0.0,0.0,0.0,0.0,0.0,0.0,0.0,0.0,0.0,0.0,0.0,0.0,-3.9889,-3.9813,-3.9651,-3.9313,-3.9429,-4.0018,-3.9678,-4.012,-4.1033,-4.1033,-4.118,-4.1415,-4.1415,-4.1427,-4.1593,-4.2379,-4.2688,-4.2703,-4.309,-4.3235,-4.3235,-4.3235,-4.3235,-4.3155,-4.2981,-4.2725,-4.2452,-4.1961,-4.1864,-4.185,-4.1532,-4.1728,-4.1825,-4.1156,-4.0986,-4.0986,-4.0986,-4.0986,-4.0986,-4.0986,-4.0986,-4.1057,-4.138,-4.1463,-4.1561,-4.1908,-4.199,-4.199,-4.199,-4.199,-4.199,-4.199,-4.199,-4.199,-4.199,-4.199,-4.199,-4.199,-4.1645,-4.1463,-4.1463,-4.0196,-3.9192,-3.8627,-3.9326,-3.9522,-3.8966,-3.9183,-3.9305,-3.9305,-3.9305,-3.9305,-3.9305,-3.9305,-3.9631,-2.2818,-2.4073,-2.5811,-2.7455,0.0,0.0,-3.351,-3.4347,-3.529,-3.7998,-3.7725,0.0,0.0,0.0,0.0,0.0,0.0,0.0,0.0,0.0,0.0,0.0,0.0,0.0,0.0,0.0,0.0,0.0,0.0,0.0,0.0,0.0,0.0,0.0,0.0,0.0,0.0,-4.0462,-4.0462,-4.0462,-3.9864,-3.9733,-3.9934,-3.9595,-3.9964,-4.095,-4.095,-4.1069,-4.1264,-4.1264,-4.1421,-4.1774,-4.2887,-4.3299,-4.3299,-4.3771,-4.3927,-4.3927,-4.3927,-4.3927,-4.3927,-4.3927,-4.3663,-4.3334,-4.3016,-4.2921,-4.2841,-4.2467,-4.2644,-4.279,-4.279,-4.2386,-4.199,-4.199,-4.199,-4.199,-4.199,-4.199,-4.2073,-4.24,-4.24,-4.2482,-4.2805,-4.279,-4.279,-4.279,-4.279,-4.279,-4.279,-4.279,-4.279,-4.279,-4.279,-4.279,-4.279,-4.2548,-4.24,-4.24,-4.1782,-4.1029,-4.0229,-4.0703,-4.0788,-4.0142,-4.0142,-4.0142,-4.0142,-4.0142,-4.0142,-4.0142,-4.0142,-4.0474,-2.3816,-2.4222,0.0,0.0,0.0,0.0,-3.5823,-3.5527,-3.5749,-3.9932,0.0,0.0,0.0,0.0,0.0,0.0,0.0,0.0,0.0,0.0,0.0,0.0,0.0,0.0,0.0,0.0,0.0,0.0,0.0,0.0,0.0,0.0,0.0,0.0,0.0,0.0,0.0,-4.1588,-4.1588,-4.1588,-4.1055,-4.0493,-3.9889,-3.9889,-4.0269,-4.0937,-4.0937,-4.1228,-4.176,-4.176,-4.2243,-4.2986,-4.3654,-4.3912,-4.3927,-4.3927,-4.3927,-4.3927,-4.3927,-4.3927,-4.3927,-4.3927,-4.3927,-4.3756,-4.3096,-4.36,-4.4189,-4.3536,-4.3927,-4.4572,-4.4572,-4.3284,-4.199,-4.199,-4.199,-4.199,-4.199,-4.199,-4.2319,-4.3126,-4.3284,-4.3615,-4.4419,-4.4572,-4.4572,-4.4572,-4.4572,-4.4572,-4.4572,-4.4572,-4.4572,-4.4572,-4.4572,-4.4572,-4.4572,-4.3849,-4.3284,-4.3284,-4.3284,-4.2886,-4.2073,-4.199,-4.199,-4.199,-4.199,-4.199,-4.199,-4.199,-4.199,-4.199,-4.199,-4.199,-2.3712,0.0,0.0,0.0,0.0,0.0,0.0,-3.7954,0.0,0.0,0.0,0.0,0.0,0.0,0.0,0.0,0.0,0.0,0.0,0.0,0.0,0.0,0.0,0.0,0.0,0.0,0.0,0.0,0.0,0.0,0.0,0.0,0.0,0.0,0.0,0.0,0.0,0.0,-4.1588,-4.1588,-4.1456,-4.1039,-4.0493,-4.0115,-4.0237,-4.0816,-4.0816,-4.0924,-4.1069,-4.1188,-4.1531,-4.2347,-4.3407,-4.4125,-4.4601,-4.5083,-4.5262,-4.5262,-4.5262,-4.5262,-4.5262,-4.5262,-4.5262,-4.5188,-4.4632,-4.4723,-4.483,-4.4343,-4.4419,-4.4572,-4.4572,-4.4251,-4.3849,-4.3849,-4.3849,-4.3849,-4.3849,-4.3849,-4.3927,-4.4174,-4.4251,-4.4328,-4.4572,-4.4572,-4.4572,-4.4572,-4.4572,-4.4572,-4.4572,-4.4572,-4.4572,-4.4572,-4.4572,-4.4572,-4.4572,-4.4328,-4.4251,-4.4251,-4.4251,-4.3521,-4.2073,-4.2563,-4.2644,-4.199,-4.199,-4.199,-4.199,-4.199,-4.199,-4.199,-4.199,-4.2319,-2.4599,0.0,0.0,0.0,0.0,0.0,0.0,0.0,0.0,0.0,0.0,0.0,0.0,0.0,0.0,0.0,0.0,0.0,0.0,0.0,0.0,0.0,0.0,0.0,0.0,0.0,0.0,0.0,0.0,0.0,0.0,0.0,0.0,0.0,0.0,0.0,0.0,0.0,0.0,-4.2364,-4.2142,-4.1835,-4.1491,-4.0873,-4.082,-4.1323,-4.1189,-4.1122,-4.1117,-4.1457,-4.1826,-4.2345,-4.3681,-4.4377,-4.4825,-4.5536,-4.5807,-4.5807,-4.5807,-4.5807,-4.5807,-4.5807,-4.5807,-4.5735,-4.5442,-4.5294,-4.5145,-4.4814,-4.4648,-4.4572,-4.4572,-4.4572,-4.4572,-4.4572,-4.4572,-4.4572,-4.4572,-4.4572,-4.4572,-4.4572,-4.4572,-4.4572,-4.4572,-4.4572,-4.4572,-4.4572,-4.4572,-4.4572,-4.4572,-4.4572,-4.4572,-4.4572,-4.4572,-4.4572,-4.4572,-4.4572,-4.4572,-4.4572,-4.4572,-4.4097,-4.3046,-4.3536,-4.36,-4.3046,-4.3046,-4.3046,-4.3046,-4.3046,-4.3046,-4.3046,-4.3046,-4.3284,-2.595,0.0,0.0,0.0,0.0,0.0,0.0,0.0,0.0,0.0,0.0,0.0,0.0,0.0,0.0,0.0,0.0,0.0,0.0,0.0,0.0,0.0,0.0,0.0,0.0,0.0,0.0,0.0,0.0,0.0,0.0,0.0,0.0,0.0,0.0,0.0,0.0,0.0,0.0,0.0,-4.2925,-4.2694,-4.2694,-4.1964,-4.1785,-4.2045,-4.172,-4.1588,-4.1636,-4.2315,-4.2631,-4.2805,-4.4053,-4.4606,-4.4796,-4.546,-4.576,-4.5807,-4.5807,-4.5807,-4.5807,-4.5807,-4.5807,-4.5807,-4.5646,-4.5426,-4.5278,-4.5157,-4.4933,-4.4783,-4.4783,-4.4783,-4.4783,-4.4783,-4.4723,-4.4723,-4.4723,-4.4723,-4.4783,-4.4783,-4.4783,-4.4783,-4.4783,-4.4783,-4.4783,-4.4783,-4.4708,-4.4723,-4.4723,-4.4723,-4.4648,-4.4572,-4.4723,-4.4783,-4.4723,-4.4723,-4.4723,-4.4723,-4.4648,-4.4572,-4.4572,-4.4572,-4.4572,-4.4572,-4.4572,-4.4572,-4.4572,-4.4572,-4.4572,-4.4572,-4.4633,-4.4664,-2.5687,-2.8087,0.0,0.0,0.0,0.0,0.0,0.0,0.0,0.0,0.0,0.0,0.0,0.0,0.0,0.0,0.0,0.0,0.0,0.0,0.0,0.0,0.0,0.0,0.0,0.0,0.0,0.0,0.0,0.0,0.0,0.0,0.0,0.0,0.0,0.0,-4.3512,-4.3512,-4.3512,0.0,-4.3495,-4.3614,-4.3806,-4.2317,-4.1654,-4.172,-4.1654,-4.1588,-4.1604,-4.1762,-4.2173,-4.271,-4.3011,-4.3769,-4.4733,-4.4891,-4.5317,-4.5807,-4.5807,-4.5807,-4.5807,-4.5807,-4.5807,-4.5864,-4.6214,-4.6214,-4.6143,-4.6486,-4.6432,-4.6324,-4.6324,-4.6324,-4.6324,-4.6324,-4.5897,-4.5478,-4.5478,-4.5913,-4.6324,-4.6324,-4.6324,-4.6324,-4.6324,-4.6324,-4.6324,-4.6324,-4.5841,-4.5478,-4.5478,-4.5478,-4.5216,-4.4648,-4.5624,-4.6111,-4.5478,-4.5478,-4.5478,-4.5478,-4.4933,-4.4572,-4.4572,-4.4572,-4.4572,-4.4572,-4.4572,-4.4572,-4.4572,-4.4572,-4.4572,-4.4587,-4.5126,-4.5372,-2.5731,0.0,0.0,0.0,0.0,0.0,0.0,0.0,0.0,0.0,0.0,0.0,0.0,0.0,0.0,0.0,0.0,0.0,0.0,0.0,0.0,0.0,0.0,0.0,0.0,0.0,0.0,0.0,0.0,0.0,0.0,0.0,0.0,0.0,0.0,0.0,-4.4412,-4.4412,-4.4412,-4.4412,-4.4169,-4.4037,-4.3922,-4.3213,-4.2724,-4.249,-4.249,-4.249,-4.249,-4.249,-4.2716,-4.3121,-4.3476,-4.4058,-4.4704,-4.5058,-4.5608,-4.6237,-4.626,-4.6512,-4.6791,-4.6791,-4.6791,-4.6844,-4.7085,-4.7069,-4.6932,-4.7088,-4.702,-4.6848,-4.6811,-4.6811,-4.6811,-4.6811,-4.6534,-4.6253,-4.6253,-4.6534,-4.6811,-4.6811,-4.6811,-4.6811,-4.6811,-4.6811,-4.6811,-4.6811,-4.6464,-4.6253,-4.6253,-4.6253,-4.6056,-4.5697,-4.6324,-4.6673,-4.6253,-4.6253,-4.6253,-4.6253,-4.5841,-4.5624,-4.5624,-4.5624,-4.5348,-4.4572,-4.4572,-4.4572,-4.4572,-4.4572,-4.4741,-4.5064,-4.5418,-4.5757,-2.5438,0.0,-3.3647,-3.8826,0.0,0.0,0.0,0.0,0.0,0.0,0.0,0.0,0.0,0.0,0.0,0.0,0.0,0.0,0.0,0.0,0.0,0.0,0.0,0.0,0.0,0.0,0.0,0.0,0.0,0.0,0.0,0.0,0.0,0.0,0.0,-4.5423,-4.5423,-4.5423,-4.5423,-4.5371,-4.4906,-4.4468,-4.4021,-4.4339,-4.4112,-4.3555,-4.3512,-4.3512,-4.3512,-4.3512,-4.3512,-4.3562,-4.4147,-4.4478,-4.4698,-4.544,-4.6094,-4.673,-4.6892,-4.7422,-4.7885,-4.7885,-4.7885,-4.795,-4.8015,-4.7933,-4.7786,-4.7704,-4.7556,-4.7357,-4.7204,-4.7153,-4.7153,-4.7153,-4.7153,-4.7153,-4.7017,-4.7085,-4.7153,-4.7153,-4.7153,-4.7153,-4.7153,-4.7153,-4.7153,-4.7153,-4.7017,-4.6949,-4.7153,-4.7017,-4.6949,-4.6949,-4.7085,-4.7153,-4.7017,-4.7017,-4.7017,-4.7017,-4.688,-4.6876,-4.6989,-4.6989,-4.6493,-4.535,-4.5117,-4.5008,-4.5008,-4.5117,-4.5459,-4.6019,-4.6252,-4.6672,0.0,0.0,-3.4081,0.0,-4.0202,0.0,0.0,0.0,0.0,0.0,0.0,0.0,0.0,0.0,0.0,0.0,0.0,0.0,0.0,0.0,0.0,0.0,0.0,0.0,0.0,0.0,0.0,0.0,0.0,0.0,0.0,0.0,-4.4423,-4.4423,-4.5079,0.0,-4.5423,-4.5423,-4.5423,-4.5423,-4.5406,-4.5406,-4.5336,-4.5389,-4.4801,-4.3656,-4.3555,-4.3512,-4.3512,-4.3512,-4.3512,-4.3512,-4.3628,-4.4015,-4.4693,-4.5441,-4.6118,-4.6794,-4.7489,-4.7819,-4.7885,-4.7885,-4.7885,-4.8015,-4.8572,-4.8668,-4.8623,-4.9073,-4.9073,-4.8889,-4.8719,-4.8736,-4.8736,-4.8736,-4.8736,-4.853,-4.7885,-4.8242,-4.8736,-4.8736,-4.8736,-4.8736,-4.8736,-4.8736,-4.8736,-4.8736,-4.7967,-4.7688,-4.8593,-4.7967,-4.7406,-4.7406,-4.8177,-4.845,-4.7819,-4.7754,-4.7754,-4.7754,-4.7153,-4.7087,-4.7756,-4.7772,-4.7939,-4.8409,-4.7162,-4.6534,-4.6534,-4.7146,-4.7484,-4.7596,-4.8804,-4.9489,-2.5738,-2.9746,-3.3709,0.0,-3.9623,0.0,0.0,0.0,0.0,0.0,0.0,0.0,0.0,0.0,0.0,0.0,0.0,0.0,0.0,0.0,0.0,0.0,0.0,0.0,0.0,0.0,0.0,0.0,0.0,0.0,0.0,-4.3819,-4.3993,-4.3993,-4.4324,0.0,-4.4165,-4.4578,-4.4992,-4.5423,-4.5476,-4.5528,-4.5581,-4.5528,-4.5177,-4.4635,-4.458,-4.458,-4.458,-4.458,-4.458,-4.458,-4.458,-4.4744,-4.5128,-4.595,-4.6632,-4.7344,-4.8186,-4.8731,-4.9073,-4.9073,-4.9073,-4.9135,-4.9453,-4.9471,-4.9428,-4.9488,-4.9428,-4.929,-4.9063,-4.9001,-4.9001,-4.9001,-4.9001,-4.894,-4.8593,-4.8781,-4.9001,-4.9001,-4.9001,-4.9001,-4.9001,-4.9001,-4.9001,-4.9001,-4.8656,-4.8513,-4.894,-4.8593,-4.8306,-4.8306,-4.8736,-4.8861,-4.8513,-4.8513,-4.8681,-4.91,-4.8842,-4.8962,-4.9709,-4.9726,-4.9875,-5.0207,-4.8809,-4.7993,-4.7993,-4.8388,-4.8729,-4.9102,-4.9734,-5.0237,0.0,0.0,-3.1649,-3.5721,-3.8074,-3.9728,0.0,0.0,0.0,0.0,0.0,0.0,0.0,0.0,0.0,0.0,0.0,0.0,0.0,0.0,0.0,0.0,0.0,0.0,0.0,0.0,0.0,0.0,0.0,0.0,-4.3392,-4.3568,-4.3673,-4.3673,-4.3885,-4.3775,-4.3346,-4.3817,-4.4371,-4.513,-4.513,-4.5286,-4.5528,-4.5423,-4.5423,-4.5423,-4.5423,-4.5423,-4.5423,-4.5423,-4.5423,-4.5423,-4.5423,-4.5423,-4.5543,-4.6488,-4.7256,-4.7868,-4.8848,-4.9513,-5.0011,-5.0011,-5.0011,-5.0011,-5.0011,-5.0011,-4.9935,-4.9607,-4.9547,-4.9428,-4.9124,-4.9001,-4.9063,-4.9168,-4.9229,-4.9229,-4.9229,-4.9229,-4.9273,-4.9436,-4.9419,-4.9436,-4.9333,-4.9273,-4.9229,-4.9001,-4.9001,-4.9001,-4.9001,-4.9001,-4.9001,-4.9001,-4.9171,-4.9272,-4.9272,-4.9458,-4.9796,-5.0338,-5.0371,-5.071,-5.1454,-5.1488,-5.1589,-5.1792,-5.0703,-4.9948,-4.9571,-4.9752,-5.0112,-5.0605,-5.0801,-5.1211,0.0,-2.4856,0.0,-3.1666,0.0,0.0,0.0,0.0,0.0,0.0,0.0,0.0,0.0,0.0,0.0,0.0,0.0,0.0,0.0,0.0,0.0,0.0,0.0,0.0,0.0,0.0,0.0,0.0,0.0,0.0,-4.2282,-4.2935,-4.3326,-4.3326,-4.4074,-4.4263,-4.3757,-4.3429,-4.3646,-4.4337,-4.4337,-4.4716,-4.5423,-4.5423,-4.5423,-4.5423,-4.5423,-4.5423,-4.5423,-4.5423,-4.5423,-4.5423,-4.5423,-4.5423,-4.556,-4.7093,-4.7662,-4.7941,-4.9401,-4.9952,-5.0011,-5.0011,-5.0011,-5.0011,-5.0011,-5.0011,-4.9935,-4.9784,-4.959,-4.9488,-4.9229,-4.9124,-4.9168,-4.9732,-4.9832,-4.9832,-4.9832,-4.9832,-4.9988,-5.0535,-5.0589,-5.0497,-5.0198,-5.0159,-4.989,-4.9107,-4.9001,-4.9001,-4.9001,-4.9001,-4.9001,-4.9001,-4.9627,-5.0033,-5.0033,-5.0693,-5.1116,-5.115,-5.115,-5.1488,-5.2215,-5.2249,-5.2604,-5.3365,-5.3315,-5.2522,-5.1071,-5.1763,-5.2117,-5.2184,-5.2944,-5.3315,0.0,0.0,0.0,-2.9642,-3.2423,0.0,0.0,0.0,0.0,0.0,0.0,0.0,0.0,0.0,0.0,0.0,0.0,0.0,0.0,0.0,0.0,0.0,0.0,0.0,0.0,0.0,0.0,0.0,0.0,0.0,-4.2634,-4.2886,-4.3048,-4.3048,-4.3336,-4.3471,-4.3465,-4.3368,-4.3483,-4.4004,-4.4004,-4.4225,-4.4682,-4.5005,-4.5416,-4.5955,-4.6217,-4.5988,-4.5423,-4.5423,-4.5423,-4.5423,-4.5423,-4.5423,-4.5561,-4.6613,-4.7303,-4.7872,-4.889,-4.9579,-5.0011,-5.0011,-5.0011,-5.0011,-5.0011,-5.0011,-5.0034,-5.0176,-5.0198,-5.0142,-5.0293,-5.0276,-5.0276,-5.0387,-5.0624,-5.0858,-5.0964,-5.0678,-5.0497,-5.0626,-5.0697,-5.0589,-5.0272,-5.0215,-5.0159,-5.0107,-4.993,-4.993,-5.0422,-5.0237,-5.0298,-5.0801,-5.1095,-5.1442,-5.2004,-5.1916,-5.2049,-5.2501,-5.2153,-5.2266,-5.3044,-5.3078,-5.3213,-5.3501,-5.3501,-5.323,-5.2689,-5.2942,-5.3078,-5.3078,-5.3365,-5.3501,-2.2432,0.0,0.0,0.0,0.0,0.0,0.0,0.0,0.0,0.0,0.0,0.0,0.0,0.0,0.0,0.0,0.0,0.0,0.0,0.0,0.0,0.0,0.0,0.0,0.0,0.0,0.0,0.0,0.0,0.0,-4.3069,-4.3105,-4.3105,-4.3105,-4.2957,-4.3003,-4.3171,-4.3007,-4.3144,-4.3631,-4.3631,-4.3898,-4.4401,-4.4964,-4.5511,-4.6071,-4.6664,-4.6537,-4.5887,-4.5887,-4.5887,-4.5887,-4.5887,-4.5803,-4.5754,-4.6534,-4.7051,-4.7441,-4.8387,-4.9188,-4.992,-5.007,-5.03,-5.0564,-5.0564,-5.0564,-5.0602,-5.0804,-5.0822,-5.0805,-5.1017,-5.1173,-5.1225,-5.1121,-5.1396,-5.175,-5.1884,-5.1432,-5.1087,-5.1243,-5.1312,-5.1209,-5.1017,-5.0982,-5.107,-5.126,-5.1122,-5.1017,-5.1105,-5.0876,-5.0996,-5.1823,-5.214,-5.2614,-5.3405,-5.3317,-5.348,-5.3983,-5.3604,-5.3592,-5.4141,-5.3898,-5.3783,-5.3783,-5.3783,-5.3783,-5.3783,-5.3618,-5.3501,-5.3501,-5.3501,-5.3618,0.0,0.0,0.0,0.0,0.0,0.0,0.0,0.0,0.0,0.0,0.0,0.0,0.0,0.0,0.0,0.0,0.0,0.0,0.0,0.0,0.0,0.0,0.0,0.0,0.0,0.0,0.0,0.0,0.0,-4.3497,-4.3497,-4.3497,-4.3497,-4.3497,-4.3105,-4.2938,-4.2938,-4.2458,-4.2573,-4.328,-4.328,-4.369,-4.4466,-4.5302,-4.5677,-4.5766,-4.6579,-4.6936,-4.6954,-4.6908,-4.6908,-4.6908,-4.6908,-4.6631,-4.6323,-4.7011,-4.7021,-4.679,-4.7963,-4.8907,-4.9679,-5.0208,-5.0941,-5.1583,-5.1601,-5.1601,-5.1601,-5.1619,-5.1465,-5.131,-5.1361,-5.1697,-5.1976,-5.1848,-5.2232,-5.2563,-5.2526,-5.2048,-5.1786,-5.2387,-5.2498,-5.2498,-5.2498,-5.2498,-5.2498,-5.2498,-5.2498,-5.2096,-5.0911,-5.0751,-5.105,-5.1913,-5.2632,-5.3405,-5.4213,-5.5004,-5.5443,-5.5443,-5.5385,-5.5385,-5.5385,-5.4765,-5.4454,-5.4454,-5.4454,-5.4454,-5.4454,-5.3832,-5.3568,-5.3568,-5.3551,-5.3898,-2.1388,0.0,0.0,0.0,0.0,0.0,0.0,0.0,0.0,0.0,0.0,0.0,0.0,0.0,0.0,0.0,0.0,0.0,0.0,0.0,0.0,0.0,0.0,0.0,0.0,0.0,0.0,0.0,0.0,-4.3497,-4.3497,-4.3497,-4.3497,-4.3497,-4.3375,-4.3339,-4.3339,-4.3214,-4.3085,-4.2997,-4.2997,-4.3234,-4.3654,-4.4281,-4.5142,-4.6248,-4.6789,-4.7387,-4.7875,-4.7178,-4.6908,-4.6908,-4.6908,-4.6817,-4.6713,-4.6926,-4.7257,-4.7674,-4.8014,-4.8617,-4.943,-5.0147,-5.0566,-5.0852,-5.144,-5.1601,-5.1651,-5.206,-5.2155,-5.2185,-5.2463,-5.2527,-5.2545,-5.2545,-5.2545,-5.259,-5.2563,-5.2397,-5.2275,-5.2498,-5.2498,-5.2498,-5.2498,-5.2498,-5.2526,-5.269,-5.269,-5.249,-5.2119,-5.2054,-5.2612,-5.3954,-5.4245,-5.4909,-5.6239,-5.6169,-5.6035,-5.6035,-5.5618,-5.5367,-5.5332,-5.5189,-5.5147,-5.5147,-5.5147,-5.5147,-5.5147,-5.4983,-5.4861,-5.4861,-5.4826,-5.4931,-2.1991,-2.3,0.0,0.0,0.0,0.0,0.0,0.0,0.0,0.0,0.0,0.0,0.0,0.0,0.0,0.0,0.0,0.0,0.0,0.0,0.0,0.0,0.0,0.0,0.0,0.0,0.0,0.0,-4.3497,-4.3497,-4.3497,-4.3497,-4.3497,-4.3497,-4.3497,-4.3497,-4.3497,-4.3497,-4.3375,-4.3142,-4.3142,-4.3213,-4.3418,-4.4068,-4.4816,-4.5727,-4.6689,-4.7388,-4.7791,-4.7565,-4.7464,-4.7464,-4.7464,-4.7335,-4.7204,-4.7204,-4.7357,-4.7568,-4.7751,-4.8362,-4.918,-4.983,-5.0299,-5.0733,-5.1509,-5.1762,-5.1881,-5.2563,-5.2717,-5.2806,-5.2999,-5.3017,-5.2955,-5.2912,-5.2806,-5.2743,-5.2698,-5.2627,-5.2618,-5.2554,-5.2554,-5.2554,-5.2572,-5.2572,-5.2599,-5.2779,-5.2779,-5.2717,-5.2743,-5.2698,-5.3117,-5.4379,-5.4815,-5.5504,-5.6757,-5.687,-5.6845,-5.6845,-5.6456,-5.6221,-5.6185,-5.5943,-5.5808,-5.5808,-5.5808,-5.5904,-5.6128,-5.5618,-5.5385,-5.5402,-5.5641,-5.5773,-2.3172,-2.3458,-2.4492,0.0,0.0,0.0,0.0,-2.8366,0.0,0.0,0.0,0.0,0.0,0.0,0.0,0.0,0.0,0.0,0.0,0.0,0.0,0.0,0.0,0.0,0.0,0.0,0.0,-4.3497,-4.3497,-4.3497,-4.3497,-4.3497,-4.3497,-4.3497,-4.3497,-4.3497,-4.3497,-4.3497,-4.3497,-4.3497,-4.3497,-4.3497,-4.3516,-4.425,-4.4635,-4.4782,-4.6232,-4.691,-4.7186,-4.7884,-4.8233,-4.8306,-4.8306,-4.8035,-4.7674,-4.7674,-4.7421,-4.7133,-4.7548,-4.8146,-4.8865,-4.9398,-5.0068,-5.082,-5.161,-5.1922,-5.216,-5.2986,-5.3206,-5.3206,-5.3206,-5.3206,-5.3164,-5.3042,-5.2999,-5.2955,-5.285,-5.2806,-5.2761,-5.2635,-5.2635,-5.2654,-5.2735,-5.2735,-5.2735,-5.2824,-5.2806,-5.285,-5.2937,-5.2824,-5.3044,-5.3891,-5.4647,-5.5395,-5.6215,-5.6999,-5.7473,-5.7473,-5.7449,-5.7406,-5.7388,-5.674,-5.642,-5.642,-5.642,-5.6635,-5.7206,-5.6128,-5.5618,-5.5618,-5.6146,-5.642,-2.5716,-2.6355,-2.7104,0.0,0.0,0.0,0.0,-2.6615,0.0,0.0,0.0,0.0,0.0,0.0,0.0,0.0,0.0,0.0,0.0,0.0,0.0,0.0,0.0,0.0,0.0,0.0,-4.3497,-4.3497,-4.3497,-4.3497,-4.3497,-4.3497,-4.3497,-4.3497,-4.3497,-4.3497,-4.3497,-4.3497,-4.3497,-4.3497,-4.3497,-4.3497,-4.3497,-4.3644,-4.4085,-4.4727,-4.5039,-4.592,-4.7131,-4.7297,-4.7737,-4.8306,-4.8306,-4.8249,-4.8172,-4.8172,-4.8093,-4.8035,-4.8132,-4.8281,-4.8519,-4.9352,-4.9701,-4.9976,-5.0784,-5.1481,-5.216,-5.2986,-5.3206,-5.3206,-5.3206,-5.3206,-5.3206,-5.3164,-5.3103,-5.2999,-5.2955,-5.2868,-5.2806,-5.2893,-5.285,-5.2806,-5.285,-5.2806,-5.2868,-5.3103,-5.306,-5.2999,-5.3121,-5.2999,-5.3222,-5.3936,-5.4155,-5.4574,-5.5377,-5.6179,-5.6653,-5.6653,-5.7188,-5.7486,-5.7388,-5.7289,-5.712,-5.7036,-5.7018,-5.7087,-5.7188,-5.6966,-5.6863,-5.6845,-5.6966,-5.7018,-2.7148,-2.7186,0.0,-2.688,0.0,0.0,0.0,0.0,0.0,0.0,0.0,0.0,0.0,0.0,0.0,0.0,0.0,0.0,0.0,0.0,0.0,0.0,0.0,0.0,0.0,0.0,-4.3057,-4.3461,-4.3497,-4.3497,-4.3497,-4.3497,-4.3497,-4.3497,-4.3497,-4.3497,-4.3497,-4.3497,-4.3497,-4.3497,-4.3497,-4.3497,-4.3497,-4.3497,-4.3718,-4.4121,-4.4544,-4.5168,-4.5975,-4.6783,-4.7352,-4.7755,-4.8141,-4.8306,-4.8306,-4.8306,-4.8306,-4.8306,-4.8306,-4.8306,-4.8379,-4.8802,-4.8948,-4.9114,-4.9939,-5.1022,-5.2068,-5.2491,-5.2894,-5.3206,-5.3206,-5.3206,-5.3206,-5.3206,-5.3164,-5.3103,-5.3103,-5.306,-5.3017,-5.3103,-5.306,-5.3017,-5.3042,-5.2999,-5.306,-5.3164,-5.3146,-5.3103,-5.3206,-5.3164,-5.3225,-5.3584,-5.3968,-5.4371,-5.4773,-5.5542,-5.6182,-5.6584,-5.694,-5.7229,-5.7583,-5.7553,-5.7455,-5.7289,-5.7239,-5.7188,-5.7188,-5.7188,-5.7188,-5.7188,-5.7188,-5.7188,0.0,0.0,0.0,0.0,0.0,-2.7695,0.0,0.0,0.0,-2.7755,0.0,0.0,0.0,0.0,0.0,0.0,0.0,0.0,0.0,0.0,0.0,0.0,0.0,0.0,0.0,0.0,-4.1846,-4.2947,-4.2745,-4.2782,-4.3222,-4.3406,-4.3497,-4.3497,-4.3497,-4.3497,-4.3497,-4.3497,-4.3497,-4.3497,-4.3497,-4.3497,-4.3497,-4.3497,-4.3497,-4.3534,-4.4195,-4.4562,-4.4819,-4.6122,-4.68,-4.7205,-4.7994,-4.8306,-4.8306,-4.8306,-4.8306,-4.8306,-4.8306,-4.8306,-4.8306,-4.8306,-4.8306,-4.8471,-4.9334,-5.049,-5.1591,-5.1903,-5.2472,-5.3004,-5.317,-5.3206,-5.3206,-5.3206,-5.3206,-5.3206,-5.3206,-5.323,-5.3314,-5.3314,-5.3336,-5.3378,-5.3206,-5.3206,-5.3206,-5.3206,-5.3206,-5.3206,-5.3206,-5.3206,-5.3206,-5.3206,-5.3794,-5.4179,-5.4179,-5.4913,-5.5647,-5.6308,-5.6548,-5.6895,-5.7536,-5.7558,-5.7486,-5.7388,-5.7257,-5.7239,-5.7307,-5.7307,-5.7307,-5.7188,-5.7289,-5.7307,0.0,0.0,0.0,0.0,-3.1184,0.0,0.0,0.0,-2.8027,-2.688,0.0,0.0,0.0,0.0,0.0,0.0,0.0,0.0,0.0,0.0,0.0,0.0,0.0,0.0,0.0,0.0,0.0,-4.1203,-4.0065,-4.0175,-4.2323,-4.3112,-4.3497,-4.3497,-4.3497,-4.3497,-4.3497,-4.3497,-4.3497,-4.3497,-4.3497,-4.3497,-4.3497,-4.3497,-4.3497,-4.3497,-4.3589,-4.4048,-4.4727,-4.4911,-4.5828,-4.7205,-4.7994,-4.8306,-4.8306,-4.8306,-4.8306,-4.8306,-4.8306,-4.8306,-4.8306,-4.8306,-4.8306,-4.8471,-4.9334,-4.9719,-5.016,-5.1591,-5.2068,-5.2307,-5.3023,-5.3206,-5.3206,-5.3206,-5.3206,-5.3206,-5.3206,-5.3422,-5.3643,-5.3643,-5.3944,-5.3962,-5.3314,-5.3206,-5.3206,-5.3206,-5.3206,-5.3206,-5.3206,-5.3206,-5.3206,-5.3206,-5.3298,-5.3353,-5.3353,-5.4069,-5.4583,-5.4675,-5.6014,-5.6749,-5.6749,-5.717,-5.7406,-5.7388,-5.7257,-5.7406,-5.7745,-5.7745,-5.7553,-5.7206,-5.7553,-5.7745,0.0,0.0,0.0,0.0,0.0,0.0,0.0,0.0,-2.6705,0.0,0.0,0.0,0.0,0.0,0.0,0.0,0.0,0.0,0.0,0.0,0.0,0.0,0.0,0.0,0.0,0.0,0.0,0.0,0.0,-3.9056,-4.1479,-4.2378,-4.302,-4.3479,-4.3497,-4.3497,-4.3497,-4.3497,-4.3497,-4.3497,-4.3497,-4.3497,-4.3497,-4.3497,-4.3497,-4.3497,-4.3497,-4.3681,-4.403,-4.4525,-4.5112,-4.5847,-4.7131,-4.7902,-4.8306,-4.8306,-4.8306,-4.8306,-4.8306,-4.8306,-4.8306,-4.8306,-4.8306,-4.8379,-4.8728,-4.9187,-4.9719,-5.0398,-5.1261,-5.2068,-5.2417,-5.2858,-5.323,-5.3422,-5.3502,-5.3563,-5.3795,-5.3962,-5.4052,-5.4052,-5.4193,-5.4212,-5.3889,-5.3833,-5.3833,-5.3833,-5.3641,-5.3502,-5.3502,-5.3336,-5.3206,-5.3206,-5.3359,-5.34,-5.3206,-5.3672,-5.4285,-5.5023,-5.6602,-5.7455,-5.7391,-5.7562,-5.7755,-5.7978,-5.7755,-5.7849,-5.8264,-5.8168,-5.7987,-5.7849,-5.8006,-5.8097,-3.3588,0.0,0.0,0.0,0.0,0.0,0.0,0.0,0.0,0.0,0.0,0.0,0.0,0.0,0.0,0.0,0.0,0.0,0.0,0.0,0.0,0.0,0.0,0.0,0.0,0.0,0.0,0.0,0.0,0.0,-4.0286,-4.1423,-4.2341,-4.3149,-4.3387,-4.3497,-4.3497,-4.3497,-4.3497,-4.3497,-4.3497,-4.3497,-4.3497,-4.3497,-4.3497,-4.3532,-4.3582,-4.3649,-4.3686,-4.4343,-4.4746,-4.5078,-4.6482,-4.7534,-4.8273,-4.829,-4.8306,-4.8306,-4.8306,-4.8306,-4.8306,-4.8306,-4.8364,-4.8439,-4.8439,-4.8919,-4.9566,-4.9788,-5.0878,-5.2005,-5.2227,-5.2892,-5.3542,-5.3795,-5.3851,-5.3944,-5.4246,-5.4364,-5.443,-5.443,-5.4546,-5.461,-5.461,-5.4449,-5.4315,-5.4315,-5.4052,-5.3851,-5.3851,-5.3641,-5.3481,-5.3481,-5.37,-5.3776,-5.3521,-5.3738,-5.4464,-5.5812,-5.7217,-5.8104,-5.8326,-5.8194,-5.8245,-5.8549,-5.8351,-5.8394,-5.8769,-5.8582,-5.8558,-5.8558,-5.8474,-5.8431,0.0,0.0,0.0,-3.0959,0.0,0.0,0.0,0.0,-2.796,0.0,0.0,0.0,0.0,0.0,-2.982,-2.8051,-2.7769,0.0,0.0,0.0,0.0,0.0,0.0,0.0,0.0,0.0,0.0,0.0,0.0,0.0,-3.8524,-4.0286,-4.1515,-4.2304,-4.3075,-4.3497,-4.3497,-4.3497,-4.3497,-4.3497,-4.3497,-4.3497,-4.3497,-4.3497,-4.3497,-4.3532,-4.3846,-4.3974,-4.4005,-4.4298,-4.4881,-4.5659,-4.6551,-4.7414,-4.8128,-4.8237,-4.8306,-4.8306,-4.8306,-4.8306,-4.8306,-4.8306,-4.8532,-4.8781,-4.8781,-4.9034,-4.9459,-5.0234,-5.1115,-5.2011,-5.2765,-5.359,-5.4281,-5.4281,-5.4262,-5.4262,-5.4315,-5.456,-5.4776,-5.4776,-5.5113,-5.5358,-5.5358,-5.4784,-5.4315,-5.4315,-5.4315,-5.4262,-5.4262,-5.4281,-5.4262,-5.4262,-5.4262,-5.4281,-5.4281,-5.4262,-5.4956,-5.657,-5.7489,-5.837,-5.914,-5.9027,-5.897,-5.897,-5.8816,-5.8893,-5.9102,-5.9102,-5.9159,-5.9253,-5.8926,-5.8788,0.0,0.0,-3.8619,-3.4771,0.0,0.0,0.0,0.0,0.0,0.0,0.0,0.0,0.0,-3.0251,-2.9999,-2.8266,-2.7503,-2.6484,0.0,0.0,0.0,0.0,0.0,0.0,0.0,0.0,0.0,0.0,0.0,0.0,0.0,-3.8322,-4.012,-4.1479,-4.2286,-4.2947,-4.3479,-4.3497,-4.3497,-4.3497,-4.3497,-4.3497,-4.3532,-4.3749,-4.3846,-4.3846,-4.4132,-4.426,-4.426,-4.4374,-4.4552,-4.489,-4.5735,-4.6561,-4.7432,-4.8562,-4.8949,-4.8949,-4.8949,-4.8949,-4.8949,-4.8949,-4.9048,-4.9145,-4.9145,-4.919,-4.9358,-4.964,-5.0316,-5.1129,-5.1973,-5.2799,-5.3635,-5.4459,-5.4623,-5.4685,-5.4952,-5.5132,-5.5187,-5.5187,-5.5305,-5.5403,-5.5403,-5.5187,-5.5028,-5.5028,-5.4795,-5.4623,-5.4623,-5.443,-5.4315,-5.4315,-5.4495,-5.4528,-5.4315,-5.5291,-5.6136,-5.6681,-5.7903,-5.8727,-5.9008,-5.8868,-5.8926,-5.9178,-5.9006,-5.9102,-5.9436,-5.929,-5.9253,-5.9309,-5.9178,-5.9121,-3.9051,-3.999,0.0,-3.708,-3.5897,0.0,-3.013,0.0,0.0,0.0,0.0,0.0,0.0,0.0,-3.0621,-2.9245,-2.7829,-2.6357,0.0,0.0,0.0,0.0,0.0,0.0,0.0,0.0,-2.6634,-2.9397,0.0,0.0,0.0,0.0,-3.9019,-4.0616,-4.1735,-4.269,-4.3479,-4.3497,-4.3497,-4.3497,-4.3615,-4.3682,-4.3682,-4.3999,-4.4151,-4.4151,-4.443,-4.4546,-4.4546,-4.4669,-4.472,-4.4815,-4.5621,-4.6452,-4.7359,-4.8472,-4.9039,-4.9283,-4.9283,-4.9283,-4.9283,-4.9283,-4.9394,-4.9483,-4.9483,-4.957,-4.9674,-4.9674,-5.0251,-5.1101,-5.1933,-5.2764,-5.3675,-5.4753,-5.499,-5.5066,-5.5332,-5.5403,-5.5403,-5.5403,-5.5403,-5.5403,-5.5403,-5.5403,-5.5403,-5.5403,-5.5187,-5.499,-5.499,-5.4814,-5.4692,-5.4692,-5.4874,-5.4933,-5.4723,-5.6185,-5.713,-5.713,-5.8578,-5.9413,-5.9413,-5.929,-5.9308,-5.9578,-5.94,-5.94,-5.9616,-5.9455,-5.9383,-5.929,-5.929,-5.929]}]]